GFSCGP_con_sbcape_000.txt.gz
CAPE
0 0 0 0 0 0 3 28 43 38 229 364 281 240 337 878 812 767 1005 1146 976 819 905 1102 1374 1495 1585 1791 2214 2531 2404 2499 2770 2717 1700 1770 1565 1692 2022 1698 2403 2264 2110 2002
0 0 0 0 0 0 0 4 39 87 159 228 177 239 269 416 901 715 722 1066 1287 1029 882 1244 1506 1465 1519 1897 2353 2709 2797 2764 2850 2203 2455 2011 2302 1637 1853 2000 2133 2225 2172 2225
0 0 0 0 0 0 0 0 24 94 158 209 150 246 192 152 598 698 621 653 1103 1197 1003 1109 1289 1478 1509 1799 2391 2711 3051 3125 3074 2937 2392 2563 2432 2432 2066 2162 2422 2735 2589 2518
0 0 0 0 0 0 0 0 7 56 108 139 181 151 67 128 476 643 817 698 612 1136 1145 1134 1116 1339 1441 1650 2042 2751 3175 3423 3242 3210 2972 3586 2291 1787 1374 1730 1392 2066 2650 2451
0 0 0 0 0 0 0 0 0 9 88 123 154 160 53 74 114 449 813 839 584 463 917 1095 1105 1068 1384 1511 1821 2351 3201 3734 3739 3377 3616 3150 3030 1792 1436 1512 1999 2359 2313 2490
0 0 0 0 0 0 0 0 0 13 40 92 101 76 6 15 80 69 273 681 752 388 429 785 935 975 1190 1371 1620 1952 3177 4089 3741 3649 3587 3540 2895 2635 1537 2020 1643 1139 1138 1795
0 0 0 0 0 0 0 0 6 28 38 45 65 64 1 1 2 13 8 165 748 540 399 540 828 969 1161 1369 1554 1877 2763 3653 3554 3555 3414 3484 3487 3195 2942 2632 1877 1083 763 807
0 0 0 0 0 0 0 0 6 42 24 25 11 7 0 7 12 0 0 44 469 703 377 468 697 911 1221 1316 1583 1885 2503 3566 3371 3320 3724 4274 4043 3270 3059 2946 1892 1295 795 386
0 0 0 0 0 0 0 0 0 26 39 23 1 1 0 0 15 0 32 91 204 637 576 359 633 864 1136 1381 1895 2553 3278 3059 3142 3067 3414 3770 3982 3634 2993 2841 2783 1785 1467 432
0 0 0 0 0 0 0 0 0 2 67 36 4 12 0 7 0 0 25 115 236 573 662 418 549 774 1043 1312 1606 2027 2541 3149 2886 2865 3048 3152 3331 3535 3331 3158 3231 2256 1888 1403
0 0 0 0 0 0 0 0 0 1 4 12 22 1 0 0 0 0 3 124 159 448 762 705 518 618 1031 1135 1396 1873 2296 2623 2859 2836 3425 3246 2941 3050 3370 3304 3428 3017 2210 1396
0 0 0 0 0 0 0 0 0 2 1 10 9 0 0 0 0 0 0 8 10 260 733 909 808 791 912 1251 1216 1541 1939 2382 2695 3304 3540 2997 2913 2889 3140 3390 3058 2317 1729 973
0 0 4 0 0 0 0 0 0 0 2 96 14 0 0 0 0 0 49 84 99 442 767 1079 1076 1174 1208 1242 1862 1606 1984 2181 2361 2767 2902 2891 2837 2930 3067 2819 1697 1671 863 649
0 0 0 0 0 0 0 0 0 0 3 1 5 26 6 0 0 0 0 96 210 691 903 1224 1254 1514 1578 1941 2671 2728 2039 2192 2382 2483 2869 3034 2839 2752 2734 2004 427 263 240 325
91 97 33 0 0 0 0 0 0 0 0 3 0 8 11 1 0 0 0 4 238 865 967 1321 1500 2493 2777 2740 2870 2583 2360 2402 2460 2670 2713 3018 3048 2663 1991 1267 321 165 152 438
0 130 57 35 8 7 4 0 0 0 0 0 0 0 0 0 0 0 0 0 289 1017 1103 1419 1670 1938 2312 2362 2491 2564 2594 2495 2641 2819 2892 3026 3421 2400 1304 960 778 897 745 392
14 161 387 216 111 66 63 11 3 0 0 0 0 0 0 0 0 0 1 123 332 960 1135 1298 1635 1849 2315 2444 2685 2635 2645 2599 2681 2893 3024 3223 3019 1968 1223 889 856 794 568 327
79 482 437 342 289 247 1 1 0 0 0 0 0 0 0 0 0 15 153 81 349 966 1149 1281 1389 1751 2013 1974 2102 2180 2333 2541 2734 2980 2999 3004 2649 1727 1612 1240 1160 911 461 227
16 192 374 204 290 134 31 196 28 3 0 0 0 0 0 0 3 294 192 181 516 1033 1355 1392 1329 1605 1842 1565 1804 1903 2096 2360 2557 2764 2824 2508 2075 1479 1216 1242 1149 1114 838 562
83 162 308 298 197 174 566 323 222 315 80 0 0 0 0 9 42 1 361 125 246 755 984 1177 1086 1399 1362 1377 1506 1874 2058 2385 2624 2728 2656 2085 1747 1680 1367 1426 1312 1146 1160 826
315 447 116 271 310 301 444 265 400 352 51 4 44 117 160 243 406 538 417 490 691 1052 1164 1246 1161 1102 1333 1373 1626 1856 2080 2341 2514 2695 2494 1929 1905 2116 2034 1818 1347 1103 959 855
496 415 159 303 362 331 165 440 665 658 457 448 455 522 528 495 737 849 873 1058 1126 1058 896 820 1307 1703 1716 1748 2005 2283 2430 2671 2805 2776 2120 1980 1880 1787 1831 1631 1180 948 1081 1069
384 226 210 284 208 218 80 275 457 589 615 600 605 564 577 534 632 720 734 735 767 728 742 870 1433 1904 2162 2370 2381 2698 3294 3053 2911 2231 1949 1986 1810 1535 1528 1469 949 815 912 871
454 420 479 510 243 70 38 66 185 323 374 360 374 330 384 366 413 473 580 819 1125 1291 1141 1137 1312 1791 2409 2530 2653 3047 2568 2637 2721 2174 2059 1673 1902 1623 1440 1289 1140 1346 1327 1077
248 353 438 280 105 17 6 0 1 27 105 206 253 275 313 617 833 1116 1288 1270 1295 1391 1323 1247 1437 2031 2337 2405 2426 2318 2245 2191 2190 1987 1741 1675 1411 1283 1677 851 257 1249 166 177
14 150 488 137 123 46 0 0 0 0 0 2 37 34 50 163 264 516 960 1295 1478 1765 1802 1869 1966 2300 2401 2416 2400 2419 2133 2181 2062 1414 1410 1395 1409 1682 1513 756 119 0 0 1

GFSCGP_con_sbcape_003.txt.gz
CAPE
0 0 0 0 0 0 14 61 44 46 27 81 174 145 266 455 413 257 90 131 400 572 718 761 948 943 924 1107 1546 2155 2546 3669 2715 2157 2656 2243 1745 1969 1740 1475 2738 2717 2363 2288
0 0 0 0 0 0 0 24 66 46 42 29 114 203 222 773 536 380 231 123 153 337 489 780 998 1012 939 1304 1888 2892 3182 3927 3341 2353 2828 2629 2276 1535 1328 1319 2334 2256 2843 2684
0 0 0 0 0 0 0 8 43 71 145 77 134 129 155 214 668 588 305 263 198 200 229 690 891 1063 1124 1521 2272 3227 4144 4352 3957 3775 2998 3071 2752 2206 2411 1826 2020 2385 2435 2398
0 0 0 0 0 0 0 0 16 66 49 112 41 171 162 120 206 640 609 432 305 255 287 450 931 1195 1160 1567 1901 3340 4289 4423 4328 4312 3119 3649 2151 1484 924 1173 1152 2037 2721 2501
0 0 0 0 0 0 0 0 15 46 140 135 72 117 99 59 133 259 619 618 433 268 388 452 794 1112 1136 1321 1658 2658 4348 4651 4548 4309 3888 2512 2768 1362 1312 885 3074 1768 3025 1927
0 0 0 0 0 0 0 0 18 40 83 112 156 117 214 52 116 170 284 633 712 550 375 750 677 918 1084 1248 1532 2456 4356 4776 4841 4501 4093 4090 3861 3036 1431 1550 1805 1602 1242 1772
0 0 0 0 0 0 0 0 8 44 66 42 89 152 204 221 70 73 75 124 557 823 510 622 989 1003 1331 1802 2123 2640 4183 4853 4790 4193 4376 4227 3909 4169 3324 2723 2042 1594 680 861
0 0 0 0 0 0 0 0 0 17 39 41 50 66 86 95 41 55 69 33 122 644 747 418 783 1276 1846 1819 2627 2859 3753 4680 4831 4568 4725 4750 4714 2860 2494 2989 2162 1363 964 741
0 0 0 0 0 0 0 0 0 24 67 57 53 54 23 32 75 62 28 9 27 285 679 609 494 861 1530 1655 2436 2919 3787 4357 4577 3631 4870 4859 4729 4552 2696 3704 3685 2136 2437 846
0 0 0 0 0 0 0 0 0 7 74 71 75 68 62 53 8 5 31 14 12 51 657 662 485 625 1252 1245 1881 2780 3557 4249 4017 4185 4459 4275 4420 4611 4279 4372 4080 3445 2808 1857
0 0 0 0 0 0 0 0 0 1 29 37 70 74 53 59 38 0 3 5 37 58 491 786 567 551 845 918 1472 1980 2745 3842 4045 4184 4125 4303 3928 4058 4307 4090 3913 3729 2947 2798
0 0 0 0 0 0 0 0 0 25 35 21 72 71 29 8 3 4 14 18 31 77 290 652 726 522 650 1262 1077 1293 1712 2069 3138 3961 4437 4421 4420 4100 3974 4155 4101 3984 3537 2901
0 0 0 0 0 0 0 0 0 0 12 132 44 4 23 11 12 43 17 0 6 82 119 589 660 892 888 1054 1305 1056 1623 1503 2028 3433 3525 4142 3912 4201 4041 4123 4123 3926 3778 2884
0 0 0 0 0 0 0 0 0 0 0 7 11 47 87 65 10 1 0 0 8 58 493 535 832 1285 1350 1521 1763 1695 1565 1289 1724 2408 2764 3939 4234 4034 3825 4120 3908 3373 3141 2492
0 0 0 0 0 3 0 0 0 0 0 1 4 40 37 83 70 15 3 0 0 1 369 968 1201 2285 2469 2198 2452 2362 1978 2363 2186 3204 3068 4028 4453 4081 3903 3977 3938 3153 2614 2010
0 15 18 0 0 0 2 3 0 0 0 0 0 1 18 17 86 34 0 0 0 0 15 937 1442 1821 3052 2824 3157 3048 2942 3022 3070 3899 3782 4362 4646 4294 3901 3835 3346 2302 2179 1548
38 70 328 161 66 93 72 0 0 1 1 0 0 0 0 15 64 97 16 0 2 64 94 478 1373 1834 2511 2507 3440 3417 3635 3390 3787 4306 4408 4780 4821 4254 3346 3105 2694 2159 1819 1510
38 66 65 143 330 239 0 99 58 30 22 13 8 0 0 15 33 50 13 1 66 174 171 229 1086 1823 2730 2288 2308 2919 3085 4095 4370 4529 4541 4758 4618 3683 2660 2195 2057 1955 2025 1846
18 54 79 281 406 273 221 541 440 500 195 29 24 1 0 1 2 16 0 0 2 27 224 432 1392 1839 3427 3038 3569 3734 3439 3895 4181 4002 4551 4685 4048 3286 2443 1826 1785 2185 2130 2330
1 14 207 450 266 326 171 700 508 402 211 15 45 49 0 3 65 11 1 30 408 462 246 860 1648 2098 2744 3289 2763 3344 2911 3469 3936 4035 4265 4573 3732 2984 2198 1835 1891 2193 2286 1915
0 3 0 78 216 179 845 502 547 429 417 1114 844 628 308 20 61 685 640 432 523 565 1380 2020 2028 2883 3243 3132 2538 3197 3071 3062 3100 3221 3339 3536 2930 2524 1943 2056 2288 2019 1883 1455
0 15 24 90 142 183 549 556 575 1070 886 1008 993 864 1062 48 631 747 858 939 1010 1215 1600 1712 2228 2590 2520 2879 3082 3368 3566 3724 3908 3752 3447 2907 2458 2165 2157 2361 1828 1552 1575 1410
111 18 38 101 268 916 714 891 840 831 892 1002 1071 962 895 1028 938 1059 1290 1534 1626 1624 1671 1537 1503 2454 2458 3096 3318 3693 4535 4370 4062 3919 3065 2549 2480 2395 2533 2292 2048 1733 1558 1211
173 147 324 552 662 586 672 599 591 621 705 759 1003 1079 1138 1215 1152 1050 931 891 844 965 1290 1339 1598 2156 2697 3180 2822 3591 3528 3599 3661 2900 2466 2345 2275 2199 2173 2145 1437 1109 885 1051
21 372 481 767 533 331 182 231 230 309 432 419 609 830 1245 1144 1099 1195 1517 1596 1197 1141 1161 1419 1705 2136 2440 2832 3240 2973 3261 3388 2756 2429 2309 2740 2313 2127 2020 997 831 1622 1355 1059
11 29 468 521 560 298 0 0 2 0 0 1 21 105 265 634 718 1122 1378 1399 1370 1375 1458 1773 1733 2224 2559 2762 2890 2829 2892 2940 3071 2564 2560 2299 2029 2250 1595 444 4 0 0 1

GFSCGP_con_sbcape_006.txt.gz
CAPE
0 0 0 0 0 0 0 3 0 0 40 1 125 100 0 0 185 4 101 64 194 377 480 676 744 844 924 1523 2131 2308 2432 3228 3537 3257 2400 2367 2110 2709 2337 2360 2182 2725 3116 2643
0 0 0 0 0 0 0 0 9 10 58 19 71 322 40 328 279 199 10 41 52 48 310 705 931 789 911 1381 1812 2696 2702 3498 3176 3090 2904 2670 2284 1942 2029 2310 2775 3096 2781 3468
0 0 0 0 0 0 0 0 0 3 16 14 22 60 260 320 184 121 94 39 19 86 79 765 917 912 1044 1416 2089 2491 3095 3247 3180 3051 3039 3215 2761 2473 2362 2815 2778 3241 3310 3213
0 0 0 0 0 0 0 0 0 0 22 23 26 0 339 87 581 196 139 82 63 64 162 453 958 1203 1177 1422 1926 2789 3242 3436 3580 2927 3032 2715 2233 2400 2504 2879 2277 2936 3160 3074
0 0 0 0 0 0 0 0 0 0 0 56 161 86 86 367 409 643 358 256 188 206 108 216 910 1131 1231 1467 2076 2571 3479 3627 3618 3560 3176 2982 2804 2107 2066 1694 3635 3220 3494 2942
0 0 0 0 0 0 0 0 0 0 0 16 39 24 63 183 94 54 402 501 415 382 319 373 773 1091 1319 1469 2169 2273 3739 3966 3886 3902 3299 3539 2497 2534 1952 2802 2927 2631 2498 2818
0 0 0 0 0 0 0 0 0 0 12 5 25 61 192 212 122 69 2 163 657 662 545 530 722 1134 1445 1606 1942 2512 3463 3935 4050 4091 3577 3423 3461 3116 3558 3879 2898 2550 1715 2095
0 0 0 0 0 0 0 0 0 0 1 3 12 20 81 236 112 79 15 23 490 774 671 634 888 1056 1548 1595 2012 2438 3332 3806 4184 3958 3965 3713 3378 3041 3075 3519 2535 2563 1706 1884
0 0 0 0 0 0 0 0 0 0 0 7 17 43 12 78 176 11 0 58 112 663 777 715 1010 1144 1578 1626 1945 2409 3423 3903 4210 4212 4173 4235 3723 3384 3006 3232 3227 2786 2354 2348
0 0 0 0 0 0 0 0 0 0 2 18 12 53 122 137 294 130 74 39 51 91 852 923 834 1398 1569 1751 1851 2532 2946 3889 4278 4214 4215 4210 4212 3704 3381 3100 3417 2363 2513 2479
0 0 0 0 0 0 0 0 0 0 0 7 30 29 124 487 522 390 123 37 24 54 685 700 968 1039 1662 1891 1912 2231 2631 3666 4130 4219 4151 4187 4142 4000 3651 4123 3839 2831 3090 2119
0 0 0 0 0 0 0 0 0 0 0 0 0 5 19 252 273 59 56 35 43 55 185 609 1099 950 1348 1643 1753 2144 2602 3233 3768 3972 4103 4089 4113 4125 4006 3507 3875 3197 3542 2541
0 0 0 0 0 0 0 0 0 0 0 8 5 0 0 94 20 209 95 63 223 97 742 734 961 1079 1135 1298 1575 1932 2342 2758 3632 3793 3837 3778 3966 3989 3936 3804 3289 3560 3352 2835
0 0 0 0 0 0 0 0 0 0 0 0 0 7 38 266 112 178 172 141 137 539 1531 988 977 1324 1092 1310 1530 1780 2095 2361 3029 3398 3514 3637 3616 3690 3627 3727 3624 3445 3387 2987
0 0 0 0 0 0 0 0 0 0 0 0 0 0 130 165 325 149 130 183 246 467 1167 1395 1697 1867 1603 1677 1655 1628 1692 1851 2084 2980 3479 3617 3873 3699 3673 3651 3695 3545 3754 3581
0 0 0 0 0 0 5 0 0 0 0 0 0 0 0 48 80 458 191 185 240 269 323 1473 1756 2678 3069 2035 1862 1623 1580 1666 1956 2497 2932 3372 3777 3991 3843 3676 3868 3780 3965 3474
27 0 23 0 0 1 22 0 2 0 0 0 0 0 0 24 149 386 657 294 268 212 306 749 2044 2196 2485 2677 2102 1747 1701 1914 1966 2718 2983 3205 3856 4180 3919 3848 3902 4051 3750 3062
126 24 12 32 160 82 0 0 1 1 1 0 0 0 0 0 7 19 20 89 135 325 157 251 24 2129 2803 2820 2269 2257 2127 2416 2374 3885 3379 3603 4259 4287 4050 3961 3915 3938 3077 2521
43 135 76 234 273 48 36 44 96 42 16 6 4 45 4 0 0 1 0 0 22 6 698 388 54 662 2759 2845 2786 3152 2704 2547 3865 3544 4180 4254 4794 4511 4336 3990 3665 3252 2494 2239
0 242 86 179 82 177 262 460 351 331 238 821 773 632 427 123 34 0 13 65 30 4 61 1062 1165 1337 3201 3335 2997 3180 3471 3238 3121 4110 4405 4825 4808 4412 3628 3215 2622 2115 2311 2333
2 53 33 65 44 0 457 380 216 417 469 883 825 841 801 618 813 1087 1189 1930 1538 264 578 952 2823 3010 3586 3637 3414 3398 3566 3765 3715 4535 4557 4951 4665 3946 2878 2285 2092 2098 2392 2648
3 0 0 204 395 330 523 111 213 892 800 707 675 779 870 1143 1125 1009 854 1228 1365 1277 686 2009 4164 4416 4217 4052 4062 4215 4253 4459 4620 4556 4704 4758 3749 2548 2233 2207 2302 2334 2083 1613
10 0 15 22 23 260 942 1179 856 759 770 1149 1435 1053 702 668 828 1106 1146 1351 1530 1297 2249 2325 3604 4212 4361 4474 3991 4091 4425 4265 4164 4194 4476 3869 2873 2343 2208 2583 1893 1625 1970 1631
55 154 101 158 324 908 803 582 530 697 1119 1149 1185 1309 1536 1516 1206 1288 1433 1691 2162 2513 2826 2777 2934 3252 3783 3856 4089 4332 4276 4228 4115 4068 3337 2779 2562 2882 2908 2419 2123 1851 1792 1691
180 144 388 269 1421 863 694 600 615 604 744 687 366 305 479 982 1053 1533 2102 2295 2519 2616 2831 3295 3511 3829 4095 4517 4167 4229 4437 4300 3549 2942 2526 2253 2136 2235 2169 542 789 1244 0 278
14 59 204 770 867 778 487 238 30 30 127 42 17 13 108 228 265 360 1107 1160 1477 1889 2115 2509 3281 3441 3136 3485 3866 4068 4046 3478 2982 2551 2344 2456 1990 1854 712 64 0 0 0 0

GFSCGP_con_sbcape_009.txt.gz
CAPE
0 0 0 0 0 0 0 0 0 0 9 5 35 9 17 0 0 0 73 0 39 93 81 446 511 534 693 1306 1208 1070 1132 1651 1490 1447 1642 1578 1705 1479 1264 1073 1604 1034 1307 1418
0 0 0 0 0 0 0 0 0 0 3 2 39 47 0 0 0 0 1 33 27 56 46 247 318 415 640 971 1118 1077 837 2024 1598 1769 1643 1302 1270 1345 1268 1188 1191 1083 1776 1535
0 0 0 0 0 0 0 0 0 0 0 14 57 49 36 0 0 0 4 2 44 60 80 151 201 283 351 772 1300 1242 1013 1626 1921 1859 1533 1780 1408 1448 1424 1367 1786 1863 1812 1747
0 0 0 0 0 0 0 0 0 0 0 1 30 20 23 15 305 147 31 0 1 53 101 131 236 276 311 800 1022 1300 1411 1729 1737 1830 1689 1529 1340 1022 1226 1404 1175 1629 2133 1922
0 0 0 0 0 0 0 0 0 0 0 20 0 0 0 65 39 2 6 0 0 0 16 136 347 297 385 593 1000 1649 1583 1563 1991 1746 1738 1500 1161 889 1215 1395 1030 1757 1962 1696
0 0 0 0 0 0 0 0 0 0 0 0 0 0 0 19 7 10 25 0 0 0 0 138 295 416 370 789 1180 1478 1963 2010 2199 1582 1945 1723 1550 1289 973 867 1662 1767 1621 1432
0 0 0 0 0 0 0 0 0 0 0 0 0 0 0 44 27 45 72 21 29 1 0 0 298 512 507 825 1039 1778 1982 2080 2319 2131 1626 2063 1617 1424 1237 1005 1570 1604 1335 1620
0 0 0 0 0 0 0 0 0 0 0 0 0 0 0 4 52 89 120 188 81 78 6 3 322 457 659 714 1263 1742 2159 2083 2524 2455 2446 1723 2068 1330 1145 1618 1638 1467 1373 1424
0 0 0 0 0 0 0 0 0 0 0 0 0 0 0 0 15 61 27 29 13 37 17 11 137 402 649 733 1470 1513 2475 2516 2598 2777 2669 2199 2056 2003 1726 1712 2070 1355 913 1098
0 0 0 0 0 0 0 0 0 0 0 0 0 0 0 0 23 20 18 32 26 1 5 64 116 411 681 824 1275 1608 2196 2689 2884 2549 2936 2629 2368 1798 1739 1657 1886 1913 1063 1254
0 0 0 0 0 0 0 0 0 0 0 0 0 0 0 0 33 78 20 15 15 11 64 132 188 371 788 956 1230 1568 2164 2727 2964 3048 2925 2818 2694 2268 1932 2138 1950 1678 1426 1127
0 0 0 0 0 0 0 0 0 0 0 0 0 0 0 0 132 158 33 38 7 0 24 147 243 440 938 1082 1077 1558 2622 2753 3040 3182 3109 3034 2998 2765 2401 2021 2124 1970 1564 1122
0 0 0 0 0 0 0 0 0 0 0 0 0 0 0 0 0 1 1 24 0 10 372 401 310 783 1060 1138 1096 1545 2153 3035 3235 3351 3226 3192 2972 3083 2952 2358 2668 2555 1633 1611
1 0 0 0 0 0 0 0 0 0 0 0 0 0 0 0 18 19 30 16 6 23 216 323 428 886 1036 1299 1260 1266 1863 2755 3221 3479 3342 3115 3039 3033 3072 2913 2331 2703 2458 1881
0 0 0 0 0 0 0 0 0 0 0 0 0 0 0 0 101 65 97 92 53 140 463 389 591 582 1040 1203 1285 1380 1585 1922 2886 3182 3250 3052 3054 3060 3115 3052 3002 2375 2356 2130
0 0 0 0 0 0 0 0 0 0 0 0 0 0 0 0 0 303 167 23 1 424 887 645 663 597 644 931 1062 1298 1549 1885 2245 2912 3068 2909 2981 2954 3076 3027 2996 2879 2456 2384
0 0 0 0 0 0 0 0 0 0 0 0 0 0 0 0 0 41 82 149 2 8 595 714 827 1485 717 891 1056 1287 1502 1638 2030 2511 2881 2869 2737 2926 2875 2937 2844 2944 2827 2838
0 0 0 0 0 11 0 0 0 0 0 0 0 0 0 0 0 7 0 0 0 0 27 342 700 1060 1836 1073 1045 1247 1366 1630 1828 1983 2603 2714 2934 2842 3088 3036 2962 3146 2993 2828
0 0 0 0 0 0 0 0 0 0 0 36 286 158 2 0 0 0 0 0 0 0 0 0 209 951 1427 1614 1245 1067 1148 1416 1489 1637 1983 2548 2682 3057 3269 3169 3067 3221 2996 2263
0 0 0 0 0 0 0 52 187 147 206 730 560 487 372 264 82 20 433 921 72 5 0 0 47 28 1556 1612 1495 1238 1144 1264 1250 1391 1889 2373 2558 3046 3467 3238 3045 2603 1972 1653
1 16 0 25 0 0 76 257 177 92 467 489 398 439 545 460 479 466 476 1084 1221 936 491 0 247 626 1659 1896 1764 1526 1382 1257 1629 1353 2766 3153 3618 3634 3049 2429 1754 1483 1564 1625
0 0 0 86 91 69 436 336 413 658 856 1193 1180 1401 654 497 392 518 802 1022 1226 991 871 3022 1358 1945 2357 2324 2429 2325 1759 1827 3109 3429 4129 3858 2973 2584 1955 1520 1474 1502 1582 1404
0 0 0 0 47 366 440 222 483 511 924 1001 1067 1463 1228 1099 1475 1588 1385 1358 1576 2108 2964 3059 3538 3725 3716 3013 3010 3591 3878 3781 3786 4066 3429 2449 2071 1820 1424 1279 1402 1419 1037 853
35 93 46 127 0 176 101 181 859 565 331 120 582 721 489 446 391 363 578 1410 2273 2303 2681 2871 3086 3111 3307 3457 3587 3701 3648 3692 3870 3172 2399 1816 1604 1603 1457 1155 1090 1168 1141 970
302 69 116 142 549 528 454 314 417 300 53 0 15 44 37 14 7 10 1 35 461 1630 2742 2990 3102 3573 3476 3427 3473 3363 3431 3381 2667 2178 1705 1593 1567 1575 127 0 161 77 0 396
5 137 59 186 77 28 113 4 12 4 4 0 0 21 0 0 0 0 0 0 0 3 301 2496 2941 3157 3273 3402 3226 2832 2421 2102 1989 1750 1541 1678 1369 59 0 0 0 0 0 0

GFSCGP_con_sbcape_012.txt.gz
CAPE
0 0 0 0 0 0 0 0 0 0 0 0 0 0 0 198 511 583 600 551 483 454 342 310 154 249 274 680 1060 1144 1120 851 971 923 986 990 1053 946 859 925 416 629 819 933
0 0 0 0 0 0 0 0 0 0 0 0 1 0 0 8 65 278 321 375 453 409 352 255 204 323 319 755 1023 1129 1033 818 772 820 923 979 1030 948 994 731 720 657 647 812
0 0 0 0 0 0 0 0 0 0 0 0 6 35 2 0 1 2 46 88 211 190 171 207 285 287 431 688 776 744 1072 1051 919 916 1001 894 817 773 944 884 852 907 1017 1006
0 0 0 0 0 0 0 0 0 0 0 0 7 1 43 0 0 0 0 4 62 71 32 94 277 229 370 609 669 657 820 1350 1191 1176 1156 1140 1033 1027 979 841 947 1330 1323 1202
0 0 0 0 0 0 0 0 0 0 0 0 0 0 0 11 0 0 0 1 59 24 36 7 218 267 257 437 698 643 467 1499 1468 1388 1214 1172 991 873 578 768 979 945 1405 1349
0 0 0 0 0 0 0 0 0 0 0 0 0 0 0 0 0 0 1 0 2 28 16 0 74 153 215 353 681 762 614 777 1460 1493 1334 1267 1101 858 651 577 738 948 1480 1244
0 0 0 0 0 0 0 0 0 0 0 0 0 0 0 0 0 0 26 0 0 2 37 0 3 71 97 205 565 924 850 740 1102 1520 1388 1283 1121 897 722 446 791 1251 1336 1034
0 0 0 0 0 0 0 0 0 0 0 0 0 0 0 0 0 7 13 1 0 0 4 17 4 63 63 184 591 935 1074 961 1186 1274 1446 1411 1237 1111 975 373 1032 1141 1291 1349
0 0 0 0 0 0 0 0 0 0 0 0 0 0 0 0 0 0 2 5 0 0 0 0 36 66 122 220 567 903 1332 1231 1368 1565 1234 1471 1554 1307 1123 849 946 1129 1014 1099
0 0 0 0 0 0 0 0 0 0 0 0 0 0 0 0 0 0 0 6 2 0 0 0 2 118 246 220 610 1040 1415 1448 1651 1818 1647 1433 1434 1625 1211 828 1206 1064 873 1003
0 0 0 0 0 0 0 0 0 0 0 0 0 0 0 0 0 0 6 27 19 10 8 0 4 120 289 357 795 1198 1442 1435 1748 1969 1883 1868 1645 1384 1496 1230 1256 1410 846 587
0 0 0 0 0 0 0 0 0 0 0 0 0 0 0 0 0 0 0 1 114 100 3 8 1 71 259 524 940 1143 1665 1674 1771 2102 2106 2028 2035 1836 1510 1410 1453 1197 1201 643
0 0 0 0 0 0 0 0 0 0 0 0 0 0 0 0 0 0 0 0 0 0 0 0 23 77 303 570 807 1269 1632 1949 2092 2178 2206 2396 2240 2151 1864 1511 1544 1479 1253 698
0 0 0 0 0 0 0 0 0 0 0 0 0 0 0 0 0 0 0 2 9 19 0 0 45 115 443 671 831 1306 1527 2157 2236 2450 2422 2449 2479 2343 2279 1920 1640 1556 1604 984
0 0 0 0 0 0 0 0 0 0 0 0 0 0 0 0 0 0 0 0 4 60 2 2 58 181 561 827 870 1216 1703 1983 2322 2487 2667 2618 2607 2560 2543 2338 2043 1773 2066 1292
0 0 0 0 0 0 0 0 0 0 0 0 0 0 0 0 0 0 0 0 0 0 6 76 128 332 610 875 930 1087 1562 2252 2363 2615 2699 2723 2782 2703 2679 2718 2566 2037 1957 1990
0 0 0 0 0 0 0 0 0 0 0 0 0 0 0 0 0 0 0 0 0 0 137 190 266 517 613 906 1025 1017 1515 2088 2550 2707 2873 2898 2776 2725 2687 2723 2700 2599 2070 1733
0 0 0 0 0 0 0 0 0 0 0 0 0 0 0 0 0 0 0 0 0 0 1 298 308 446 688 922 1103 1195 1310 1815 2442 2608 2833 3023 2910 2750 2690 2729 2768 2642 2575 2044
0 0 0 0 0 0 0 0 0 0 0 0 0 0 0 0 0 0 0 0 0 0 0 3 240 457 487 675 965 1217 1317 1559 1861 2292 2589 2795 2828 2622 2684 2611 2764 2582 2648 2413
0 0 0 0 0 0 0 0 3 0 227 179 0 0 0 0 0 0 0 404 0 0 0 0 0 336 1096 541 790 989 1192 1481 1653 1921 2250 2648 2694 2543 2547 2669 2688 2700 2665 2610
3 0 1 0 0 0 14 14 54 51 37 57 6 0 0 5 0 0 9 589 508 281 35 0 0 0 347 1211 714 742 941 1232 1541 1808 1996 2208 2543 2563 2540 2745 2738 2842 2455 2189
6 34 74 0 2 151 0 30 47 109 931 882 968 551 814 892 1028 955 444 400 737 443 438 1579 28 0 0 576 1004 799 782 937 1269 1482 1595 1609 2221 2421 2772 2735 2540 2252 1850 1689
79 4 1 0 0 0 0 177 414 440 500 499 511 487 471 604 501 654 1146 1494 1731 1775 1857 2025 2077 992 2197 900 1287 1114 939 941 954 1046 1537 1995 2462 2721 2584 2266 1934 1502 1353 1169
71 83 22 0 0 0 421 526 199 42 155 64 27 9 11 87 14 0 0 67 151 72 159 101 532 1898 2727 2420 1771 1290 1148 1218 1571 2567 3015 2721 2367 2034 1805 1371 1334 982 812 681
134 100 122 0 0 0 11 124 99 0 0 0 0 0 0 0 0 0 0 0 0 0 0 0 0 0 0 1927 3123 3036 2839 3199 3060 2640 2381 1990 1381 1418 357 0 323 389 246 397
56 135 189 107 1 2 1 2 2 0 0 0 0 0 0 0 0 0 0 0 0 0 0 0 0 0 0 0 423 3267 3154 2693 2210 1829 1749 1351 145 1 1 1 1 0 0 2

GFSCGP_con_sbcape_015.txt.gz
CAPE
0 0 0 0 0 0 0 0 0 0 0 0 0 0 505 611 689 831 763 750 810 702 552 502 330 236 310 399 456 526 600 698 825 655 800 736 777 307 483 574 568 845 950 1085
0 0 0 0 0 0 0 0 0 0 0 0 0 0 392 501 590 736 800 796 832 769 618 531 392 311 148 476 664 673 657 644 732 769 790 751 561 513 437 574 464 523 834 889
0 0 0 0 0 0 0 0 0 0 0 0 0 0 0 472 539 544 531 551 668 563 588 576 371 301 165 371 728 784 773 719 614 625 640 431 439 431 612 534 541 541 454 482
0 0 0 0 0 0 0 0 0 0 0 0 0 0 0 12 415 391 430 441 392 332 327 328 393 131 174 297 615 789 844 768 530 484 563 723 697 616 629 669 601 641 659 596
0 0 0 0 0 0 0 0 0 0 0 0 0 0 0 0 0 7 99 165 243 263 237 222 227 158 133 203 564 799 836 765 567 492 565 579 475 520 352 472 706 729 837 852
0 0 0 0 0 0 0 0 0 0 0 0 0 0 0 0 0 0 0 0 29 104 168 200 177 227 234 268 485 672 652 773 707 631 633 601 579 517 373 385 619 560 701 935
0 0 0 0 0 0 0 0 0 0 0 0 0 0 0 0 0 0 0 0 0 1 43 71 79 143 218 331 537 583 475 835 900 871 824 757 695 531 426 367 442 536 801 971
0 0 0 0 0 0 0 0 0 0 0 0 0 0 0 0 0 0 0 0 0 0 0 12 23 26 167 170 457 518 459 631 1032 1103 1025 895 781 694 601 270 410 550 891 1024
0 0 0 0 0 0 0 0 0 0 0 0 0 0 0 0 0 0 0 0 0 0 0 4 11 1 69 130 161 545 511 445 855 1146 1134 1026 962 860 699 330 387 557 768 1005
0 0 0 0 0 0 0 0 0 0 0 0 0 0 0 0 0 0 0 0 0 0 0 1 16 16 14 69 106 392 613 561 517 896 1121 1123 1030 927 759 544 448 597 744 842
0 0 0 0 0 0 0 0 0 0 0 0 0 0 0 0 0 0 0 0 0 0 0 0 12 21 16 35 47 308 654 672 623 713 917 973 1110 1045 876 630 729 749 690 655
0 0 0 0 0 0 0 0 0 0 0 0 0 0 0 0 0 0 0 0 0 0 0 0 0 7 41 48 55 318 592 813 749 848 1011 958 948 1091 1184 930 762 921 877 606
0 0 0 0 0 0 0 0 0 0 0 0 0 0 0 0 0 0 0 0 0 0 0 0 0 0 9 46 76 335 660 894 917 1044 1172 1211 1203 1109 1236 1281 1127 962 1088 626
0 0 0 0 0 0 0 0 0 0 0 0 0 0 0 0 0 0 0 0 0 0 0 0 0 0 10 37 156 445 773 971 1031 1206 1383 1433 1441 1485 1249 1249 1241 1270 1126 872
0 0 0 0 0 0 0 0 0 0 0 0 0 0 0 0 0 0 0 0 0 0 0 0 0 0 1 18 224 568 779 1168 1161 1279 1540 1607 1604 1673 1650 1509 1285 1211 1185 1089
0 0 0 0 0 0 0 0 0 0 0 0 0 0 0 0 0 0 0 0 0 0 0 0 0 0 2 54 305 528 985 1228 1441 1511 1631 1738 1851 1923 1906 1860 1642 1367 1270 1287
0 0 0 0 0 0 0 0 0 0 0 0 0 0 0 0 0 0 0 0 0 0 0 0 0 0 3 164 401 556 1064 1194 1753 1754 1855 1935 1924 2109 2144 2077 1955 1703 1428 1514
0 0 0 0 0 0 0 0 0 0 0 0 0 0 0 0 0 0 0 0 0 0 0 0 0 0 72 338 594 686 1003 1373 1738 1954 1984 2147 2203 2178 2261 2305 2233 2070 1689 1784
0 0 0 0 0 0 0 0 0 0 0 0 0 0 0 0 0 0 0 0 0 0 0 0 0 9 170 444 714 847 927 1366 1879 2017 2140 2277 2414 2379 2439 2427 2483 2407 2156 1729
0 0 0 0 0 0 0 0 0 0 0 0 0 0 0 0 0 0 0 0 0 0 0 0 0 35 177 475 891 974 981 1366 1928 2220 2284 2442 2588 2525 2489 2527 2485 2548 2563 2141
0 48 0 0 0 0 0 0 0 0 0 0 0 0 0 0 0 0 0 2 35 2 64 2 0 7 169 348 812 1033 1088 1163 1605 2059 2380 2413 2613 2692 2574 2480 2479 2602 2619 2399
58 62 52 0 2 0 21 39 100 60 1 212 88 168 166 256 435 642 721 799 590 485 814 1564 1478 946 483 0 368 876 1088 1231 1314 1597 1798 2182 2376 2669 2512 2475 2439 2532 2654 2513
49 66 47 1 0 0 0 1 101 51 96 77 286 396 401 441 142 39 52 2 0 0 0 0 3 46 11 1270 843 438 629 1049 1297 1417 1522 1591 2096 2414 2332 2420 2552 2672 2710 2543
70 74 75 61 10 25 108 8 16 10 23 13 7 0 0 0 0 0 0 0 0 0 0 0 0 0 0 0 100 304 938 720 856 1159 1392 1506 1872 2275 2342 2534 2698 2672 2423 2188
0 123 51 95 27 20 76 0 0 0 0 0 0 0 0 0 0 0 0 0 0 0 0 0 0 0 0 0 0 0 0 19 641 838 1114 1370 1776 2354 1953 1042 1629 2243 1177 1354
68 209 108 18 58 4 1 0 0 0 0 0 0 0 0 0 0 0 0 0 0 0 0 0 0 0 0 0 292 162 0 0 500 1693 2120 2125 2067 105 1 0 0 1 1 322

GFSCGP_con_sbcape_018.txt.gz
CAPE
0 0 0 0 0 0 0 0 0 0 0 0 0 0 343 449 529 556 530 527 494 452 388 368 322 381 328 403 482 413 519 609 471 458 536 569 683 354 271 159 392 506 642 821
0 0 0 0 0 0 0 0 0 0 0 0 0 0 252 444 530 535 558 561 562 575 484 459 340 251 264 304 276 386 478 595 640 565 572 663 598 315 294 455 451 592 728 859
0 0 0 0 0 0 0 0 0 0 0 0 0 0 0 368 477 539 505 527 518 570 526 419 378 190 140 221 233 303 402 532 676 650 517 187 175 239 321 276 486 345 617 775
0 0 0 0 0 0 0 0 0 0 0 0 0 0 0 47 421 455 510 581 549 586 603 425 322 233 86 75 195 293 356 412 514 592 540 610 697 708 683 446 366 479 455 516
0 0 0 0 0 0 0 0 0 0 0 0 0 0 0 2 293 314 361 430 589 585 593 513 384 325 217 71 83 380 437 433 472 510 562 504 586 478 166 247 409 481 518 569
0 0 0 0 0 0 0 0 0 0 0 0 0 0 0 0 88 343 318 382 378 357 427 425 414 415 267 180 71 298 513 529 531 458 466 417 455 258 152 193 409 428 571 667
0 0 0 0 0 0 0 0 0 0 0 0 0 0 0 0 0 3 150 197 265 314 300 271 179 233 351 122 90 263 495 582 594 448 410 373 385 297 263 208 416 390 428 678
0 0 0 0 0 0 0 0 0 0 0 0 0 0 0 0 0 0 0 1 19 77 169 231 182 113 174 150 95 267 507 589 616 521 451 415 408 376 380 302 339 395 541 765
0 0 0 0 0 0 0 0 0 0 0 0 0 0 0 0 0 0 0 0 0 0 0 30 121 101 94 99 121 265 448 534 615 630 572 506 496 517 472 444 297 404 513 690
0 0 0 0 0 0 0 0 0 0 0 0 0 0 0 0 0 0 0 0 0 0 0 0 0 3 23 87 112 271 419 445 515 712 738 723 682 667 621 552 331 401 452 810
0 0 0 0 0 0 0 0 0 0 0 0 0 0 0 0 0 0 0 0 0 0 0 0 0 1 5 23 89 198 402 451 414 794 889 892 862 829 776 649 506 480 551 621
0 0 0 0 0 0 0 0 0 0 0 0 0 0 0 0 0 0 0 0 0 0 0 0 0 0 0 0 19 99 348 465 427 543 983 1007 988 962 904 761 725 599 562 614
0 0 0 0 0 0 0 0 0 0 0 0 0 0 0 0 0 0 0 0 0 0 0 0 0 0 0 0 0 48 180 475 523 476 696 979 1043 1017 972 878 863 717 729 631
0 0 0 0 0 0 0 0 0 0 0 0 0 0 0 0 0 0 0 0 0 0 0 0 0 0 0 0 0 13 131 361 586 609 610 809 945 1021 1099 1056 968 767 871 742
0 0 0 0 0 0 0 0 0 0 0 0 0 0 0 0 0 0 0 0 0 0 0 0 0 0 0 0 13 60 145 377 629 735 771 892 992 962 1023 1222 1172 1043 973 972
0 0 0 0 0 0 0 0 0 0 0 0 0 0 0 0 0 0 0 0 0 0 0 0 0 0 0 0 86 178 296 546 733 910 956 1066 1193 1245 1205 1144 1244 1255 1144 1192
0 0 0 0 0 0 0 0 0 0 0 0 0 0 0 0 0 0 0 0 0 0 0 0 0 0 0 0 182 268 464 691 849 1004 1138 1304 1386 1454 1525 1426 1297 1253 1234 1228
0 0 0 0 0 0 0 0 0 0 0 0 0 0 0 0 0 0 0 0 0 0 0 0 0 0 0 0 23 283 415 757 1108 1142 1210 1448 1620 1647 1658 1709 1599 1488 1360 1304
0 0 0 0 0 0 0 0 0 0 0 0 0 0 0 0 0 0 0 0 0 0 0 0 0 0 0 0 19 283 565 912 1205 1422 1448 1593 1755 1825 1848 1915 1898 1802 1647 1467
0 0 0 0 0 0 0 0 0 0 0 0 0 0 0 0 0 0 0 0 0 0 0 0 0 0 0 0 88 372 653 1043 1207 1665 1727 1812 1906 1902 1926 2117 2107 2035 1926 1751
0 0 0 0 0 0 0 3 1 0 0 0 1 0 0 0 0 0 163 432 392 811 492 0 0 0 0 0 245 497 609 978 1342 1580 1835 1946 2083 2175 2097 2237 2337 2358 2295 2115
0 0 0 0 0 0 0 36 96 0 0 1 1 0 0 0 89 265 64 46 34 234 653 613 577 776 985 119 260 514 624 841 1149 1530 1861 2013 2228 2324 2291 2450 2480 2548 2568 2569
0 6 24 0 0 0 1 0 8 0 1 1 1 0 0 11 30 27 0 0 0 0 0 0 0 0 13 396 358 490 558 780 495 1124 1527 2130 2272 2513 2598 2611 2620 2637 2642 2592
12 31 25 27 20 6 64 37 0 0 0 0 0 1 0 0 0 0 0 0 0 0 0 0 0 0 0 0 0 0 0 592 927 554 1022 1492 2141 2443 2725 2681 2615 2713 2740 2717
1 0 0 0 0 78 191 14 0 0 0 0 0 0 0 0 0 0 0 0 0 0 0 0 0 0 0 0 0 0 0 0 321 1271 607 1136 1600 1733 2560 2613 2469 2678 2796 2659
0 0 0 0 0 44 84 4 0 6 0 0 0 0 0 0 0 0 1 1 1 1 1 5 66 61 0 0 0 0 0 0 0 580 1465 960 1418 1736 2326 196 1 27 1356 1138

GFSCGP_con_sbcape_021.txt.gz
CAPE
0 0 0 0 0 0 0 0 0 0 0 0 0 20 119 666 819 851 780 664 615 626 633 707 767 738 844 1006 1143 1203 1095 1356 1157 1026 791 750 697 662 1022 1148 1425 1828 1932 2090
0 0 0 0 0 0 0 0 0 0 0 0 0 0 0 356 797 905 895 763 724 756 720 722 737 772 792 1002 1154 1394 1467 1741 1481 1096 1203 942 1063 914 1481 1418 1612 1735 1866 2092
0 0 0 0 0 0 0 0 0 0 0 0 0 0 0 138 509 786 924 868 766 834 823 801 750 748 825 963 1358 1772 2030 2060 1740 1628 1228 1211 1414 1631 1629 1565 1781 1776 1966 2176
0 0 0 0 0 0 0 0 0 0 0 0 0 0 0 0 375 554 774 880 860 876 920 863 844 840 812 1268 1183 1790 1881 2135 1780 2124 1678 1882 1280 1281 1364 1608 1716 1778 2000 2131
0 0 0 0 0 0 0 0 0 0 0 0 0 0 0 0 164 537 697 823 844 925 984 962 947 976 930 923 984 1185 1806 2021 2139 2223 2191 1816 1883 1328 1361 1410 2132 2379 2146 2096
0 0 0 0 0 0 0 0 0 0 0 0 0 0 0 0 0 164 557 790 880 864 908 1011 1032 990 964 807 745 1081 1711 1884 2040 2089 2161 2348 2318 2046 1513 1548 1487 1560 1602 1680
0 0 0 0 0 0 0 0 0 0 0 0 0 0 0 0 0 0 258 664 791 950 957 994 1116 1103 1219 1307 1228 1156 1652 1834 1936 1956 2059 2221 2284 2470 2368 2041 1494 1669 1451 1467
0 0 0 0 0 0 0 0 0 0 0 0 0 0 0 0 0 0 9 245 604 795 928 1056 1427 1546 1587 1455 1449 1259 1408 1780 1920 1911 1998 2091 2244 1790 1941 2123 1479 1408 1411 1566
0 0 0 0 0 0 0 0 0 0 0 0 0 0 0 0 0 0 0 0 101 443 736 876 1258 1482 1543 1627 1549 1478 1445 1673 1881 1877 1959 2019 2094 2030 1928 2187 2214 1532 2075 1541
0 0 0 0 0 0 0 0 0 0 0 0 0 0 0 0 0 0 0 0 0 0 217 594 995 1229 1321 1294 1632 1470 1464 1677 1819 1897 1929 1867 1929 2010 2058 2182 2211 2130 2058 1880
0 0 0 0 0 0 0 0 0 0 0 0 0 0 0 0 0 0 0 0 0 0 7 132 566 996 1244 1087 1222 1419 1425 1701 1930 1995 2027 1971 1934 1945 2030 2096 2240 2287 2214 2196
0 0 0 0 0 0 0 0 0 0 0 0 0 0 0 0 0 0 0 0 0 22 86 77 144 356 687 1218 1099 1288 1348 1494 1759 1929 2093 2076 2119 2103 2089 2135 2211 2342 2374 2153
0 0 0 0 0 0 0 0 0 0 0 0 0 0 0 0 0 0 0 0 0 0 19 75 51 128 509 821 1170 1180 1165 1257 1343 1794 1945 2113 2201 2245 2209 2209 2286 2374 2404 2412
0 0 0 0 0 0 0 0 0 0 0 0 0 0 0 0 0 0 0 0 0 0 1 65 108 573 581 763 1007 1073 1213 1196 1326 1513 1818 2091 2253 2276 2294 2330 2401 2406 2454 2436
0 0 0 0 0 0 0 0 0 0 0 0 0 0 0 0 0 0 0 0 0 0 0 0 2 662 913 893 1035 1075 1084 1404 1502 1774 1741 2058 2327 2394 2447 2453 2452 2448 2486 2382
0 0 0 0 0 0 0 0 0 0 0 0 0 0 0 0 0 0 0 0 0 0 0 0 0 171 446 849 1122 1090 1158 1334 1590 1878 1873 1954 2312 2512 2518 2554 2567 2541 2497 2482
0 0 0 0 0 0 0 0 0 0 0 0 0 0 0 0 0 0 0 0 0 0 0 0 0 81 554 632 1108 1133 1260 1411 1656 1570 2019 2198 2280 2447 2512 2537 2602 2553 2534 2494
0 0 0 0 0 0 0 0 0 0 0 0 0 0 0 0 0 0 0 0 0 0 0 0 0 0 774 337 360 1010 1139 1584 1754 1956 2189 2325 2387 2423 2497 2462 2555 2678 2644 2576
0 0 0 0 0 0 0 0 0 0 0 0 0 0 0 0 0 0 0 0 0 0 0 0 0 0 333 598 1083 1398 1434 1685 1867 1983 2202 2366 2442 2456 2578 2615 2592 2623 2708 2768
0 0 1 0 0 0 0 0 0 0 0 0 0 2 0 0 0 0 0 0 0 0 0 0 0 0 29 182 279 1276 1292 1672 2060 2170 2248 2364 2652 2708 2754 2807 2891 2820 2738 2723
1 0 1 0 0 0 0 0 65 10 0 0 0 0 68 88 0 0 0 10 215 316 0 0 10 394 510 658 486 1517 1643 1986 1864 2024 2314 2825 2867 2910 2984 3082 3100 3120 3081 2828
12 17 9 1 0 0 0 0 0 91 62 38 25 0 2 56 256 0 375 1036 1589 1496 604 396 1133 1439 1310 987 1458 1582 1877 1882 2134 2345 2680 3179 3198 2880 2904 3362 3412 3380 3176 3034
22 7 75 0 0 0 0 0 11 117 87 65 26 1 3 56 356 311 1005 1076 933 545 650 1563 1479 1017 1093 1472 1890 2047 2042 1885 2159 2500 3096 3273 3306 3489 3488 3539 3519 3481 3333 2906
52 75 95 14 0 0 0 0 20 82 60 42 23 11 20 183 218 566 300 87 17 0 0 0 1 123 329 518 656 947 951 2228 2314 2467 2908 3196 3294 3646 3767 3352 3420 3449 3247 2871
27 4 19 51 4 0 0 0 25 95 29 68 10 3 5 24 16 0 0 0 0 0 0 17 287 399 284 335 285 126 137 218 511 1564 2353 2344 2698 3067 3581 3806 3718 3601 3603 3224
5 2 22 4 24 30 0 25 100 93 133 36 0 37 17 19 2 1 2 3 2 27 335 598 818 792 482 89 91 114 179 153 212 344 426 803 1440 2041 2576 3253 3524 10 277 2121

GFSCGP_con_sbcape_024.txt.gz
CAPE
0 0 0 0 0 0 0 0 0 0 0 0 0 0 0 97 574 634 1179 1289 1180 1083 910 832 933 989 1054 1213 1563 1645 1651 1893 1901 1626 1448 1055 674 705 625 587 1027 1679 2125 2431
0 0 0 0 0 0 0 0 0 0 0 0 0 0 0 26 491 634 1044 1239 1267 1196 1012 960 996 991 894 1225 1549 1873 1807 2099 2229 1739 1697 981 753 556 688 804 1310 1920 2290 2743
0 0 0 0 0 0 0 0 0 0 0 0 0 0 0 0 15 282 680 1071 1156 1207 1149 1054 1011 993 900 1174 1573 1828 2150 2084 2112 2058 1380 1117 936 900 919 1145 1585 1957 2406 2553
0 0 0 0 0 0 0 0 0 0 0 0 0 1 29 7 11 38 319 774 1049 1196 1244 1175 1015 962 931 1152 1471 1853 2147 2352 2247 2403 1982 2443 1285 1253 1193 1655 1290 1631 2372 2335
0 0 0 0 0 0 0 0 0 0 0 0 0 0 0 0 0 0 75 360 887 1056 1264 1319 1203 945 839 1101 1349 1722 2381 3056 3062 2482 2717 1946 2139 1498 1429 1333 2434 3056 2710 2546
0 0 0 0 0 0 0 0 0 0 0 0 0 0 0 0 0 0 95 404 830 1012 1183 1359 1395 1061 907 1076 1425 1672 2841 3852 3312 2894 2448 3445 3447 2610 1764 2079 1585 1696 1855 2047
0 0 0 0 0 0 0 0 0 0 0 0 0 0 0 0 0 0 0 30 759 1025 1169 1272 1512 1443 1088 1184 1409 1694 2632 3385 3019 2802 2768 2900 2986 3096 3304 2674 2051 2443 1518 1459
0 0 0 0 0 0 0 0 0 0 0 0 0 0 0 0 0 0 0 0 246 961 1170 1193 1482 1644 1561 1326 1833 1845 2613 3052 2903 2823 3576 3768 3690 2379 2392 2902 2187 2017 1591 1683
0 0 0 0 0 0 0 0 0 0 0 0 0 0 0 0 0 0 0 0 0 670 1120 1273 1270 1556 1746 1793 2305 2678 3055 3436 3036 2552 3487 3820 3675 3483 2524 3390 3203 2314 3012 1802
0 0 0 0 0 0 0 0 0 0 0 0 0 0 0 0 0 0 0 0 0 167 869 1087 1279 1376 1662 1848 1925 2252 2759 3295 3408 2986 3095 2907 3199 3653 3620 3761 3583 3526 2925 2876
0 0 0 0 0 0 0 0 0 0 0 0 0 0 0 0 0 0 0 0 0 33 265 722 973 1199 1342 1658 1986 2085 2261 2813 2683 3190 3390 3328 3078 3017 3152 3246 3779 3880 3181 3529
0 0 0 0 0 0 0 0 0 0 0 0 0 0 0 0 0 0 0 0 0 0 39 96 239 673 1151 1460 1745 2016 2152 2155 2492 2875 3552 3554 3562 3387 3061 3535 3561 3894 3768 3678
0 0 0 0 0 0 0 0 0 0 0 0 0 0 0 0 0 0 0 0 0 0 46 150 121 242 763 1213 1638 1584 1847 1968 1982 2772 2535 2750 3091 3176 3444 3747 3489 3773 3924 3946
0 0 0 0 0 0 0 0 0 0 0 0 0 0 0 0 0 0 0 0 0 0 0 0 31 140 461 1136 2027 2420 1570 1658 1757 1891 2274 3099 3525 3497 3551 3727 3761 3828 3998 4041
0 0 0 0 0 0 0 0 0 0 0 0 0 0 0 0 0 0 0 0 0 0 0 0 47 400 966 1112 1816 2448 1913 1976 1845 2559 2154 3165 3581 3817 3829 3836 3937 3869 4042 3965
0 0 0 0 0 0 0 0 0 0 0 0 0 0 0 0 0 0 0 0 0 0 0 0 0 57 349 914 1355 1446 2260 1893 2122 2885 2826 3153 3729 3999 3985 4071 4112 4102 4058 4102
0 0 0 0 0 0 0 0 0 0 0 0 0 0 0 0 0 0 0 0 0 0 0 0 0 0 58 136 857 1315 1720 1815 2554 2907 3275 3509 3859 3969 4129 4059 4184 4147 4154 4156
0 0 0 0 0 0 0 0 0 0 0 0 0 0 0 0 0 0 0 0 0 0 0 0 0 0 0 3 2 927 1388 2597 2791 3275 3401 3628 3560 3827 3815 4179 4179 4206 4134 4016
0 0 0 0 0 0 0 0 0 0 0 0 0 0 0 0 0 0 0 0 0 0 0 0 0 0 77 0 46 386 1449 1830 2207 3311 3425 3568 3482 3524 3769 4153 4213 4189 4073 4095
1 0 0 0 0 0 0 0 0 0 0 0 0 0 0 35 0 0 0 0 0 0 0 0 0 0 0 15 70 627 1188 1661 2424 3127 2921 3575 3826 3919 3879 4046 4280 4297 4238 3987
6 21 3 1 0 0 0 0 41 1 94 28 5 1 87 299 180 511 544 217 6 1 16 15 0 0 41 390 420 619 1310 1792 2263 2410 2453 3307 3898 4107 4100 4291 4390 4181 4078 3638
21 16 6 2 1 0 0 0 0 53 63 22 22 4 36 271 562 627 703 886 262 83 325 797 6 78 774 1443 1508 1402 2811 2191 2583 2836 2733 3625 4005 3385 3028 4475 4524 4221 4140 4221
28 20 26 8 0 0 0 0 0 0 0 0 0 0 0 1 320 794 1200 822 651 855 1283 1488 799 1623 1966 2277 2369 2469 2454 2427 2547 2759 3175 3162 3370 3398 3921 4378 4243 3663 4337 3465
71 52 51 27 0 9 3 0 0 0 0 0 0 0 0 0 188 923 1193 1082 1152 808 891 1103 1580 1601 2071 2834 3096 3317 3097 2920 3072 3267 3406 3425 3596 3582 3511 3290 3419 3453 3379 3552
70 67 53 62 54 19 12 0 0 0 9 1 0 2 1 4 25 993 1077 833 550 353 506 998 1128 1196 1295 1265 1139 1061 1198 1538 2956 3161 3181 3408 3402 3520 3571 3936 3400 3350 3883 3188
9 12 52 37 22 38 34 22 9 21 3 2 2 0 60 29 72 70 108 253 514 729 1018 1183 1146 1125 865 902 1185 1481 1474 1569 1359 1152 1041 1178 1624 1939 2663 2889 3468 877 1127 510

GFSCGP_con_sbcape_027.txt.gz
CAPE
0 0 0 0 0 0 0 0 0 24 69 40 37 81 85 119 288 397 958 1166 1151 952 697 684 775 786 837 1170 1649 2330 2533 3426 2527 1956 1637 1429 998 961 500 559 898 1225 1547 2115
0 0 0 0 0 0 0 0 0 0 9 40 29 29 61 74 154 299 662 1060 1190 1126 882 677 756 771 847 1096 1997 3020 3169 3718 3232 2273 2411 1664 1663 582 550 541 1689 1412 1883 2383
0 0 0 0 0 0 0 0 0 0 3 7 13 29 33 50 94 310 565 990 1041 1163 1153 906 811 808 823 1199 2134 2952 3508 3665 3356 3240 2642 2471 1805 1540 803 908 827 1549 1978 2260
0 0 0 0 0 0 0 0 0 0 3 12 0 19 34 31 52 158 338 809 1045 1091 1221 1207 904 858 849 1306 1482 2961 3540 3698 3485 3698 2328 2516 1208 826 654 953 934 1509 2475 2165
0 0 0 0 0 0 0 0 0 0 0 1 3 19 67 29 29 41 55 301 925 904 1160 1259 1170 881 817 983 1174 2111 3702 3812 3571 3536 3381 2177 1998 782 825 890 2418 2331 3488 2655
0 0 0 0 0 0 0 0 0 0 0 0 0 0 10 57 64 71 59 69 322 626 965 1264 1326 974 790 759 984 1939 3641 4070 4014 3917 3502 3968 2677 2034 1250 1554 1524 1418 1400 2350
0 0 0 0 0 0 0 0 0 0 0 0 0 0 0 9 16 37 31 46 102 289 825 1208 1419 1184 988 1217 1524 2085 3584 4165 4197 4113 3597 3489 3770 3245 4213 3803 1492 1797 1296 1173
0 0 0 0 0 0 0 0 0 0 0 0 0 0 0 0 3 15 37 48 167 315 796 1151 1404 1455 1453 1493 2021 2284 3354 4154 4257 4066 4068 3850 4159 2668 2298 2899 1785 1554 1263 1324
0 0 0 0 0 0 0 0 0 0 0 0 0 0 0 0 0 0 0 4 44 249 613 1135 1348 1564 1805 1567 2275 2657 3347 3991 4148 3889 4147 4220 4072 3798 2812 3075 3540 2602 2878 1622
0 0 0 0 0 0 0 0 0 0 0 0 0 0 0 0 0 0 0 0 0 51 512 1029 1262 1548 2000 1569 1980 2636 3175 3902 4030 3846 4014 4042 4203 4227 3912 4062 4191 3164 3371 3768
0 0 0 0 0 0 0 0 0 0 0 0 0 0 0 0 0 0 0 0 0 0 331 935 1261 1418 1742 1770 1674 2103 2863 3658 3994 3889 3921 3903 3963 3977 4178 4005 4245 4148 4237 4479
0 0 0 0 0 0 0 0 0 0 0 0 0 0 0 0 0 0 0 0 0 0 150 776 1036 1166 1293 1694 1900 2032 2266 2423 3703 3735 4051 3968 4009 3926 4012 4114 4002 4316 4344 4300
1 0 0 1 0 0 0 0 0 0 0 0 0 0 0 0 0 0 0 0 0 0 56 311 800 965 1114 1326 2170 2021 2511 2221 2244 3341 3507 4100 4056 4042 3877 4092 4127 4230 4362 4408
0 0 0 0 0 0 0 0 0 0 0 0 0 0 0 0 0 0 0 0 0 2 32 132 156 187 717 1426 2395 2879 2280 2298 2352 2555 2825 3585 4100 4009 4076 4126 4294 4255 4414 4425
0 0 0 0 4 0 0 0 0 0 0 0 0 0 0 0 0 0 0 0 0 0 0 0 18 180 611 1795 2852 3022 2312 2731 2641 3274 3276 3466 4075 4280 4353 4339 4309 4348 4407 4411
0 0 0 0 0 0 0 0 0 0 0 0 0 0 0 0 0 0 0 0 0 0 0 0 0 0 476 848 2085 2558 3291 2740 2674 3536 3382 3734 4110 4402 4489 4520 4526 4632 4496 4550
0 2 22 5 0 1 0 0 0 0 0 0 0 0 0 0 0 0 0 0 0 0 0 0 0 0 47 443 810 1344 2903 3011 3016 3278 3948 3724 4198 4337 4558 4674 4698 4612 4628 4631
2 2 15 19 8 11 0 0 0 0 0 0 0 0 0 0 0 0 0 0 0 0 0 0 0 0 0 0 0 1042 1052 3411 3665 3845 3718 4127 4063 4403 4575 4672 4674 4719 4655 4594
0 2 9 8 16 0 0 0 0 0 0 0 0 0 0 0 0 0 0 0 0 0 0 0 0 0 49 0 0 0 962 2517 3614 3745 4143 3918 4196 4402 4563 4605 4630 4678 4648 4635
0 1 5 12 4 35 12 0 0 0 0 0 0 0 0 0 0 18 425 384 112 23 11 10 0 0 0 8 0 0 120 1393 3443 3843 4067 4257 4447 4460 4573 4618 4731 4720 4705 4654
3 5 5 9 2 3 19 29 12 7 312 180 11 7 11 25 298 674 694 791 703 710 583 258 347 348 84 67 46 978 1129 1539 2618 3011 3685 4483 4609 4724 4678 4693 4812 4855 4804 4512
9 12 16 14 12 2 0 0 55 26 6 12 21 7 6 49 144 228 405 863 1156 1034 661 102 352 828 417 230 789 2248 2740 2981 3726 3900 4010 4497 4657 4190 4002 4873 4854 4902 4877 4810
13 22 11 6 10 9 0 1 1 0 0 0 1 3 0 0 0 1 259 1114 1453 1149 1263 1216 1330 1113 1229 2193 2362 2572 4149 3558 4047 4421 4652 4712 4733 4641 4632 4854 4919 4471 4743 4000
66 37 22 13 1 0 0 0 0 0 0 0 0 0 0 0 0 6 369 1503 1467 1383 1379 1330 1707 1942 2432 3376 3110 3281 3674 3198 3057 3641 4194 4268 4311 4509 4511 3660 3951 3761 3608 3680
76 53 33 8 12 2 2 2 0 0 0 0 0 1 0 0 0 85 482 1747 1521 1278 1076 1662 1865 2230 2264 2304 2179 2145 2342 3354 3575 3778 3775 3926 3697 3899 4317 4346 3437 3536 4096 3328
81 73 66 59 41 30 5 1 0 0 0 0 0 0 0 0 0 113 403 1089 1566 1481 1696 1943 2052 1762 1633 1876 1951 2027 2053 2097 2197 3133 3449 3233 3273 3604 3648 3602 3990 3049 2716 1624

GFSCGP_con_sbcape_030.txt.gz
CAPE
0 0 0 0 0 0 0 1 0 1 10 61 12 62 30 60 18 334 675 802 512 618 654 941 799 788 1021 1376 1642 1648 2064 2921 2106 2065 1848 1851 1245 1628 1525 1929 2589 2832 2760 3213
0 0 0 0 0 0 0 0 0 0 6 14 41 10 38 106 40 51 449 413 786 491 620 893 894 775 851 1298 1843 1904 2155 2920 2597 2211 2144 1803 1933 1637 1385 1536 2606 2480 2444 3022
0 0 0 0 0 0 0 0 0 0 0 15 13 22 41 75 99 43 401 374 706 796 696 807 925 848 795 1435 2027 2399 2510 3208 2596 2648 2774 2801 2937 2882 1444 1487 2124 2098 2676 2789
0 0 0 0 0 0 0 0 0 0 7 8 8 24 68 38 34 37 59 318 386 951 936 816 965 936 957 1374 2054 2719 2919 3166 2831 3112 2531 2601 1677 1251 1433 1429 1520 1661 2189 2954
0 0 0 0 0 0 0 0 0 0 0 2 9 19 19 65 42 46 149 408 502 939 1004 946 898 1000 1050 1261 2051 2739 3034 3185 3190 2584 3257 2409 1942 1633 1236 1542 2446 2204 2525 2705
0 0 0 0 0 0 0 0 0 0 0 0 0 6 14 28 81 57 87 111 709 578 1138 1297 1067 1109 1061 1349 1835 2528 3090 3048 3173 3077 2580 3223 2204 1958 1344 1391 1592 2249 2579 2634
0 0 0 0 0 0 0 0 0 0 0 0 0 0 0 9 82 33 50 62 309 881 1131 1551 1443 1253 1152 1355 1766 2094 3133 3036 2915 3148 2468 2668 2997 1998 3057 2772 1765 1971 1515 2345
0 0 0 0 0 0 0 0 0 0 0 0 0 0 0 0 4 24 62 52 158 473 869 1402 1654 1490 1279 1286 1558 1959 3001 3088 3063 2957 3079 2506 3456 2323 1688 3251 1727 1872 1806 1644
0 0 0 0 0 0 0 0 0 0 0 0 0 0 0 0 0 0 25 128 118 218 467 1184 1704 1709 1497 1292 1529 1895 2714 3133 3287 2884 3274 3055 2534 3221 1824 2213 2871 2485 2409 2316
0 0 0 0 0 0 0 0 0 0 0 0 0 0 0 0 0 0 6 17 86 225 457 1110 1579 1878 1631 1329 1516 1746 2485 3122 3408 3403 3170 3258 2722 2968 2943 2048 2846 2331 2873 2544
0 0 0 0 0 0 0 0 0 0 0 0 0 0 0 0 0 0 0 0 53 391 588 943 1632 1891 1910 1504 1571 1709 1972 3022 3460 3499 3417 3341 3443 2777 2737 2882 2612 3500 2564 4129
0 0 0 0 0 0 0 0 0 0 0 0 0 13 0 13 0 0 0 0 24 188 796 886 1334 1817 2105 1843 1646 1802 2064 2646 3305 3699 3697 3477 3495 3648 3254 2546 2862 3135 3921 2935
0 0 0 0 4 0 0 0 0 0 0 0 0 0 0 1 21 17 0 109 157 473 549 873 1324 1587 1990 2103 1970 1949 2081 2257 3170 3663 3742 3678 3585 3489 3603 3535 2659 3309 3198 3931
0 0 0 0 0 0 0 0 0 0 0 0 0 0 0 0 0 0 69 114 118 655 606 1029 1216 1636 1847 2188 2375 2268 2138 2322 2542 3430 3690 3659 3757 3562 3525 3484 3570 2961 3502 3276
0 0 0 0 0 7 0 0 0 0 0 0 0 0 0 0 2 0 6 215 309 592 842 1207 1264 1670 1931 2291 2535 2677 2484 2444 2505 2620 3393 3519 3624 3915 3700 3645 3678 3786 3394 3481
0 0 0 6 0 0 4 0 0 0 0 0 0 2 0 0 26 5 33 22 38 71 117 238 494 661 1453 2926 3005 2762 2776 2913 2815 2856 2923 3217 3521 3713 4075 3933 3857 3941 3884 3771
0 0 0 0 0 0 2 2 0 0 0 0 0 11 8 4 22 2 0 0 0 0 0 0 87 588 1014 1441 3500 3232 3052 3090 3470 3296 3377 3355 3583 3736 3932 4094 4111 3970 4049 4023
0 0 0 0 0 2 0 3 1 0 0 0 0 43 200 103 51 0 0 0 0 0 0 68 0 13 496 162 478 1999 3242 3699 3480 4006 3837 4189 4077 3856 4021 4085 4181 4212 4180 4216
0 0 0 0 1 0 10 0 0 0 1 5 4 12 1 0 0 0 0 0 0 0 14 35 0 0 882 435 687 1139 1448 3423 3518 3292 3752 3689 4328 4192 4157 4236 4245 4299 4357 4288
0 0 0 0 0 2 0 0 0 0 1 402 40 0 0 0 0 641 897 763 757 749 991 1329 971 858 455 1589 492 1504 1564 2778 3301 3327 3498 3976 3759 4187 4207 4309 4399 4413 4467 4442
0 0 0 0 0 0 0 0 0 11 121 85 97 113 89 268 839 632 210 446 841 1165 1278 1301 1348 1315 2392 2410 1692 2935 2489 2116 3228 3455 3777 4181 4460 4157 4249 4444 4552 4550 4572 4530
0 0 0 0 0 0 0 0 26 62 0 0 0 0 0 0 0 55 50 291 902 1462 1347 982 1414 1474 2031 1850 2288 2773 3552 4227 4239 4593 4149 4479 4705 4231 4280 4578 4752 4632 4558 4545
2 25 1 0 0 62 0 0 0 0 0 0 0 0 0 0 0 0 277 594 1697 2084 1896 1679 2169 2780 3437 3167 4420 4355 4951 4848 4729 5226 4998 4712 4951 4628 4407 4710 4640 4584 4624 4557
0 1 1 1 0 0 0 0 0 0 0 0 0 0 0 0 0 0 216 475 1314 2315 2031 1510 2116 2816 4430 4845 4804 4775 4964 4386 4626 5171 5377 5159 5109 4847 4702 4555 4590 4536 4459 4452
5 0 2 14 0 0 0 0 0 0 0 0 0 0 0 0 0 0 7 385 653 1769 2463 3102 3361 2996 2888 2878 2903 2840 3321 4160 4356 4562 4849 5083 4746 4748 4802 4663 3992 4532 4386 4012
0 0 2 7 20 49 25 1 0 0 0 0 0 0 0 0 0 0 99 552 733 1106 1526 2364 2724 2215 2400 2309 2241 2574 2555 3146 4330 4902 4560 4356 4096 4431 4137 4403 4407 3757 2245 76

GFSCGP_con_sbcape_033.txt.gz
CAPE
0 0 0 0 0 0 0 0 0 0 0 3 16 0 180 194 369 516 313 185 430 410 321 201 207 179 146 460 224 395 489 408 398 891 958 712 452 760 474 453 780 1014 1429 1663
0 0 0 0 0 0 0 0 0 0 0 0 2 4 206 162 20 118 64 2 188 415 326 357 184 217 223 529 518 370 789 639 395 836 419 818 934 721 563 317 1208 1338 1624 1885
0 0 0 0 0 0 0 0 0 0 0 0 5 19 109 182 28 7 29 0 249 334 322 349 239 217 324 637 474 735 607 922 572 939 849 924 1060 707 646 450 1009 1536 1507 1890
0 0 0 0 0 0 0 0 0 0 0 0 0 18 8 68 42 0 11 78 255 237 247 341 244 235 399 731 604 683 808 1642 1046 1149 1169 954 715 927 604 348 461 1171 1218 1629
0 0 0 0 0 0 0 0 0 0 0 0 0 0 0 28 91 49 52 302 244 306 253 308 315 349 326 792 832 663 950 1702 1319 1379 1300 1310 1073 934 557 336 574 827 1105 1725
0 0 0 0 0 0 0 0 0 0 0 0 0 0 0 1 11 57 97 343 334 52 162 186 411 355 297 751 1150 1211 1121 1776 1376 1444 1601 1353 1226 673 726 596 460 1081 1070 1259
0 0 0 0 0 0 0 0 0 0 0 0 0 0 0 0 12 34 134 241 68 0 5 423 441 326 406 895 1239 1621 1623 1868 1703 1291 1327 1856 1167 867 722 489 651 1231 1490 1351
0 0 0 0 0 0 0 0 0 0 0 0 0 0 0 0 0 16 87 130 26 52 297 566 414 410 445 605 1201 1941 1794 1780 2074 1814 1250 1068 2080 1264 786 1429 497 1104 961 1402
0 0 0 0 0 0 0 0 0 0 0 0 0 0 0 0 0 0 0 20 187 449 743 514 479 505 367 660 1075 1578 1946 1733 1917 1980 1744 1171 1249 2220 805 503 1366 434 1118 765
0 0 0 0 0 0 0 0 0 0 0 0 0 0 0 0 0 0 0 0 43 685 324 811 603 579 486 565 994 1178 2068 1849 1840 1744 1933 1720 1260 1456 1854 681 615 1866 665 1100
0 0 0 0 0 0 0 0 0 0 0 0 0 0 0 0 0 0 0 0 0 138 890 1059 844 763 676 588 959 1172 1662 2034 2015 1899 1761 1946 1612 1244 1842 1512 648 1244 1583 1424
0 0 0 0 0 0 0 0 0 0 0 0 0 0 0 0 0 0 0 0 0 25 769 1287 1159 1057 874 698 890 1090 1365 2098 2160 2203 1887 1988 1990 1769 1324 1950 1718 582 1739 1477
0 0 0 0 0 0 0 0 0 0 0 0 0 0 0 0 0 0 0 0 0 41 721 1162 1345 1266 1107 821 812 927 1228 1859 2219 2367 2414 2143 2159 2273 1802 1565 1624 2011 926 2167
5 0 0 0 0 0 0 0 0 0 0 0 0 0 0 0 0 0 0 4 0 344 513 1040 1245 1426 1300 991 869 951 1031 1397 2204 2437 2578 2651 2487 2474 2514 2105 1770 1437 2048 1708
0 0 0 0 0 0 0 0 0 0 0 0 0 0 0 1 6 17 24 20 96 179 509 825 1231 1414 1494 1258 999 1016 1063 1250 1556 2438 2704 2726 2775 2675 2645 2587 2629 2325 1528 2165
0 0 0 0 0 0 0 0 0 0 0 0 0 0 0 2 5 0 0 0 0 174 492 520 845 1291 1528 1582 1341 1209 1204 1333 1473 2166 2581 2837 2856 2818 2753 2772 2619 2784 2599 1892
0 0 0 0 0 1 0 0 0 0 0 0 0 0 1 13 0 0 0 0 0 0 0 26 81 647 1400 1659 1735 1635 1555 1465 1618 1742 2251 2680 2840 2868 2934 2844 2871 2730 2798 2864
0 0 0 0 0 0 0 0 3 0 0 0 0 9 0 42 134 23 0 0 0 0 0 0 0 0 5 929 1986 1901 1926 1925 1759 1819 1941 2105 2764 2968 2971 3121 2933 3067 2940 3051
0 0 0 0 0 0 0 0 0 3 2 9 325 182 93 570 591 426 533 590 595 454 492 520 315 479 100 0 355 2330 2402 2445 2527 2180 2309 2298 2664 2814 3000 3062 3331 3248 3282 3200
0 0 0 0 0 0 0 0 0 0 4 0 163 344 51 476 407 208 224 480 739 865 848 702 542 276 970 701 385 1058 2340 2516 2440 2655 3038 3262 2826 3062 3005 3171 3264 3402 3459 3484
0 0 0 0 0 0 0 0 0 6 0 0 0 1 115 76 69 7 35 295 998 1165 1132 624 620 445 552 902 311 318 1107 2223 2737 2550 2472 3109 3354 3440 3559 3320 3365 3554 3637 3695
8 2 0 0 5 0 0 0 0 0 0 0 0 0 0 0 0 48 120 348 638 1680 1452 1210 1122 1358 656 699 392 781 1999 2190 2285 2649 2780 3075 3288 3225 3520 3648 3745 3827 3920 3966
0 0 0 0 14 1 0 0 0 0 0 0 0 0 0 0 0 0 50 103 63 1039 1767 2086 1964 1830 3845 3468 3254 2777 3142 3462 3083 3764 3136 3274 3427 3855 3242 3706 4157 4107 4028 4089
0 0 0 0 0 0 0 0 0 0 0 0 0 0 0 0 0 0 0 157 146 193 704 1383 2016 2555 2714 2523 2467 2427 2559 2738 3741 3190 4457 3916 4244 4194 3745 4139 4061 4255 4090 4029
0 0 0 0 3 0 0 0 0 0 0 0 0 0 0 0 0 0 0 52 40 0 119 540 868 1697 2241 2193 1916 2070 2258 2413 2604 3779 4594 4446 4370 4238 4287 3839 3584 3820 2900 3485
0 0 0 0 0 4 0 0 0 0 0 0 0 0 0 0 0 0 0 13 174 153 76 97 495 1269 1753 1527 1337 1341 1879 1963 2414 3672 3907 3891 3825 4130 4099 3932 610 0 36 0

GFSCGP_con_sbcape_036.txt.gz
CAPE
0 0 0 0 0 0 0 0 0 0 0 0 1 133 484 438 309 439 384 372 261 226 130 156 125 104 78 48 39 14 0 168 274 401 274 72 53 19 195 285 288 299 674 1074
0 0 0 0 0 0 0 0 0 0 0 0 0 101 353 473 349 430 408 407 401 369 256 201 189 156 112 80 65 31 9 10 392 242 340 88 3 18 147 33 313 319 788 1079
0 0 0 0 0 0 0 0 0 0 0 0 0 107 127 210 338 377 328 343 314 320 221 267 168 227 160 107 93 59 45 0 142 275 174 400 403 237 278 61 660 480 932 1275
0 0 0 0 0 0 0 0 0 0 0 0 0 38 106 173 131 64 54 102 163 188 234 204 105 237 111 155 49 179 167 88 57 344 176 419 447 628 419 195 189 783 1018 1281
0 0 0 0 0 0 0 0 0 0 0 0 0 0 83 126 44 0 0 0 73 169 264 130 67 37 56 138 140 187 435 243 173 559 278 260 343 463 338 108 53 682 837 1258
0 0 0 0 0 0 0 0 0 0 0 0 0 0 0 53 30 2 13 0 19 173 300 236 136 76 96 204 210 261 655 399 325 647 510 392 324 325 296 198 71 313 764 784
0 0 0 0 0 0 0 0 0 0 0 0 0 0 0 19 30 27 3 0 57 222 279 242 228 148 126 351 284 347 438 993 697 661 778 667 574 459 472 222 81 378 471 553
0 0 0 0 0 0 0 0 0 0 0 0 0 0 0 0 8 25 24 36 180 267 119 257 276 213 159 460 475 351 507 814 1011 906 810 841 807 732 574 224 130 173 722 564
0 0 0 0 0 0 0 0 0 0 0 0 0 0 0 0 0 0 22 109 321 279 124 196 287 280 209 467 670 565 512 607 1125 1005 1060 1153 1057 915 807 409 335 110 628 959
0 0 0 0 0 0 0 0 0 0 0 0 0 0 0 0 0 0 0 96 405 447 226 130 269 352 278 504 733 857 809 715 1170 1195 980 916 1008 1509 996 497 435 881 386 721
0 0 0 0 0 0 0 0 0 0 0 0 0 0 0 0 0 0 1 25 315 415 319 40 266 407 358 423 721 1252 1189 1058 1320 1490 1424 1131 799 798 1631 818 175 247 779 482
1 0 0 0 0 0 0 0 0 0 0 0 0 0 0 0 0 0 0 125 130 207 302 157 451 436 421 442 702 1174 1592 1386 1378 1661 1663 1560 1323 856 839 1626 829 335 424 929
14 3 0 0 0 0 0 0 0 0 0 0 0 0 0 0 0 0 0 0 21 73 302 561 559 449 510 421 633 1025 1589 1665 1543 1562 1555 1560 1565 1302 937 990 1682 1064 439 664
30 0 0 0 0 0 0 0 0 0 0 0 0 0 0 0 0 0 0 0 0 146 725 645 668 566 618 474 508 897 1101 1832 1710 1701 1680 1513 1655 1688 1471 1112 995 1666 1357 354
3 1 0 0 0 0 0 0 0 0 0 0 0 0 0 0 0 0 0 0 0 482 749 756 802 737 747 611 536 907 1068 1493 1874 1903 1921 1823 1634 1817 1925 1774 1299 1147 1336 1655
0 0 0 0 0 0 0 0 0 0 0 0 0 0 0 0 0 0 0 0 0 448 937 1074 1016 950 940 805 682 843 973 1335 1853 2015 2064 2086 2117 1932 2023 2142 2089 1604 1399 1171
0 0 0 0 0 0 0 0 0 0 0 0 0 0 0 8 81 26 0 0 4 273 949 1234 1224 1115 1181 1016 813 822 883 1075 1756 2041 2100 2270 2278 2424 2320 2276 2312 2325 2169 1849
0 0 0 0 0 0 0 0 0 0 0 0 0 33 184 512 448 357 361 7 6 0 0 0 491 942 1196 1143 967 864 919 1020 1166 1562 2157 2290 2521 2521 2583 2548 2455 2460 2450 2578
0 0 0 0 0 0 0 0 0 0 0 0 0 328 500 363 298 276 109 438 154 54 0 62 50 6 239 1394 1383 1191 1068 1123 1207 1324 1447 2298 2495 2782 2740 2672 2688 2654 2681 2566
0 0 0 0 0 0 0 0 0 0 0 0 0 109 167 48 244 90 99 756 1068 279 17 3 0 126 130 19 866 1605 1490 1497 1417 1423 1599 1654 2243 2617 2780 2794 2795 2878 2764 2798
0 0 0 0 0 0 0 0 0 0 0 0 0 0 0 39 38 25 17 38 921 1133 791 657 1119 833 67 5 257 1176 1497 1915 1916 1799 1592 1772 1794 2222 2622 2753 2867 2898 3023 2901
8 1 0 0 0 7 3 0 0 0 0 0 0 0 0 0 0 0 0 0 62 473 1068 1843 2623 2422 2352 1508 1071 1921 1993 1921 1548 1909 2123 2410 2535 2255 2450 2574 2692 2875 2886 3094
4 14 13 12 17 1 20 1 0 0 0 0 0 0 0 0 0 0 0 0 0 2 167 588 1582 1887 1916 1847 1840 1932 1944 2195 2532 2122 2034 2157 2342 2718 2823 2934 2784 2865 3089 3126
1 0 1 1 0 0 0 0 0 0 0 0 0 0 0 0 0 0 0 0 0 0 6 178 540 1593 1604 1586 1556 1686 1600 1694 2009 2527 2875 2397 2450 2717 2636 3046 3306 3312 3426 3539
0 0 0 0 0 0 0 0 0 0 0 0 0 0 0 0 0 0 0 0 0 0 0 11 303 978 1292 1024 922 858 1260 1368 1735 1908 3100 3574 3090 2814 2922 659 1550 3212 3409 3468
0 4 5 0 0 0 0 0 0 0 0 0 0 0 0 0 0 0 0 0 0 0 0 37 206 858 1007 901 862 827 1050 1282 1370 1657 2670 3374 3482 3436 2822 185 0 0 0 2

GFSCGP_con_sbcape_039.txt.gz
CAPE
0 0 0 0 0 0 0 0 0 0 0 0 0 8 423 271 221 222 202 165 117 92 102 107 155 81 37 5 0 0 0 0 55 0 33 0 0 6 174 223 258 240 490 946
0 0 0 0 0 0 0 0 0 0 0 0 0 2 439 301 221 232 199 171 149 103 86 71 73 148 18 14 0 0 0 0 114 0 145 0 0 0 0 52 186 171 448 774
0 0 0 0 0 0 0 0 0 0 0 0 0 43 14 334 281 280 260 182 141 116 108 86 63 78 51 0 0 0 0 0 109 61 0 18 0 0 5 9 219 107 395 744
0 0 0 0 0 0 0 0 0 0 0 0 0 33 346 307 246 258 341 249 212 160 104 102 89 70 54 0 0 0 0 0 5 19 35 85 23 12 0 0 111 269 443 785
0 0 0 0 0 0 0 0 0 0 0 0 0 0 36 273 262 256 314 346 352 279 196 112 111 114 118 23 0 0 0 0 0 13 30 17 0 0 22 1 41 319 467 766
0 0 0 0 0 0 0 0 0 0 0 0 0 0 0 0 221 274 329 326 350 314 264 209 144 137 166 81 12 0 0 0 0 8 0 0 5 17 200 63 27 142 464 614
0 0 0 0 0 0 0 0 0 0 0 0 0 0 0 0 4 154 224 212 179 101 233 215 148 167 184 159 47 21 15 10 0 4 26 0 0 2 99 123 10 5 322 450
0 0 0 0 0 0 0 0 0 0 0 0 0 0 0 0 3 43 98 99 90 37 110 219 160 117 150 146 107 48 124 57 20 37 118 41 0 1 28 29 20 2 117 390
0 0 0 0 0 0 0 0 0 0 0 0 0 0 0 0 0 0 38 39 18 18 47 169 235 164 94 104 123 107 147 206 120 115 216 223 148 171 161 55 5 9 71 277
0 1 0 0 0 0 0 0 0 0 0 0 0 0 0 0 0 0 32 27 22 28 48 116 231 196 127 116 153 160 155 294 335 270 310 392 397 377 352 161 69 0 46 466
8 0 0 0 0 0 0 0 0 0 0 0 0 0 0 0 0 0 0 0 25 12 55 130 185 217 171 94 273 192 191 219 462 524 487 531 623 613 551 489 202 346 19 306
6 19 5 0 0 0 0 0 0 0 0 0 0 0 0 0 0 0 0 0 13 122 192 204 170 162 215 163 320 391 270 279 371 677 619 665 808 954 998 741 318 157 411 187
19 18 0 0 0 0 0 0 0 0 0 0 0 0 0 0 0 0 0 0 0 141 255 281 190 145 264 226 265 595 541 460 383 701 789 735 707 668 874 1369 1151 167 52 365
54 13 0 0 0 0 0 0 0 0 0 0 0 0 0 0 0 0 0 0 0 14 288 347 198 68 287 295 222 517 863 818 671 810 1013 1090 1072 947 693 661 1132 1183 354 245
11 3 0 0 0 0 0 0 0 0 0 0 0 0 0 0 0 0 0 0 0 0 176 256 198 70 254 317 278 591 986 1236 1065 1043 1241 1301 1327 1277 1113 845 723 1124 1169 721
15 6 0 0 0 0 0 0 0 0 0 0 0 0 0 0 10 25 0 0 0 0 77 118 231 258 313 349 315 467 967 1495 1438 1341 1325 1329 1265 1373 1382 1250 1012 790 1076 1441
9 2 0 0 0 0 0 0 0 0 0 0 0 0 0 56 162 114 115 0 0 0 36 95 261 396 404 425 381 493 842 1260 1636 1567 1537 1506 1395 1336 1483 1562 1484 1280 973 1010
5 0 0 0 0 2 0 0 0 0 0 0 0 0 59 299 276 165 104 397 0 0 47 291 457 535 512 556 492 486 869 968 1564 1720 1762 1764 1762 1656 1553 1661 1827 1823 1632 1304
0 1 0 0 0 0 0 0 0 0 0 0 0 10 307 571 497 386 4 485 73 0 0 177 598 657 626 700 638 624 827 988 1302 1686 1868 1950 1982 2001 2048 1992 1933 2063 2107 2101
0 2 5 0 0 0 0 0 0 0 0 0 0 0 31 370 369 71 0 36 755 1241 356 2 128 538 793 740 681 687 834 864 1002 1461 1850 1996 2126 2223 2235 2361 2368 2262 2308 2319
7 2 1 0 8 1 0 0 0 0 0 0 0 0 0 0 1 0 0 0 54 786 1870 1613 433 38 0 265 876 912 887 958 1028 1039 1113 1509 2142 2281 2466 2446 2461 2510 2516 2556
12 11 26 21 11 5 0 0 0 0 0 0 0 0 0 0 0 0 0 0 0 53 546 1455 1585 1567 1532 1203 960 1107 1770 2096 1274 1064 1086 1231 1406 2198 2314 2558 2605 2556 2633 2662
12 6 28 18 18 4 18 18 0 0 0 0 0 0 0 0 0 0 0 0 0 0 89 542 1243 1256 1192 1298 1394 1558 1496 2041 1587 1581 1609 1392 1507 1528 1821 2352 2464 2664 2660 2772
1 4 3 0 0 0 0 0 0 0 0 0 0 0 0 0 0 0 0 0 0 0 1 149 730 808 666 593 773 1003 1122 1338 1670 1994 2201 1680 2086 2274 2056 2126 2301 2416 2607 2746
12 5 4 0 0 0 0 0 0 0 0 0 0 0 0 0 0 0 0 0 0 0 0 2 124 589 575 444 502 632 999 1181 1401 1595 2136 2913 2148 1552 1422 1 657 1859 2357 2197
14 11 10 3 0 0 0 0 0 0 0 0 0 0 0 0 0 0 0 0 0 0 0 0 0 49 367 280 369 575 691 848 993 1253 1077 1714 2868 2164 141 0 0 0 1 3

GFSCGP_con_sbcape_042.txt.gz
CAPE
0 0 0 0 0 0 0 0 0 0 0 0 0 19 444 277 107 108 41 1 0 0 19 67 72 29 9 0 0 0 0 0 0 0 0 0 0 0 60 0 196 265 501 968
0 0 0 0 0 0 0 0 0 0 0 0 0 0 383 326 189 116 102 60 28 20 29 61 78 41 0 0 0 0 0 0 0 0 0 0 0 0 10 64 135 205 542 896
0 0 0 0 0 0 0 0 0 0 0 0 0 0 143 284 226 176 94 42 44 46 38 55 51 66 15 0 0 0 0 0 0 0 0 0 0 0 0 0 37 79 440 658
0 0 0 0 0 0 0 0 0 0 0 0 0 0 19 239 222 185 116 65 49 69 58 47 35 1 23 23 0 0 0 0 0 0 0 0 0 15 0 0 9 94 270 574
0 0 0 0 0 0 0 0 0 0 0 0 0 0 0 119 143 195 186 131 53 76 71 69 44 15 50 0 0 0 0 0 0 0 0 0 1 0 0 0 0 95 180 408
0 0 0 0 0 0 0 0 0 0 0 0 0 0 0 30 214 275 243 230 161 86 84 84 60 1 0 0 0 0 0 0 0 0 0 0 0 0 0 0 0 21 210 385
0 0 0 0 0 0 0 0 0 0 0 0 0 0 0 0 214 252 246 250 250 162 122 109 77 52 26 0 0 0 0 0 0 0 0 0 0 0 0 0 0 0 102 309
0 0 0 0 0 0 0 0 0 0 0 0 0 0 0 0 0 274 282 252 212 205 180 155 121 84 49 40 0 0 0 0 0 0 0 0 0 0 0 0 0 0 62 314
0 0 0 0 0 0 0 0 0 0 0 0 0 0 0 0 0 0 125 187 169 187 174 170 189 143 77 54 16 0 0 0 0 0 0 0 0 0 0 0 2 0 7 223
0 4 0 0 0 0 0 0 0 0 0 0 0 0 0 0 0 0 0 42 120 127 38 78 129 111 118 87 89 0 0 6 9 0 0 5 0 0 1 1 0 0 2 255
0 16 0 0 0 0 0 0 0 0 0 0 0 0 0 0 0 0 0 20 72 84 14 8 57 146 109 109 113 49 18 28 28 45 53 88 97 72 117 90 24 0 0 155
1 48 24 0 0 0 0 0 0 0 0 0 0 0 0 0 0 0 0 2 60 82 49 0 18 107 121 74 94 74 58 65 139 134 148 178 244 266 267 264 128 86 8 145
0 4 7 0 0 0 0 0 0 0 0 0 0 0 0 0 0 0 0 0 0 59 77 43 36 55 123 108 105 115 100 103 197 267 239 247 331 430 445 450 350 184 264 157
64 24 2 0 0 0 0 0 0 0 0 0 0 0 0 0 0 0 0 0 0 4 30 45 67 103 153 164 125 204 153 147 186 397 431 417 482 583 679 682 641 161 271 484
0 27 7 1 1 0 0 0 0 0 0 0 0 0 0 0 0 0 0 0 0 0 2 32 66 104 144 182 153 374 351 251 253 357 612 602 606 636 697 905 1136 741 287 392
24 25 33 0 0 0 0 0 0 0 0 0 0 0 0 0 0 0 0 0 0 0 0 7 86 143 115 194 210 388 578 520 428 405 671 758 773 749 710 619 640 1189 1094 853
19 64 2 0 0 0 0 0 0 0 0 0 0 0 0 0 94 47 13 17 116 0 0 0 57 150 96 224 271 372 652 809 765 681 796 993 1069 1116 1050 931 778 733 1011 1252
3 28 6 0 0 0 0 0 0 0 0 0 0 0 0 12 107 45 7 1 112 121 0 0 90 174 121 244 307 287 723 1184 1148 1069 1100 1235 1295 1299 1308 1288 1192 1041 909 951
0 14 12 0 0 0 0 0 0 0 0 0 0 0 0 6 51 122 0 0 82 790 0 0 50 177 176 251 306 420 854 1386 1479 1447 1442 1454 1452 1371 1369 1462 1506 1458 1413 1195
17 9 22 4 0 25 0 0 0 0 0 0 0 0 0 17 138 22 0 10 93 794 638 1 93 163 209 299 310 575 822 1186 1599 1647 1669 1697 1693 1653 1563 1544 1599 1747 1829 1856
32 25 4 22 7 3 2 0 0 0 0 0 0 0 0 0 0 0 0 18 136 760 1187 395 291 334 316 366 397 638 805 980 1148 1482 1761 1835 1901 1927 1943 1935 1913 1910 2053 2155
11 15 28 25 20 13 15 0 0 0 0 0 0 0 0 0 0 0 0 2 18 283 723 1112 1116 998 596 414 569 677 777 799 771 1117 1610 1885 1995 2128 2201 2225 2322 2404 2364 2405
13 14 8 20 26 0 9 0 0 0 0 0 0 0 0 0 0 0 0 0 0 0 64 470 573 732 900 1123 1411 1588 1539 2000 1072 868 1075 1224 1870 2157 2374 2493 2512 2553 2623 2684
11 13 13 7 2 1 3 0 0 0 0 0 0 0 0 0 0 0 0 0 0 0 0 14 353 401 382 505 781 950 1221 1590 1451 1477 1295 1201 1333 1645 2211 2426 2641 2771 2732 2740
15 8 5 4 0 0 0 0 0 0 0 0 0 0 0 0 0 0 0 0 0 0 0 0 1 133 134 204 401 560 734 1063 1465 1994 2589 1890 1817 1576 1075 7 574 1718 1892 2039
21 12 8 7 0 2 0 0 0 0 0 0 0 0 0 0 0 0 0 0 0 0 0 0 3 3 71 82 360 421 401 482 835 1295 1361 2372 2016 1536 78 0 0 0 1 3

GFSCGP_con_sbcape_048.txt.gz
CAPE
0 0 0 0 0 0 0 0 0 0 0 195 373 364 518 878 714 688 658 518 291 167 62 47 48 42 94 176 425 440 562 744 706 397 183 371 604 683 901 973 1370 1914 1794 1971
0 0 0 0 0 0 0 0 0 0 0 32 315 359 310 994 851 697 603 470 288 121 75 41 56 112 158 321 502 637 665 893 975 273 439 338 553 511 770 1234 1837 2006 1957 2198
0 0 0 0 0 0 0 0 0 0 0 0 73 290 293 410 917 843 637 464 302 131 138 109 108 164 219 468 620 776 906 943 1039 707 222 556 640 916 1199 1529 1541 1857 2027 2167
0 0 0 0 0 0 0 0 0 0 0 0 3 140 202 229 712 831 946 649 382 231 137 189 234 311 268 450 664 826 1088 1101 989 879 796 1619 754 687 496 1046 1049 1642 2084 2062
0 0 0 0 0 0 0 0 0 0 0 0 0 14 121 216 254 797 858 904 584 358 251 238 326 428 354 338 602 857 1161 1594 1695 1298 1435 756 1000 101 304 719 1313 1832 2356 2136
0 0 0 0 0 0 0 0 0 0 0 0 0 9 36 125 225 290 669 685 806 697 434 338 355 481 524 426 509 751 1638 1795 1564 1265 986 1739 1444 859 521 1118 898 978 1180 1839
0 0 0 0 0 0 0 0 0 0 0 0 0 0 1 23 82 189 332 595 733 831 851 577 441 476 629 639 522 555 1409 2193 1792 1137 1295 1128 1517 1801 1513 1331 1053 1410 572 819
0 0 0 0 0 0 0 0 0 0 0 0 0 0 0 0 0 7 176 294 621 800 892 940 796 543 653 717 653 631 1173 1817 1837 1575 2257 2422 2191 967 978 1494 1062 834 541 546
0 0 0 0 0 0 0 0 0 0 0 0 0 0 0 0 0 0 0 98 212 672 896 1044 1062 867 690 813 1241 1360 1688 1749 1532 1136 2209 2423 2344 2152 1370 2390 1474 1063 1541 642
0 0 0 0 0 0 0 0 12 3 4 0 0 0 0 0 0 0 0 3 111 581 905 1044 1107 1086 870 824 882 900 968 1559 1342 1144 1292 1429 1461 2092 1981 1753 2192 1843 1234 1471
0 0 0 0 0 0 0 0 4 25 4 0 0 0 0 0 0 0 0 0 26 395 869 1063 1116 1135 1074 870 862 970 1047 1205 1362 1469 1710 1711 1429 1377 1615 1517 1629 1792 1766 1660
0 0 0 0 0 0 0 0 7 42 20 2 4 15 0 0 0 0 0 0 24 124 577 887 952 1032 1111 1095 941 953 1026 1083 1236 1862 2306 1683 1770 1762 1350 1712 1629 1883 1967 1939
1 0 0 0 0 0 0 0 0 0 4 25 25 3 0 0 0 0 0 0 7 58 229 682 725 932 1068 1198 1219 996 991 987 1063 1443 1257 1224 1330 1349 1827 2022 1901 2143 2003 2151
0 0 0 0 0 0 0 0 0 21 41 2 7 13 37 0 0 0 0 0 0 3 54 171 563 743 1150 1414 2168 2022 1230 994 956 1163 1172 1775 1623 1701 1582 2437 2457 1906 2442 2265
16 18 0 0 0 0 0 0 0 0 4 4 1 36 3 15 0 0 0 0 0 0 12 149 293 734 1627 2038 2512 2154 1441 1699 1418 2055 1288 1994 2458 2441 2509 2778 2746 2336 2708 2456
38 31 19 5 1 0 0 0 0 0 0 0 0 0 0 5 0 0 0 0 0 0 0 0 70 329 806 1362 2230 2536 2532 1956 1922 2548 2185 2482 3012 3033 3057 3239 3339 3164 2898 2840
86 81 68 18 0 1 2 0 0 0 0 0 0 0 13 16 4 0 0 0 37 88 123 236 130 79 448 941 1765 2157 2664 2259 2377 2795 2727 2952 3216 3288 3357 3383 3586 3478 3420 3005
146 160 163 59 29 84 1 0 0 0 0 0 0 0 8 22 24 824 526 397 364 334 357 471 548 657 137 544 857 1489 1699 2769 2813 2997 3027 3188 3404 3253 3539 3631 3702 3858 3273 3453
139 194 104 166 103 30 0 0 9 0 0 0 2 0 0 1 102 1076 499 259 333 430 568 774 862 924 1124 289 723 1500 1444 2019 2626 2992 3226 3308 3405 3333 3362 3484 3638 3428 3243 3312
105 261 275 153 57 36 12 0 0 34 63 95 58 114 40 20 210 375 109 38 117 271 526 876 1398 1639 1392 1397 525 1044 1532 1896 2736 2909 3154 3460 3571 3572 3592 3673 3728 3798 3347 3204
165 215 133 74 80 36 0 0 14 18 112 7 1 0 197 332 58 0 0 0 0 20 407 1205 1626 1727 1543 1177 629 2064 2110 2299 2636 2214 2318 3058 3437 3822 3680 4051 4039 3914 3382 3378
43 63 65 69 47 26 1 5 17 27 4 1 0 0 0 0 0 0 0 0 0 0 813 1682 1224 841 699 562 1774 2847 2827 2782 3047 3111 3070 3566 3839 2883 2856 4149 3936 3781 3737 3843
50 23 51 35 27 3 1 10 49 7 11 4 0 1 0 0 0 0 0 0 0 0 23 1515 1589 1150 1151 1470 1846 2265 3089 3177 3055 3139 3654 3438 3445 3355 3975 3969 3998 3463 3803 3320
8 10 18 10 6 13 13 35 56 26 13 4 4 0 2 1 0 0 0 0 0 0 0 217 1223 1922 2028 1773 1815 2094 2538 3586 3205 3305 3579 3326 3350 3280 3314 3331 3380 3261 3239 3238
5 16 12 6 7 11 30 30 61 27 10 3 2 1 0 3 2 0 0 0 0 0 0 0 132 842 1059 1326 1636 2259 2655 2698 2984 3164 3240 3366 3382 3293 3390 3290 1806 3181 3667 2250
40 28 25 17 17 17 5 39 42 25 6 5 0 0 4 0 0 0 0 2 0 0 0 0 0 32 279 435 728 1102 1865 2709 2447 2530 2735 2927 2939 3255 3293 3445 1893 0 0 1

GFSCGP_con_sbcape_051.txt.gz
CAPE
0 0 0 0 0 0 0 0 0 0 10 135 168 272 194 706 823 942 933 812 552 474 312 277 176 114 71 55 79 501 959 2144 1078 674 698 720 735 861 1141 2040 1633 1841 1555 1618
0 0 0 0 0 0 0 0 0 0 7 184 296 239 398 672 700 951 933 921 599 499 357 322 238 154 66 64 169 1040 1528 2454 1494 716 1255 1061 1316 673 691 747 1819 1846 1786 1878
0 0 0 0 0 0 0 0 0 0 0 0 92 206 359 680 699 893 882 844 756 507 446 348 262 188 115 167 328 1145 1975 2405 1942 1425 982 1092 1300 1060 666 1751 1522 1894 1924 1961
0 0 0 0 0 0 0 0 0 0 1 9 0 91 262 392 744 852 852 769 779 517 494 387 292 251 164 230 340 1428 1669 2426 2003 2190 690 1703 906 535 359 965 991 1679 1860 1969
0 0 0 0 0 0 0 0 0 0 0 0 0 50 99 393 388 757 948 810 663 660 396 408 336 334 285 281 473 623 2127 2486 2333 2246 1710 1056 1409 423 387 281 2998 2150 3072 1981
0 0 0 0 0 0 0 0 0 0 0 0 0 24 68 140 265 528 698 924 776 619 524 404 423 378 381 358 498 1001 2252 2799 2724 2508 2016 2354 1605 1508 212 635 1230 1077 1420 1692
0 0 0 0 0 0 0 0 0 0 0 0 0 0 6 74 192 182 551 769 895 650 613 536 476 488 740 945 922 1361 2287 2857 2726 2458 1834 2039 2418 2256 2535 2160 646 1042 518 701
0 0 0 0 0 0 0 0 0 0 0 0 0 0 0 0 74 9 71 542 720 765 617 601 625 600 1107 1236 1386 1456 2285 2868 2901 2315 2256 2073 2413 662 194 1373 777 519 336 506
0 0 0 0 0 0 0 5 0 0 2 0 0 0 0 0 0 9 1 276 314 713 829 776 683 708 1098 1287 1619 1617 2264 2767 2768 1498 2390 2653 2397 1627 540 1169 2406 1517 1865 634
0 0 0 0 0 0 0 0 8 2 4 3 22 3 0 0 0 0 0 17 270 430 769 872 948 845 817 927 1244 1463 1796 2570 2651 2123 2406 2427 2591 2774 2210 2527 3129 2310 2347 2502
0 0 0 0 0 0 0 0 0 16 22 5 21 12 5 0 0 0 0 0 57 185 603 842 1017 1122 977 915 1028 1150 1487 2011 2153 2347 2348 2005 1994 2142 2524 2859 3057 3072 2771 3157
0 0 0 0 0 0 0 0 0 9 12 16 0 21 10 15 0 0 0 0 0 61 434 842 941 1199 1270 1145 1031 1192 1127 1158 1735 2041 2692 2326 2195 2141 2092 2457 2875 3291 3450 2907
0 0 0 0 0 0 0 0 0 2 6 48 23 2 2 6 1 0 0 0 0 12 169 724 880 1081 1263 1352 1578 1113 1165 1016 1084 1970 1926 2295 2079 2342 2095 2737 2721 3223 3449 3601
0 1 0 0 2 0 0 0 0 4 57 27 20 47 30 32 12 20 0 0 0 29 251 394 796 831 1145 1776 2251 2114 1383 1050 937 1278 1389 2189 2407 2444 2233 2556 3061 3126 3537 3717
8 2 0 0 0 0 0 0 0 0 0 10 11 10 22 27 26 55 9 0 0 0 80 235 573 1427 2261 2289 2718 2621 1750 1961 1413 1795 1665 2160 2647 2528 2676 2586 3199 3256 3579 3629
34 31 21 41 7 0 0 0 0 0 0 0 0 0 0 0 0 0 13 30 0 0 0 33 164 430 1319 2423 2816 2886 2535 2340 1938 2258 1966 2160 2715 2756 2765 2826 3277 3643 3760 3838
99 80 99 43 41 14 6 0 0 0 0 0 0 0 0 0 0 0 11 38 16 21 0 22 0 190 372 906 2405 2488 2939 2418 2639 2836 2491 2717 3146 3153 3179 3211 3544 3763 3865 4080
190 251 293 150 71 48 17 0 0 0 0 0 0 0 0 0 0 0 79 804 745 516 154 223 240 191 110 429 810 1800 2148 3205 3170 2949 3471 3000 3496 3449 3616 3706 3741 3914 3955 4008
187 402 344 250 140 43 21 8 0 11 0 0 0 0 0 0 0 0 0 970 799 830 827 812 808 720 778 332 408 1834 1910 3356 3179 3554 3548 3480 3582 3743 3927 3968 3992 4080 4111 4138
162 357 323 287 134 114 22 18 65 1 1 0 0 0 0 0 0 0 774 1072 885 751 746 898 1020 1057 1130 1254 868 668 1645 2391 3322 3632 3526 3751 3725 3956 4004 4079 4207 4353 4268 4250
105 347 194 372 207 154 47 70 7 7 3 4 18 7 0 0 0 46 166 296 211 533 807 1022 1402 1454 1684 1791 1459 1633 1782 2409 3104 3374 3695 4015 3965 4135 4187 4331 4378 4417 4381 3702
73 108 142 114 109 119 47 47 31 33 0 0 9 49 101 264 501 64 0 1 0 26 115 602 2126 2244 2229 2223 2653 2735 2327 2741 3370 3622 3712 4061 4235 3789 3599 4467 4458 4488 4489 4468
103 115 91 106 59 79 43 17 8 2 16 10 62 376 620 309 103 1 0 0 0 0 1 71 1763 2547 1508 2331 2797 3160 2416 3887 3725 3907 3935 4135 4282 4269 4213 4405 4555 4065 4443 3358
18 8 17 10 9 27 21 5 24 29 25 68 13 0 6 1 1 0 1 0 1 1 0 0 512 2722 2708 2671 2161 2648 4450 4035 4188 4149 4092 4254 4222 4268 4206 3681 3740 3253 3162 3215
18 15 21 14 8 9 14 27 28 50 54 47 7 7 7 7 6 8 10 2 1 3 1 2 2 96 523 1268 1968 2388 3221 3887 3525 4077 4137 3934 3618 3404 3952 3968 2808 3337 1051 1572
27 28 17 28 12 25 10 24 45 48 26 16 17 6 0 0 16 29 44 11 6 0 1 1 1 4 4 5 2 4 397 3651 3524 3696 3336 3481 3036 3404 3548 1957 1136 0 143 1

GFSCGP_con_sbcape_054.txt.gz
CAPE
0 0 0 0 0 0 0 0 0 0 0 132 169 87 3 14 1 470 727 537 395 163 143 195 91 66 138 92 563 1203 1479 2134 1481 1339 1386 1154 1256 411 573 1500 1726 2931 2810 2198
0 0 0 0 0 0 0 0 0 0 0 54 390 131 68 0 143 367 678 469 357 269 244 265 134 70 94 163 504 1287 1504 1931 1408 1468 1683 1931 844 1485 1209 235 2733 2719 2168 2876
0 0 0 0 0 0 0 0 0 0 0 12 35 46 0 0 5 33 438 382 388 455 409 417 170 108 136 258 487 1055 1667 1789 1435 1830 1453 2680 2850 2110 1394 2433 2406 2707 2240 2781
0 0 0 0 0 0 0 0 0 0 0 3 3 26 75 203 127 6 39 482 402 481 481 512 310 234 101 352 450 1000 1600 2087 1427 2081 1197 1908 1518 1563 973 1593 1613 2521 3103 2521
0 0 0 0 0 0 0 0 0 0 0 0 1 5 0 608 144 2 20 839 543 545 459 518 364 384 149 389 435 705 1378 2157 1507 1517 1683 1354 1703 1416 2347 1572 2453 2698 3473 3457
0 0 0 0 0 0 0 0 0 0 0 0 0 0 0 133 190 12 111 313 465 512 533 518 530 460 317 414 387 826 1151 1675 1967 1535 1737 1803 1375 2176 1621 1623 2021 2240 2554 2818
0 0 0 0 0 0 0 0 0 0 0 0 0 0 0 0 520 236 6 0 39 812 583 614 609 559 511 354 521 836 1213 1249 1712 1816 1248 2210 1438 1505 2613 2759 1980 1751 1955 1749
0 0 0 0 0 0 0 0 0 0 0 0 0 0 0 0 28 302 111 58 96 723 620 604 585 616 567 473 632 762 1417 1445 1507 2029 1329 1464 2130 983 1259 2149 1395 2169 1929 1830
0 0 0 0 0 0 0 1 0 0 0 0 0 0 0 0 0 150 55 159 46 52 443 598 714 681 715 722 714 1073 1431 1685 1808 1462 1878 1168 1967 1786 757 1615 2109 2256 2074 1772
0 0 0 0 0 0 0 0 2 0 0 0 0 0 0 0 0 0 63 9 8 91 35 295 776 822 1007 872 1026 1056 1552 1737 1959 1688 1740 1488 991 1543 1617 601 1661 1628 2803 2596
0 0 0 0 0 0 0 0 0 0 2 0 0 0 2 69 0 0 146 95 2 94 153 154 150 1012 1063 1091 1297 1119 1400 1866 2135 2123 1659 1501 1263 1185 998 1587 538 2529 1910 3855
0 0 0 0 0 0 0 0 0 0 0 1 0 0 0 29 1 0 0 6 280 467 328 86 3 0 1083 1184 1218 1315 1268 1882 2069 2188 1804 1581 1615 1224 1139 644 2176 1973 3313 2782
0 0 0 0 0 0 0 0 0 0 0 0 2 0 0 1 46 9 3 0 55 570 51 2 27 101 1104 1105 1250 1424 1361 1300 1981 2277 1914 1863 1650 1748 1662 1189 1175 2358 2180 3048
0 0 0 0 0 0 1 0 0 0 0 0 0 0 0 1 14 35 60 85 10 156 238 176 626 645 1263 1284 1312 1360 1449 1385 1437 1953 2027 1992 1752 1659 1390 1862 1282 2126 2709 2522
0 0 0 0 0 0 0 0 0 0 0 0 0 0 0 0 0 1 6 28 66 102 68 192 346 418 1158 1799 1649 1516 1555 1379 1386 1682 1753 2001 2214 1902 1685 1705 1943 1549 2086 2545
26 14 10 9 1 0 0 0 0 0 0 0 0 0 0 0 0 0 0 0 0 0 149 197 25 1758 1548 2064 1888 1790 1680 1619 1498 1521 1664 1893 2166 2090 2106 1799 2045 2206 2128 2561
125 101 56 13 9 7 5 0 0 0 0 0 0 0 0 0 0 0 0 0 0 0 2 182 257 271 641 1589 2168 2072 1936 1831 1735 1803 1791 1901 2309 2451 2165 2374 1919 2436 2329 2526
116 209 231 71 58 53 0 0 0 0 0 0 0 0 0 0 0 0 0 0 0 0 1 1099 140 367 653 266 719 2562 2392 2202 2221 1977 2279 2047 2384 2385 2499 2294 2424 2131 2523 2550
77 220 163 160 138 21 1 1 0 23 5 0 0 0 0 0 0 0 0 0 0 0 0 905 615 659 1229 1172 1263 2358 2883 2484 2354 2372 2372 2304 2224 2420 2405 2376 2355 2335 2675 2848
68 163 374 260 121 49 0 0 0 0 0 0 0 0 0 0 0 0 0 0 20 940 941 792 689 688 853 1270 1232 1326 2195 3019 2364 2375 2543 2829 2210 2706 2564 2542 2575 2650 2837 2980
107 206 215 216 177 25 20 6 41 12 0 2 0 0 0 0 0 0 0 0 493 531 741 820 1008 1273 1527 1620 1660 1702 1644 2152 3102 2493 2780 2977 2880 2731 3071 3139 3107 3104 3238 3218
44 201 112 115 105 63 96 69 75 46 1 0 0 0 0 0 0 0 5 277 377 382 330 456 892 1158 2187 2540 1881 1847 2287 2431 2962 3323 2850 3679 3587 2973 3346 3522 3649 3570 3543 3678
103 30 25 34 55 6 9 20 7 11 2 0 0 0 0 0 0 0 577 377 131 31 78 94 531 1512 3364 2682 3210 2236 2616 2982 3897 3794 3215 3605 3701 3731 3423 3774 3781 3831 3852 3758
14 4 12 13 2 9 6 3 6 10 3 0 0 1 15 0 0 294 179 2 1 2 2 0 78 342 344 351 1085 3584 3098 3370 3458 3567 3681 3589 3948 3792 3537 3840 3786 3880 3805 3834
26 31 19 13 8 11 8 18 31 30 25 22 22 35 4 14 120 2 0 2 4 3 3 2 5 5 4 2 325 845 1252 3149 2842 3926 3705 3573 3695 3430 3814 3499 3727 3797 3668 3404
12 13 15 16 11 12 12 31 19 13 29 55 60 31 14 8 20 6 1 1 6 9 10 5 2 2 3 4 4 34 333 992 4105 3749 3693 3488 3568 3615 3744 3301 1740 0 481 53

GFSCGP_con_sbcape_057.txt.gz
CAPE
0 0 0 0 0 0 0 0 0 0 0 54 330 641 526 84 268 588 486 276 136 112 136 58 9 10 55 0 0 5 375 230 874 752 716 698 189 350 429 952 1630 1344 1278 905
0 0 0 0 0 0 0 0 0 0 0 1 168 424 132 276 109 341 154 289 177 220 192 42 14 12 57 15 0 222 606 308 582 404 538 532 436 28 193 970 1310 1296 918 781
0 0 0 0 0 0 0 0 0 0 0 26 198 156 81 93 178 94 15 25 101 149 90 66 9 0 12 90 84 316 743 378 508 166 310 938 334 549 257 271 1002 1372 1451 1227
0 0 0 0 0 0 0 0 0 0 0 0 163 177 98 84 224 352 47 8 0 113 51 43 2 0 0 29 137 369 726 465 443 201 106 555 468 595 272 428 997 1453 1194 1325
0 0 0 0 0 0 0 0 0 0 0 0 0 0 96 144 173 84 173 0 0 0 63 51 7 0 12 53 54 488 714 485 262 640 87 252 289 681 352 758 1083 1295 1587 1494
0 0 0 0 0 0 0 0 0 0 0 0 0 0 0 167 173 15 0 0 0 16 176 131 44 10 48 76 95 388 915 408 292 294 712 89 196 388 578 580 580 1511 1681 1844
0 0 0 0 0 0 0 0 0 0 0 0 0 0 0 191 290 22 0 1 53 609 180 248 120 75 31 98 122 277 608 792 292 255 345 834 106 188 384 848 1412 1315 1498 1575
0 0 0 0 0 0 0 0 0 0 0 0 0 0 0 0 502 74 15 66 349 207 0 276 214 171 95 161 119 245 325 675 712 250 166 444 699 75 352 867 913 1217 1296 1106
0 0 0 0 0 0 0 0 0 0 0 0 0 0 0 0 122 202 104 267 46 84 316 89 341 237 208 202 170 217 309 312 822 647 90 261 1079 116 176 370 495 349 736 977
0 0 0 0 0 0 0 0 0 0 0 0 0 0 0 0 0 240 201 118 462 518 521 423 397 325 212 233 223 241 410 327 689 745 521 99 352 931 106 149 394 571 274 625
0 0 0 0 0 0 0 0 0 0 0 0 0 0 0 0 0 292 261 203 518 260 419 291 315 379 83 202 202 322 682 517 556 515 809 321 106 697 610 168 6 522 392 1753
0 0 0 0 0 0 0 0 0 0 0 0 0 0 0 0 0 49 335 270 411 393 408 283 194 205 51 133 342 320 548 816 800 728 621 803 248 226 565 397 69 0 613 660
0 0 0 0 0 0 0 0 0 0 0 0 0 0 0 0 0 0 0 26 334 370 329 50 84 189 199 104 298 502 473 899 996 1067 713 845 671 136 368 149 317 15 735 548
0 0 0 0 0 0 0 0 0 0 0 0 0 0 0 0 0 0 0 0 44 457 262 127 76 55 36 26 159 492 501 752 1002 1155 1189 911 749 660 78 122 1 740 283 1849
0 0 0 0 0 0 0 0 0 0 0 0 0 0 0 0 0 0 0 0 0 19 128 19 13 2 309 154 295 415 658 525 1020 1223 1322 1167 914 661 630 204 143 0 1117 553
0 0 0 0 0 0 0 0 0 0 0 0 0 0 0 0 0 0 0 0 0 0 0 0 0 0 150 74 28 0 351 692 636 1271 1422 1327 1102 891 772 741 846 212 107 1461
1 3 17 0 0 0 0 0 0 0 0 0 0 0 0 0 0 0 0 0 0 0 0 0 0 29 35 3 6 0 1 833 815 857 1344 1360 1202 1191 909 835 715 1025 328 465
10 20 32 0 4 1 0 0 0 0 0 0 0 0 0 0 0 0 0 0 0 0 0 150 35 376 394 304 6 0 5 193 911 924 1062 1285 1321 1324 1278 1106 843 942 1089 740
13 18 20 6 10 0 0 0 0 0 0 0 0 0 0 0 0 0 0 0 0 0 0 7 0 7 399 187 1 0 3 4 0 1012 1030 1268 1295 1355 1464 1176 1200 898 1195 1311
0 5 71 9 8 0 0 0 1 0 0 0 0 0 0 0 0 0 0 0 0 0 0 0 0 0 61 564 29 1 2 0 14 244 1299 1237 1231 1493 1494 1419 1236 1425 976 1133
0 2 11 23 118 32 0 0 22 10 0 0 0 0 0 0 0 0 0 0 0 0 0 52 178 154 287 504 747 488 168 38 889 1105 1448 1638 1309 1491 1544 1589 1461 1369 1462 1263
5 14 31 6 42 2 0 0 3 1 0 0 0 0 0 0 0 0 0 0 0 0 0 81 60 54 140 692 581 1084 852 841 1542 1854 1660 1543 1636 1472 1696 1559 1586 1486 1473 1513
2 36 15 4 0 0 0 1 0 1 1 0 2 0 0 0 0 0 0 0 0 0 0 0 0 0 88 141 204 674 859 1528 1730 2453 1871 2177 2314 1578 1843 1733 1703 1746 1766 1777
6 0 9 0 0 0 0 2 2 4 14 4 0 4 4 2 0 0 0 0 1 0 0 0 5 37 24 0 0 177 486 712 1310 2422 2874 1945 2463 2187 1636 2280 2052 2170 2215 2222
10 9 5 8 3 13 3 1 12 9 5 7 8 0 0 1 0 0 1 3 4 0 0 0 1 0 0 0 0 0 1 17 521 1770 2922 2514 2455 2270 2248 2440 2469 2514 2532 2486
2 5 3 1 7 17 8 15 14 14 14 15 7 7 2 36 30 7 3 38 4 2 1 0 0 1 1 0 0 0 0 0 27 933 2284 2849 2350 2550 2660 2389 241 2 162 701

GFSCGP_con_sbcape_060.txt.gz
CAPE
0 0 0 0 0 0 0 0 0 0 0 0 396 594 784 614 505 301 117 64 13 60 20 9 11 129 104 107 70 21 52 156 246 272 85 337 203 166 187 768 896 694 325 0
0 0 0 0 0 0 0 0 0 0 0 0 374 464 597 338 454 471 271 127 69 86 6 12 3 2 8 2 3 80 130 81 214 220 222 244 117 39 159 649 961 870 629 316
0 0 0 0 0 0 0 0 0 0 0 199 396 315 307 132 171 595 588 350 139 62 62 52 0 45 1 0 39 133 153 214 257 143 255 414 122 51 124 570 776 915 738 449
0 0 0 0 0 0 0 0 0 0 0 2 115 96 59 189 184 314 0 41 81 97 100 45 0 21 0 0 81 271 170 320 269 94 190 516 272 285 58 296 648 961 853 740
0 0 0 0 0 0 0 0 0 0 0 0 0 0 1 142 209 436 2 20 5 106 105 81 0 56 0 0 21 398 197 255 305 72 18 221 235 153 60 148 608 778 877 811
0 0 0 0 0 0 0 0 0 0 0 0 0 0 23 63 225 479 395 253 189 89 44 80 4 5 28 16 0 517 280 209 272 117 0 38 192 161 344 207 532 777 1080 1022
0 0 0 0 0 0 0 0 0 0 0 0 0 0 0 94 93 356 375 346 290 81 33 30 72 4 0 44 88 442 295 181 210 224 289 0 55 36 271 298 525 891 1166 1161
0 0 0 0 0 0 0 0 0 0 0 0 0 0 0 2 255 239 336 318 14 25 0 118 128 25 0 23 61 361 336 205 138 220 292 384 13 0 152 222 593 919 1145 1224
0 0 0 0 0 0 0 0 0 0 0 0 0 0 0 0 0 277 168 67 20 46 184 294 148 51 7 11 31 122 383 212 108 81 38 208 626 61 9 486 691 756 882 799
0 0 0 0 0 0 0 0 0 0 0 0 0 0 0 0 0 69 98 97 81 388 332 400 191 97 78 96 33 30 163 346 302 112 5 11 189 678 0 10 215 598 603 743
0 0 0 0 0 0 0 0 0 0 0 0 0 0 0 0 0 0 119 79 148 392 334 382 327 153 169 159 143 109 40 98 502 469 185 2 15 241 461 0 0 96 145 273
0 0 0 0 0 0 0 0 0 0 0 0 0 0 0 0 0 0 0 83 191 162 378 351 360 295 180 187 162 184 168 120 96 532 451 187 0 38 520 378 1 0 117 618
0 0 0 0 0 0 0 0 0 0 0 0 0 0 0 0 0 0 0 52 333 418 382 196 38 0 0 41 211 240 300 279 144 267 459 442 121 0 95 463 236 0 0 75
0 0 0 0 0 0 0 0 0 0 0 0 0 0 0 0 0 0 0 2 309 240 189 16 36 28 8 0 2 97 246 519 363 270 387 461 566 149 0 111 271 201 0 0
0 0 0 0 0 0 0 0 0 0 0 0 0 0 0 0 0 0 0 0 8 119 111 0 0 0 0 0 0 26 158 418 611 538 543 394 572 611 176 0 107 2 163 13
0 0 0 0 0 0 0 0 0 0 0 0 0 0 0 0 0 0 0 0 0 0 0 0 0 1 53 1 0 45 59 250 788 820 810 785 499 662 608 207 0 0 0 337
0 0 0 0 0 0 0 0 0 0 0 0 0 0 0 0 0 0 0 0 0 0 0 0 0 56 177 90 22 23 3 0 167 903 950 1019 990 757 633 578 218 27 4 0
0 0 0 0 0 0 0 0 0 0 0 0 0 0 0 0 0 0 0 0 0 0 0 0 0 0 12 29 56 22 0 19 5 47 1027 1252 1216 1065 823 618 634 430 322 11
0 0 1 10 0 0 0 0 0 0 0 0 0 0 0 0 0 0 0 0 0 0 0 0 0 0 57 7 12 3 138 88 15 0 3 803 1450 1253 1039 825 718 700 749 602
0 0 0 0 0 0 0 0 0 0 0 0 0 0 0 0 0 0 0 0 0 0 0 0 0 0 10 387 69 15 98 203 14 0 7 0 578 1320 1160 1090 891 839 695 791
0 0 0 1 13 0 0 0 0 5 0 0 1 0 0 1 0 0 0 0 0 0 0 0 0 0 39 145 71 14 18 8 8 3 0 40 73 736 1269 1221 1166 1061 928 823
0 0 1 0 17 1 0 0 0 0 0 2 1 0 1 1 0 0 0 0 0 0 0 0 0 0 4 154 310 694 405 243 54 0 1 26 154 612 1159 1267 1289 1160 1150 986
0 0 0 0 0 0 0 4 0 0 4 1 1 0 2 1 0 0 0 0 0 0 0 0 0 0 0 90 36 12 155 572 531 422 784 505 1178 1294 1136 1251 1255 1256 1162 1319
3 0 0 0 0 0 2 4 10 11 10 2 0 3 6 3 0 0 0 0 0 0 0 0 0 0 0 0 0 0 0 0 10 89 310 1340 1640 1594 1262 1220 1183 1353 1310 1268
0 2 2 1 0 0 0 1 15 18 18 5 6 9 4 9 0 0 0 0 0 2 0 0 0 0 0 0 0 0 0 0 2 1 71 717 1635 1137 1524 1390 1365 1342 1421 1380
0 0 1 0 0 0 0 0 27 21 20 23 15 11 4 8 20 27 14 2 0 0 3 3 0 0 0 0 0 0 0 0 2 3 2 569 1995 1809 2020 1532 402 1 78 677

GFSCGP_con_sbcape_063.txt.gz
CAPE
0 0 0 0 0 0 0 0 0 0 0 0 190 197 512 489 556 419 144 52 14 16 0 0 9 11 29 41 21 0 0 70 196 0 6 158 185 162 268 326 745 468 175 5
0 0 0 0 0 0 0 0 0 0 0 0 0 140 486 500 500 355 181 64 13 0 0 0 0 95 59 7 1 0 3 92 204 47 43 203 111 117 163 463 664 564 212 3
0 0 0 0 0 0 0 0 0 0 0 226 299 349 547 334 270 401 277 119 19 1 4 0 8 92 50 7 3 0 0 109 110 65 106 86 107 57 84 490 684 770 576 374
0 0 0 0 0 0 0 0 0 0 0 0 83 10 266 232 119 209 435 296 76 13 29 15 0 51 77 7 8 0 0 69 90 22 150 248 185 131 37 280 485 896 835 560
0 0 0 0 0 0 0 0 0 0 0 0 0 0 0 138 158 210 517 461 281 109 90 17 0 0 0 0 0 0 3 57 86 0 104 166 126 109 0 76 447 693 779 576
0 0 0 0 0 0 0 0 0 0 0 0 0 0 0 189 265 228 283 413 298 230 115 69 10 0 0 0 0 10 3 56 44 12 0 91 171 143 95 53 218 403 796 687
0 0 0 0 0 0 0 0 0 0 0 0 0 0 0 15 201 156 184 312 5 10 54 71 0 0 0 0 25 79 0 32 37 8 0 0 70 96 161 101 73 476 757 899
0 0 0 0 0 0 0 0 0 0 0 0 0 0 0 0 3 56 128 138 127 19 46 92 0 0 0 0 1 217 45 3 36 18 4 0 0 3 52 88 81 333 626 976
0 0 0 0 0 0 0 0 0 0 0 0 0 0 0 0 0 0 104 232 196 182 163 146 42 3 0 0 2 167 115 0 29 44 9 4 0 0 0 68 144 222 576 862
0 0 0 0 0 0 0 0 0 0 0 0 0 0 0 0 0 0 34 159 276 281 215 38 87 1 0 30 32 114 168 81 27 49 34 44 80 4 0 0 216 396 501 569
0 0 0 0 0 0 0 0 0 0 0 0 0 0 0 0 0 0 0 0 149 13 44 59 22 45 8 36 48 94 150 144 89 85 63 7 4 195 76 0 0 51 323 462
0 0 0 0 0 0 0 0 0 0 0 0 0 0 0 0 0 0 40 0 0 54 70 274 185 51 46 17 8 31 114 193 149 95 71 0 0 0 251 19 0 0 0 2
0 0 0 0 0 0 0 0 0 0 0 0 0 0 0 0 0 0 4 153 330 230 39 0 0 1 0 8 21 1 9 52 144 194 135 43 0 0 0 154 75 0 0 0
0 0 0 0 0 0 0 0 0 0 0 0 0 0 0 0 0 0 0 0 52 126 0 0 0 0 0 0 0 0 1 33 37 125 301 224 84 0 0 0 46 42 0 0
0 0 0 0 0 0 0 0 0 0 0 0 0 0 0 0 0 0 0 0 0 0 0 0 0 0 0 0 0 0 0 3 42 35 161 307 267 105 0 0 0 0 0 0
0 0 0 0 0 0 0 0 0 0 0 0 0 0 0 0 0 0 0 0 0 0 0 0 0 0 0 0 16 0 0 0 146 152 108 212 292 299 93 0 0 0 0 0
0 0 0 0 0 0 0 0 0 0 0 0 0 0 0 0 0 0 0 0 0 0 0 0 0 0 0 0 7 25 0 9 234 325 227 224 263 312 433 186 0 0 0 0
0 0 0 0 0 0 0 0 0 0 0 0 0 0 0 0 0 0 0 0 0 0 0 0 0 0 0 0 0 30 30 3 18 524 508 451 466 306 416 475 208 0 0 0
0 0 0 0 0 0 0 0 0 0 0 0 0 0 0 0 0 0 0 0 0 0 0 0 0 0 0 0 90 113 36 91 68 49 287 736 721 713 465 499 478 348 53 0
0 0 0 0 0 0 0 0 0 0 0 0 0 0 2 1 0 0 0 0 0 0 0 0 0 0 0 0 0 2 3 122 136 53 12 8 417 952 910 728 561 494 384 217
0 0 0 0 10 0 0 0 0 0 0 0 0 0 0 0 1 0 0 0 0 0 0 0 0 0 0 0 0 0 18 25 24 19 11 0 4 12 928 988 766 617 548 532
0 0 0 0 0 0 0 0 0 0 0 1 0 0 0 0 1 0 0 0 0 0 0 0 0 0 0 0 0 0 2 28 372 431 21 2 2 45 153 379 1028 845 680 536
0 0 0 0 0 0 0 0 3 7 5 1 0 1 4 4 1 9 0 0 0 0 0 0 0 0 0 0 0 1 0 0 1 5 29 211 427 41 49 274 649 1149 1055 904
0 0 0 0 0 0 0 0 0 2 3 6 12 13 9 7 1 3 3 0 0 0 0 0 0 0 0 0 0 0 0 0 0 1 5 3 18 400 1077 898 739 779 1200 1193
0 1 0 0 0 0 0 0 0 0 9 11 15 20 12 14 13 8 17 18 8 10 1 0 0 0 0 0 0 0 0 0 0 0 1 0 2 181 1052 1196 1000 1064 1164 1215
0 0 0 0 0 0 0 0 0 0 18 17 20 13 18 21 14 11 8 9 2 16 1 0 0 0 0 1 0 0 0 0 0 0 0 0 2 2 171 1312 978 1 236 829

GFSCGP_con_sbcape_066.txt.gz
CAPE
0 0 0 0 0 0 0 0 0 0 0 0 0 0 266 212 577 419 111 17 5 0 0 0 0 0 12 31 36 29 29 10 0 0 0 23 80 97 129 130 387 498 423 159
0 0 0 0 0 0 0 0 0 0 0 0 0 40 157 169 616 500 235 48 19 0 0 0 0 0 0 17 23 13 21 1 62 0 0 60 48 78 126 222 509 560 380 2
0 0 0 0 0 0 0 0 0 0 0 14 145 153 420 607 405 397 327 107 9 0 0 0 0 0 0 3 1 0 4 32 69 0 3 0 16 48 153 312 475 685 444 168
0 0 0 0 0 0 0 0 0 0 0 0 0 0 87 307 409 281 292 107 18 1 0 0 0 14 6 18 0 0 0 29 41 0 50 66 117 107 132 215 410 772 804 463
0 0 0 0 0 0 0 0 0 0 0 0 0 0 0 119 347 297 325 283 104 4 0 0 0 0 18 0 0 0 0 8 17 0 11 26 37 37 20 96 418 574 681 623
0 0 0 0 0 0 0 0 0 0 0 0 0 0 0 142 146 104 287 442 278 148 45 25 0 4 3 0 0 0 0 0 13 0 0 0 26 27 36 44 195 327 633 692
0 0 0 0 0 0 0 0 0 0 0 0 0 0 0 0 0 0 40 214 446 263 146 82 0 0 4 18 0 0 0 0 4 0 0 0 0 22 46 36 44 212 500 776
0 0 0 0 0 0 0 0 0 0 0 0 0 0 0 0 0 0 2 89 320 358 231 139 8 0 0 0 0 0 0 0 0 0 0 0 0 14 38 49 49 105 403 739
0 0 0 0 0 0 0 0 0 0 0 0 0 0 0 0 0 0 0 8 196 149 191 103 51 0 0 0 0 22 0 0 0 35 0 0 0 0 7 30 66 89 307 627
0 0 0 0 0 0 0 0 0 0 0 0 0 0 0 0 0 0 0 0 23 59 5 50 44 0 0 0 0 34 50 0 15 79 22 0 0 0 0 0 55 182 249 528
0 0 0 0 0 0 0 0 0 0 0 0 0 0 0 0 0 0 6 146 0 140 166 106 58 0 0 0 0 6 96 72 43 78 59 19 0 0 0 0 0 208 325 439
0 0 0 0 0 0 0 0 0 0 0 0 0 0 0 0 0 0 0 173 76 16 97 177 86 24 0 0 0 0 39 66 37 41 57 15 18 36 0 0 0 0 150 278
0 0 0 0 0 0 0 0 0 0 0 0 0 0 0 0 0 0 0 0 0 0 0 0 0 11 0 4 1 0 1 62 20 11 56 10 0 0 108 49 0 0 0 0
0 0 0 0 0 0 0 0 0 0 0 0 0 0 0 0 0 0 0 0 0 0 0 0 0 0 0 0 0 6 11 0 17 21 18 8 3 0 0 17 25 0 0 0
0 0 0 0 0 0 0 0 0 0 0 0 0 0 0 0 0 0 0 0 0 0 0 0 0 0 0 0 30 31 0 18 15 78 107 50 2 0 0 0 0 32 0 0
0 0 0 0 0 0 0 0 0 0 0 0 0 0 0 0 0 0 0 0 0 0 0 0 0 0 0 0 0 0 5 0 39 46 97 269 180 59 0 0 0 0 22 0
0 0 0 0 0 0 0 0 0 0 0 0 0 0 0 0 0 0 0 0 0 0 0 0 0 0 0 0 0 0 1 39 1 101 121 125 301 289 209 24 0 0 0 5
0 0 0 0 0 0 0 0 0 0 0 0 0 0 0 0 0 0 0 0 0 0 0 0 0 0 0 0 0 0 24 27 20 60 248 182 175 275 321 300 27 0 0 0
0 0 0 0 0 0 0 0 0 0 0 0 0 0 0 0 0 0 0 0 0 0 0 0 0 0 0 0 0 0 1 3 75 75 120 502 296 260 277 369 430 175 0 0
0 0 0 0 0 0 0 0 0 0 0 0 0 1 1 0 0 0 0 0 0 0 0 0 0 0 0 0 0 0 0 0 10 61 66 33 119 647 500 283 401 417 322 85
0 0 0 0 0 0 0 0 0 0 0 0 0 1 1 1 0 0 0 0 0 0 0 0 0 0 0 0 0 0 0 0 62 214 92 12 4 35 789 813 561 571 545 507
0 0 0 1 0 0 0 0 0 0 0 0 0 0 0 1 0 0 0 0 0 0 0 0 0 0 0 0 0 0 0 0 27 3 2 13 8 5 131 392 992 769 619 546
0 0 0 0 0 0 0 0 0 0 0 0 4 1 6 11 2 1 0 0 0 3 0 0 0 0 0 0 0 0 0 3 0 0 0 1 2 102 89 137 207 991 942 830
0 0 0 0 0 0 0 0 0 0 0 1 3 7 7 18 9 5 1 1 10 11 5 0 0 0 0 0 0 0 0 7 0 0 0 0 2 3 37 376 192 195 865 1045
0 0 0 0 0 0 0 0 0 0 0 0 10 1 0 10 17 19 20 14 12 6 14 13 4 2 3 2 0 0 0 15 0 0 0 2 3 6 2 202 602 674 338 754
0 0 0 0 0 0 0 0 0 0 0 0 0 0 4 14 14 10 13 10 12 13 15 18 2 0 4 0 2 1 1 12 0 1 1 1 2 2 6 6 74 456 269 95

GFSCGP_con_sbcape_069.txt.gz
CAPE
0 0 0 0 0 0 0 0 0 0 0 0 0 0 3 736 785 277 145 78 81 92 128 227 111 237 167 28 124 252 539 804 735 616 550 880 965 884 945 1040 1305 1268 1463 1502
0 0 0 0 0 0 0 0 0 0 0 0 0 0 577 401 828 659 218 77 79 105 123 106 160 184 171 113 189 382 589 865 892 608 741 894 1034 1012 1236 1302 1418 1391 1547 1434
0 0 0 0 0 0 0 0 0 0 0 1 188 190 539 614 705 822 636 176 85 61 89 87 131 129 167 190 263 376 630 888 1042 729 785 867 969 1009 1212 1391 1384 1436 1551 776
0 0 0 0 0 0 0 0 0 0 0 0 0 0 155 629 604 770 845 547 242 148 66 83 98 72 106 205 290 421 573 780 1067 956 846 965 948 967 1049 1334 1239 1543 1730 1374
0 0 0 0 0 0 0 0 0 0 0 0 0 0 0 263 591 450 869 739 349 249 146 59 58 94 34 148 253 347 495 675 1048 1109 1054 979 1153 1008 1243 1328 1807 1754 2206 1834
0 0 0 0 0 0 0 0 0 0 0 0 0 0 0 0 0 0 452 798 604 365 196 141 82 144 137 188 253 269 421 766 890 1056 1016 1094 1178 1221 1119 1212 1502 1491 1757 2564
0 0 0 0 0 0 0 0 0 0 0 0 0 0 0 0 0 0 0 55 804 582 364 196 155 128 259 288 325 329 395 587 755 910 992 1011 1114 1448 1521 1563 1280 1545 1556 1856
0 0 0 0 0 0 0 0 0 0 0 0 0 0 0 0 0 0 30 10 448 753 558 380 254 249 355 365 440 438 429 538 614 776 1214 1353 1136 1014 1057 1390 1089 1234 1312 1544
0 0 0 0 0 0 0 0 0 0 0 0 0 0 0 0 0 0 174 239 269 684 759 572 373 317 370 437 495 508 563 589 566 623 1069 1072 1107 1101 1215 1262 1352 1132 1481 1356
0 0 0 0 0 0 0 0 0 0 0 0 0 0 0 0 0 0 104 225 98 354 799 753 535 294 334 447 491 496 603 675 687 603 743 755 789 989 1106 1288 1489 1385 1495 1673
0 0 0 0 0 0 0 0 0 0 0 0 0 0 0 0 0 0 0 0 295 561 390 703 669 458 364 324 372 418 537 626 627 591 900 789 629 617 814 862 1244 1572 1684 1791
0 0 0 0 0 0 0 0 0 0 0 0 0 0 0 0 0 0 0 0 0 4 82 445 558 334 346 319 291 302 435 489 519 802 1069 816 900 676 578 690 816 1328 1645 1730
0 0 0 0 0 0 0 0 0 0 0 0 0 0 0 0 0 0 0 0 0 0 0 0 0 0 164 323 281 189 252 414 337 518 560 746 749 751 740 812 726 876 1186 1596
0 0 0 0 0 0 0 0 0 0 0 0 0 0 0 0 0 0 0 0 0 0 0 0 0 0 0 1 83 270 259 214 376 415 336 630 578 780 865 1340 1055 798 1085 1121
0 0 0 0 0 0 0 0 0 0 0 0 0 0 0 0 0 0 0 0 0 0 0 0 0 0 0 0 0 2 76 98 301 555 587 620 863 795 500 758 1435 1121 946 1078
0 0 0 0 0 0 0 0 0 0 0 0 0 0 0 0 0 0 0 0 0 0 0 0 0 0 0 0 0 0 6 37 144 213 664 912 1203 1202 1141 1070 1005 1412 1179 1057
0 0 0 0 0 0 0 0 0 0 0 0 0 0 0 0 0 0 0 0 0 0 0 0 0 0 0 0 0 0 10 37 142 239 215 644 1021 1174 1335 1011 1095 1315 1310 1386
0 0 0 0 0 0 0 0 0 0 0 0 0 0 0 0 0 0 0 0 0 0 0 0 0 0 0 0 0 0 0 0 23 614 233 466 830 954 1170 1062 1144 1274 1062 1303
0 0 0 0 0 0 0 0 0 0 0 1 0 0 0 0 0 0 0 0 0 0 0 0 0 0 0 0 0 0 0 0 0 90 532 774 805 880 934 1085 1469 1158 912 977
0 0 0 0 0 0 0 0 0 0 0 1 0 0 0 0 0 0 0 0 0 0 0 0 0 0 0 0 0 0 0 0 0 2 74 229 659 464 1256 1096 1188 1249 1230 980
0 0 0 1 0 0 0 0 0 0 0 0 0 0 0 0 0 0 0 0 0 0 0 0 0 0 0 0 0 0 0 0 0 0 75 22 48 402 365 605 1576 1317 1299 1335
0 0 6 2 1 0 0 0 0 0 0 0 0 0 0 0 0 0 0 0 0 0 0 0 0 0 0 0 0 0 0 0 0 0 7 0 6 40 255 537 424 1635 1825 1864
1 0 0 0 0 0 0 0 0 0 0 0 0 0 0 0 2 1 2 2 2 7 6 8 6 7 0 1 5 3 3 5 0 0 9 2 0 10 40 438 611 681 965 1674
0 0 1 0 0 0 0 0 0 0 0 0 0 0 0 6 7 3 4 8 11 10 10 11 16 19 11 4 6 5 3 12 6 0 9 3 0 4 10 37 214 474 573 976
0 3 1 0 0 0 0 0 0 0 0 0 0 0 4 9 8 13 14 11 5 12 7 7 8 17 24 23 10 7 2 5 15 3 7 18 0 1 9 5 21 412 836 695
0 0 0 0 0 0 0 0 0 0 0 0 1 3 12 25 18 14 21 8 0 5 24 34 28 27 27 25 24 13 8 19 25 17 9 14 7 2 7 6 0 0 0 17

GFSCGP_con_sbcape_072.txt.gz
CAPE
0 0 0 0 0 0 0 1 21 0 174 126 9 0 177 726 936 636 61 325 386 186 159 158 480 462 562 249 103 302 473 881 914 954 877 961 1107 1117 1165 1305 1568 1607 1551 1616
0 0 0 0 0 0 0 0 10 0 0 0 0 0 155 218 769 1050 378 255 510 328 221 220 551 581 396 205 0 266 466 1077 990 555 744 911 1068 1094 1235 1356 1683 1297 1625 1578
0 0 0 0 0 0 0 0 17 8 0 0 0 2 397 442 507 837 725 725 617 463 288 405 679 578 287 212 145 346 731 1096 934 595 963 1599 1568 1805 2164 1713 1578 1585 1896 1731
0 0 0 0 0 0 0 0 0 0 0 0 0 132 170 779 678 968 740 658 540 621 541 429 545 554 322 258 290 452 921 1203 1164 1251 1107 1413 1026 810 938 1333 1311 1773 1854 1574
0 0 0 0 0 0 19 0 0 0 0 0 0 5 131 251 723 648 905 896 691 317 237 583 479 578 399 359 397 547 1092 1352 1334 1548 1226 1426 1500 939 1205 1116 2282 1891 2297 1643
0 0 0 0 2 0 10 0 0 0 0 0 0 0 10 43 0 1 824 1197 1023 819 393 455 554 556 499 462 567 628 1098 1594 1625 1838 1997 1629 1401 1400 834 1239 3047 1227 2055 1708
0 0 0 1 7 0 4 0 0 0 0 0 1 0 2 0 0 2 30 5 1260 1062 900 706 661 612 566 451 604 737 1100 1542 1628 1689 1807 1836 1799 1807 1675 2115 795 1433 1551 1230
0 0 0 0 2 1 0 3 0 0 0 0 0 0 0 0 10 350 432 146 151 1247 1071 878 798 718 693 600 694 820 1104 1515 1535 1541 1781 1967 1862 1563 1456 1380 806 1183 1153 1360
10 1 0 0 0 0 0 6 3 0 0 5 0 0 0 0 39 72 300 430 458 1164 1202 990 907 849 806 860 832 1020 1156 1618 1617 1470 1639 1919 1963 1788 1189 1266 1411 1138 1225 1204
0 0 0 0 0 0 0 0 0 0 0 0 0 0 0 0 3 26 26 138 640 785 1117 1233 1000 970 871 935 959 1084 1199 1539 1707 1599 1573 1646 1775 1885 1707 1583 1720 1411 1107 1611
0 0 0 0 0 0 0 0 0 0 0 1 13 4 0 0 0 0 2 0 1 78 377 361 869 890 926 1010 1057 1087 1182 1304 1585 1610 1567 1563 1548 1579 1767 1685 1730 1784 1522 1653
0 0 0 0 0 0 0 0 0 1 5 0 16 0 0 0 0 0 0 0 0 0 0 0 0 0 50 877 983 1060 1177 1185 1331 1439 1634 1627 1673 1531 1350 1610 1563 1624 1719 1709
0 0 0 0 0 0 0 0 0 0 0 19 0 0 0 0 0 0 0 0 0 0 0 0 0 0 0 0 7 825 941 1004 926 1229 1333 1405 1404 1419 1431 1361 1544 1506 1593 1732
0 0 0 0 0 0 0 0 0 0 1 28 6 0 0 0 0 0 0 0 0 0 0 0 0 0 0 0 0 0 351 857 885 1098 1128 1268 1256 1276 1417 1499 1538 1509 1616 1649
2 11 0 0 0 0 0 0 0 0 0 1 0 0 0 0 0 0 0 0 0 0 0 0 0 0 0 0 0 0 3 46 609 927 1199 1205 1312 1370 1402 1542 1787 1723 1648 1622
0 2 0 0 0 0 0 0 0 0 0 0 0 0 0 0 0 0 0 0 0 0 0 0 0 0 0 0 0 0 0 4 4 754 799 1089 1500 1574 1598 1592 1538 1796 1888 1869
0 0 0 0 0 0 0 0 0 0 0 0 0 0 0 0 0 0 0 0 0 0 0 0 0 0 0 0 0 0 0 0 0 0 727 885 1125 1572 1695 1779 1788 1704 1626 2045
0 0 0 0 0 0 0 0 0 0 0 0 0 0 0 0 0 0 0 0 0 0 0 0 0 0 0 0 0 0 0 0 0 0 12 529 710 1050 1545 2168 1931 1868 1812 1854
0 0 0 0 0 0 0 0 0 0 0 0 0 0 0 0 0 0 0 0 0 0 0 0 0 0 0 0 0 0 0 0 0 0 0 35 39 1082 1209 1397 2062 1969 2043 1921
0 0 0 0 1 0 0 0 0 0 0 0 0 0 0 0 0 0 0 0 0 0 0 0 0 0 0 0 0 0 0 0 0 0 0 0 71 94 548 1279 2072 2548 2165 2021
6 9 10 5 7 1 0 0 0 0 0 0 0 0 0 0 0 0 0 0 0 0 0 0 0 0 0 0 0 0 0 0 0 0 0 0 1 24 5 409 1746 1843 2300 2563
4 12 20 15 21 12 0 0 0 0 0 0 0 0 0 0 0 0 0 0 0 0 0 0 0 0 0 0 1 0 0 0 0 0 0 0 0 1 0 37 41 1006 2297 2528
6 1 26 7 18 0 0 0 0 0 0 0 0 0 0 0 0 0 0 0 0 2 1 1 1 3 1 1 3 6 5 6 3 0 0 0 0 0 2 12 38 48 997 1547
0 0 5 0 0 0 0 0 0 0 0 0 0 0 0 0 0 0 0 1 1 3 6 6 6 6 9 14 15 10 11 14 9 3 1 0 0 0 0 0 0 0 11 436
1 1 0 0 0 0 0 0 0 0 0 0 0 0 0 2 3 4 6 9 10 20 17 12 14 13 14 14 19 13 12 11 10 8 1 0 0 0 0 0 0 0 0 53
0 0 5 15 0 0 0 0 0 0 0 0 0 3 10 14 17 22 23 26 23 24 18 19 19 21 17 16 17 26 27 18 13 16 7 0 0 0 0 0 0 0 0 0

GFSCGP_con_sbcape_075.txt.gz
CAPE
0 0 0 0 0 0 1 2 49 109 145 187 253 647 742 1062 624 688 171 134 265 139 173 269 130 382 308 248 179 417 544 1267 931 901 715 811 1316 1998 1943 2205 1670 1527 1829 1444
0 0 0 0 0 0 0 4 85 51 157 177 51 31 418 589 1032 1029 331 118 396 207 166 214 143 471 396 341 222 335 583 1299 1036 987 1677 728 1290 1503 1618 2032 1573 1490 1555 1633
0 0 0 0 0 0 0 17 132 55 0 58 30 61 162 117 467 1239 700 475 531 338 171 214 322 455 514 343 141 314 675 1308 1340 1219 1035 1103 1230 1921 1747 1839 1300 1531 1616 1528
0 0 0 0 0 0 3 0 63 44 10 10 5 71 193 204 225 1342 746 716 551 520 286 220 309 518 416 223 1 258 586 1193 1153 1332 1700 2375 1308 1470 766 1678 2034 1592 1752 1614
0 0 0 0 0 0 9 0 6 73 4 51 57 78 46 424 588 1136 826 933 910 688 374 318 497 586 313 184 181 447 1106 1809 2043 1862 2259 1649 2097 1063 1107 1812 2107 2327 2022 1712
0 0 0 0 0 1 25 31 4 9 16 8 40 1 448 323 399 963 877 808 869 713 642 368 526 517 394 213 217 593 1497 2089 1817 1550 1737 1945 1899 2156 2133 1227 1564 1389 1236 1545
0 1 0 0 1 26 73 58 16 18 9 14 8 8 117 6 0 27 498 443 1086 804 806 665 424 626 418 485 192 484 1430 2005 1903 1827 1882 1833 1871 1682 2233 1747 1305 1083 2209 942
0 0 0 0 9 60 69 53 23 5 4 9 60 69 22 27 391 446 421 264 1103 1025 850 697 805 644 581 652 273 441 1296 2192 2056 1999 2279 2687 2424 1598 1226 1593 1605 1325 1704 1041
61 26 4 0 34 102 58 44 16 87 57 53 111 7 0 110 205 283 665 612 183 1179 809 900 641 1000 564 665 643 661 1826 1898 2132 1953 2238 2597 2612 2393 1577 2537 1702 1506 2317 1122
0 8 0 0 0 1 1 25 76 77 65 79 87 9 33 81 95 130 65 227 363 190 37 6 207 672 749 693 765 481 910 1773 2083 1979 2016 2099 2246 2383 2085 1587 1909 1709 2042 1443
0 14 1 0 0 0 0 0 27 95 41 118 103 28 0 36 37 12 0 0 0 2 3 0 1 0 75 136 900 946 1006 1396 1955 1988 1999 2109 2099 2163 2277 1847 1771 1909 1588 1752
0 0 11 0 0 0 0 7 1 43 32 13 88 0 19 8 0 0 0 0 0 0 0 3 4 6 0 0 1 157 1071 1208 1479 1734 2399 1951 2030 2103 1980 2193 2029 2325 2458 1825
0 0 30 1 0 0 0 0 0 14 43 106 67 1 11 4 0 0 0 0 0 0 0 0 0 0 0 2 2 0 184 623 1055 1625 1563 1828 1846 1952 2001 2073 2101 2704 2557 2298
1 1 9 1 8 0 0 0 0 1 13 35 118 62 0 5 0 0 0 0 0 0 0 0 0 0 0 0 2 2 0 162 423 1074 1321 1656 1841 1877 1857 2308 2750 2044 2923 2599
21 0 0 0 0 1 7 0 0 0 0 76 176 109 4 0 0 0 0 0 0 0 0 0 0 0 0 0 0 1 0 6 7 216 1187 1760 1709 2046 1774 2240 2894 2595 2847 2764
35 7 0 0 0 0 0 0 0 0 0 2 120 34 8 0 0 0 0 0 0 0 0 0 0 0 0 0 0 0 0 0 1 0 150 1341 1479 1827 2315 2297 2282 2810 3027 3201
50 66 57 28 0 0 0 0 0 0 0 7 104 7 0 1 0 0 0 0 0 0 0 0 0 0 0 0 0 0 0 0 0 0 0 14 565 1545 1633 2404 2471 2712 2734 3027
20 51 97 67 57 7 0 0 0 0 0 1 0 0 0 0 0 0 0 0 0 0 0 0 0 0 0 0 0 0 0 0 0 0 0 0 0 113 847 1985 1945 2373 2610 2612
0 9 45 37 109 34 0 0 0 0 0 0 0 0 0 0 0 0 0 0 0 0 0 0 0 0 0 0 0 0 0 0 0 0 0 0 0 0 27 81 1275 2609 2367 2242
0 1 10 7 32 61 34 0 0 0 0 0 0 0 0 0 0 3 0 0 0 0 0 0 0 0 0 0 0 0 0 0 0 0 0 0 0 0 9 22 0 832 2333 2165
2 4 7 32 34 66 0 0 0 0 0 0 0 0 0 0 0 0 0 0 0 0 0 0 0 0 0 0 0 0 0 0 0 0 0 0 0 0 0 2 0 66 629 2011
43 79 62 40 72 192 0 0 0 0 0 0 0 0 0 0 0 0 0 0 0 0 0 0 0 0 0 0 0 0 0 0 0 0 0 0 0 0 0 0 0 1 71 424
10 25 203 54 123 23 0 0 1 0 0 0 0 0 0 0 0 0 0 0 0 0 0 0 0 0 0 0 0 0 1 7 6 2 1 0 0 0 0 0 0 0 75 101
0 0 0 4 1 0 0 0 0 0 0 0 0 0 0 0 0 0 0 0 0 0 1 2 3 3 4 8 5 1 1 4 4 5 1 0 0 0 0 0 0 0 0 0
42 11 0 1 0 0 0 0 0 0 0 0 0 0 0 0 0 1 2 4 6 2 2 2 4 7 10 11 11 11 9 6 4 3 0 0 0 0 0 0 0 0 0 0
204 125 343 177 29 24 2 1 0 0 0 0 0 0 0 0 2 4 10 18 4 17 10 4 6 9 13 9 12 13 14 20 15 6 0 0 0 0 0 0 0 0 0 0

GFSCGP_con_sbcape_078.txt.gz
CAPE
0 0 0 0 0 0 0 0 12 255 120 105 805 321 685 689 591 263 115 186 37 51 118 140 65 44 19 302 570 1045 1960 2061 1724 1406 1410 909 1518 1737 1702 2400 1762 1370 904 2597
0 0 0 0 0 0 0 1 1 11 90 584 187 193 542 747 595 377 347 218 100 87 71 184 121 191 167 357 582 1314 1913 2257 2058 1462 2134 867 2239 2082 1388 1567 2310 1864 1969 2577
0 0 0 0 0 0 0 0 24 135 6 174 206 512 507 913 652 782 519 216 185 142 101 159 117 265 198 254 566 1150 1991 2119 1890 2481 2303 1545 206 512 144 443 1943 2379 2413 2442
0 0 0 0 0 0 0 0 23 59 51 77 90 147 429 541 794 870 318 145 292 388 54 72 308 381 327 152 588 1125 1741 2005 1578 2482 1937 2531 1994 1304 2055 2114 2200 2398 2321 2302
0 0 0 0 0 0 0 0 0 36 47 0 0 39 104 116 945 1113 615 322 435 394 268 91 115 420 447 182 270 897 1292 2287 1660 2181 2558 2283 2063 1655 1101 1447 997 1877 2682 2302
0 0 0 0 0 2 0 6 0 6 17 0 7 22 466 229 45 399 1127 702 788 601 371 340 132 442 356 187 11 725 1304 2315 2536 1963 2358 2673 1991 492 181 1682 788 2379 2073 2487
0 0 0 0 0 0 0 28 3 0 14 13 0 20 277 119 102 72 785 1232 816 947 696 481 230 573 482 42 111 1045 1755 2266 2099 1880 2078 2325 2248 2169 1074 1190 640 2019 1296 1823
17 0 0 0 0 0 9 41 53 3 0 0 3 50 96 123 219 352 574 704 1182 1005 646 651 489 826 435 171 225 1220 1993 2258 2359 2248 2613 2526 2665 1995 1633 713 1731 1120 320 1303
18 19 1 0 0 0 36 76 67 58 12 27 119 178 190 217 433 760 682 272 197 161 24 216 756 940 452 568 284 1275 2252 2597 2599 2383 2800 2718 2545 2294 2486 2568 3304 1543 593 1724
0 4 11 0 0 0 1 16 65 33 7 68 139 181 239 264 312 391 88 0 1 5 6 2 26 240 340 747 380 1303 2217 2571 2611 2417 2584 2731 2769 2979 2838 2997 3087 2817 625 233
0 2 3 8 0 0 5 20 2 14 59 111 177 106 373 249 123 4 0 0 0 1 3 3 2 4 3 108 327 49 1933 2534 2677 2628 2545 2543 2605 2780 2827 2833 3232 2870 2394 527
0 0 21 5 0 0 2 3 0 74 71 30 22 0 149 7 0 0 0 0 0 0 0 3 2 4 4 2 0 0 192 231 2215 2439 2574 2634 2798 2771 2920 2873 2868 3315 3148 2959
0 0 28 6 5 0 0 0 0 7 45 287 32 44 36 0 0 0 0 0 0 0 0 0 6 2 3 3 3 3 3 1 22 739 2499 2592 2534 2820 2833 3131 2910 3163 3237 3145
0 0 29 0 0 0 0 0 0 0 6 12 121 278 29 0 0 0 0 0 0 0 0 0 0 0 0 1 3 1 6 1 7 3 367 1255 2376 2389 2425 2940 2987 2790 3321 3007
0 0 0 2 0 0 0 0 0 0 0 129 341 373 19 3 0 0 0 0 0 0 0 0 0 0 0 0 0 0 1 1 2 2 55 50 133 2389 3128 2904 2707 3013 2910 2960
0 7 7 0 0 0 0 0 6 0 0 39 180 191 7 0 0 0 0 0 0 0 0 0 0 0 0 0 0 0 0 0 0 0 3 0 343 857 1377 2278 2629 3405 3012 2943
9 11 17 10 0 0 0 0 0 0 0 377 320 55 1 0 1 1 0 0 0 0 0 0 0 0 0 0 0 0 0 0 0 0 0 0 1 7 286 1540 2471 3029 2994 3037
29 218 48 47 1 0 0 0 0 0 20 221 201 36 9 1 0 0 0 0 0 0 0 0 0 0 0 0 0 0 0 0 0 0 0 0 0 0 29 295 81 939 2534 2778
0 3 56 84 1 7 1 0 0 0 30 68 32 1 4 0 0 0 0 0 0 0 0 0 0 0 0 0 0 0 0 0 0 0 0 0 0 0 0 40 54 85 718 1938
0 0 55 68 55 47 37 0 0 0 38 1 0 0 0 0 0 0 0 0 0 0 0 0 0 0 0 0 0 0 0 0 0 0 0 0 0 0 0 0 0 11 164 490
0 0 8 61 94 179 1 0 0 0 6 0 1 0 0 0 0 0 0 0 0 0 0 0 0 0 0 0 0 0 0 0 0 0 0 0 0 0 0 0 0 1 2 72
38 178 212 36 157 318 0 0 0 2 0 0 0 0 0 0 0 0 0 0 0 0 0 0 0 0 0 0 0 0 0 1 0 0 3 5 3 0 0 0 0 0 0 1
60 35 501 160 377 178 1 1 0 0 0 0 0 0 0 0 0 0 0 0 0 0 0 0 0 0 0 0 0 0 12 9 10 10 6 1 0 0 0 0 0 0 0 0
22 0 16 83 68 74 70 7 0 0 0 0 0 0 0 0 0 0 0 0 0 0 0 0 0 0 0 2 1 1 8 16 13 12 11 8 1 0 0 0 0 0 0 0
182 65 13 18 3 3 0 4 0 0 0 0 0 0 0 0 0 0 0 0 0 0 2 0 0 1 3 8 8 1 10 7 1 3 2 0 0 0 0 0 0 0 0 0
85 113 440 473 112 160 114 26 14 0 0 0 0 0 0 0 0 0 0 4 0 1 6 3 1 1 4 7 8 22 21 15 3 0 0 0 0 0 0 0 0 0 0 0

GFSCGP_con_sbcape_081.txt.gz
CAPE
0 0 0 0 0 0 0 0 0 128 146 50 6 0 0 94 138 213 48 17 9 15 37 54 4 10 10 139 24 476 262 668 86 403 765 567 242 117 338 378 165 634 132 1398
0 0 0 0 0 0 0 0 0 175 476 246 14 0 0 0 108 149 3 3 7 9 30 37 2 7 9 55 42 531 629 484 152 136 687 407 245 740 621 715 589 806 424 1421
0 0 0 0 0 0 0 0 0 96 71 277 256 353 15 22 401 125 45 115 11 12 20 10 0 0 23 77 142 547 506 746 383 272 676 146 364 117 0 86 506 1115 1057 1281
0 0 0 0 0 0 0 0 0 97 68 80 304 106 162 651 343 195 82 102 41 50 41 48 8 22 7 74 175 487 747 779 453 1032 636 244 219 318 321 99 394 1267 1389 1140
0 0 0 0 0 0 0 0 1 62 28 45 112 101 241 541 493 267 292 159 88 51 91 69 95 51 55 79 211 291 997 730 108 691 974 478 330 674 197 720 1029 1100 1096 1302
0 0 0 0 0 0 0 0 0 2 3 4 0 30 236 555 399 546 32 46 247 307 178 45 78 93 64 23 162 254 1044 693 346 463 1047 846 184 0 0 87 212 941 1197 1439
0 0 0 0 0 0 0 0 0 0 25 5 5 25 231 297 505 254 160 24 31 307 162 74 85 198 169 74 158 246 512 1092 1015 614 1035 888 254 0 0 201 499 847 1050 1119
0 0 0 0 0 0 0 0 0 0 0 0 2 244 112 85 72 50 1 169 100 186 280 173 134 201 204 82 185 274 343 1093 1122 665 959 805 803 415 320 338 189 649 262 837
1 0 0 0 0 0 0 0 0 1 0 0 301 290 110 1 3 0 0 71 83 171 101 306 146 43 246 46 85 330 595 916 1243 957 1193 1125 860 829 345 15 31 580 63 791
0 0 0 0 0 0 0 1 0 0 24 28 464 334 316 181 25 0 0 0 0 3 22 14 1 0 6 84 137 729 998 1087 1328 1430 1507 1578 1710 1293 1106 886 917 700 633 506
0 0 1 1 0 0 1 0 6 0 0 0 76 48 23 42 0 0 0 0 0 1 4 7 6 2 1 0 3 58 102 521 1193 1457 1524 1567 1618 1510 1299 1376 1400 824 389 27
0 0 0 0 0 0 0 20 22 0 0 1 71 8 0 0 0 0 0 0 0 2 2 3 3 2 1 2 1 2 3 2 0 1 602 1541 1740 1733 1628 1608 1264 1357 589 388
0 0 0 0 7 0 0 0 0 0 0 10 39 23 0 0 0 0 0 0 0 0 0 0 0 1 2 2 1 2 2 1 2 0 25 400 1454 1674 1592 1681 1803 2014 739 190
0 0 0 0 0 0 0 0 0 0 0 120 39 9 0 0 0 0 0 0 0 0 0 0 0 0 2 6 4 2 5 4 3 0 0 35 9 81 697 1744 2113 2108 2094 1533
0 0 0 0 0 0 0 0 0 0 0 178 164 51 0 0 0 0 0 0 0 0 0 0 0 0 0 0 0 0 0 0 1 0 0 2 28 0 0 150 1048 1944 2085 2169
0 15 0 0 0 0 0 0 0 0 217 295 275 16 0 0 0 0 0 0 0 0 0 0 0 0 0 0 0 0 0 0 0 0 0 0 0 111 176 110 356 1005 1547 1924
13 18 0 0 0 0 0 0 0 129 277 196 73 0 0 0 0 0 0 0 0 0 0 0 0 0 0 0 0 0 0 0 0 0 0 1 1 0 0 64 38 18 1008 1455
0 13 0 0 0 0 0 0 0 0 128 47 0 0 0 0 0 0 0 0 0 0 0 0 0 0 0 0 0 0 0 0 0 0 0 0 0 0 0 10 11 0 112 494
0 0 0 0 0 0 0 0 0 0 22 198 15 0 0 0 0 0 0 0 0 0 0 0 0 0 0 0 0 0 0 0 0 0 0 0 0 0 0 0 0 0 1 20
0 0 0 5 19 0 0 0 0 0 0 166 32 0 0 0 0 0 0 0 0 0 0 0 0 0 0 0 0 0 0 0 0 0 0 0 0 0 0 0 0 0 0 0
0 0 0 0 29 32 0 0 0 0 16 7 0 0 0 0 0 0 0 0 0 0 0 0 0 0 0 0 0 0 0 0 0 0 0 0 0 0 0 0 0 0 0 0
0 1 20 0 3 14 0 0 0 0 0 0 0 0 0 0 0 0 0 0 0 0 0 0 0 0 0 0 0 0 0 0 0 0 0 0 0 0 0 0 0 0 0 0
0 18 0 57 32 0 0 0 3 0 0 0 0 0 0 0 0 0 0 0 0 0 0 0 0 0 0 0 0 0 0 0 0 0 0 0 0 0 0 0 0 0 0 0
1 0 0 0 118 46 0 0 0 0 0 0 0 0 0 0 0 0 0 0 0 0 0 0 0 0 0 0 0 0 0 0 0 0 0 0 0 0 0 0 0 0 0 0
22 42 1 0 0 0 2 0 0 0 0 0 0 0 0 0 0 0 0 0 0 0 0 0 0 0 0 0 0 0 0 0 0 0 0 0 0 0 0 0 0 0 0 0
2 44 16 22 124 201 86 17 0 0 0 0 0 0 0 0 0 0 0 0 0 0 0 0 0 0 0 0 0 0 0 0 0 0 0 0 0 0 0 0 0 0 0 0

GFSCGP_con_sbcape_084.txt.gz
CAPE
0 0 0 0 0 0 0 0 0 158 365 123 259 29 116 222 346 158 34 11 18 41 7 0 128 263 195 108 86 0 103 25 0 267 329 265 94 17 399 296 43 144 349 1059
0 0 0 0 0 0 0 0 0 457 237 77 113 206 114 150 264 252 56 11 8 12 4 1 0 42 43 13 133 118 178 0 0 76 304 254 110 308 303 449 241 309 324 894
0 0 0 0 0 0 0 0 0 136 280 101 98 93 28 0 8 214 110 23 1 25 17 0 0 9 32 4 250 166 299 4 0 64 249 207 147 13 85 279 488 829 620 971
0 0 0 0 0 0 0 0 0 165 57 44 147 0 184 14 8 188 36 22 1 15 19 0 0 9 76 44 256 237 306 100 0 288 252 306 283 181 52 69 340 1005 869 856
0 0 0 0 0 0 0 0 0 26 41 173 105 85 46 139 383 146 52 34 0 12 27 2 0 9 40 117 286 224 273 301 228 614 393 205 235 368 229 429 200 974 855 884
0 0 0 0 0 0 0 0 30 16 13 16 56 113 24 385 330 310 319 166 85 17 20 43 8 31 37 132 192 530 309 242 25 374 632 470 121 194 154 295 374 776 775 890
0 0 0 0 0 0 0 0 0 0 4 7 0 56 26 280 491 334 362 304 137 88 135 17 37 49 62 124 202 614 413 339 159 180 625 496 150 0 47 182 325 480 747 863
0 0 0 0 0 0 0 0 0 0 0 0 0 20 28 84 442 316 171 105 2 6 258 23 18 46 85 59 226 302 599 431 347 275 535 529 153 35 0 62 324 300 565 578
0 0 0 0 0 0 0 0 0 0 0 0 109 50 3 5 0 0 0 0 6 163 147 242 34 122 155 80 226 217 577 631 431 535 443 529 527 301 299 210 65 115 258 378
0 0 0 0 0 0 0 0 0 0 0 0 128 53 0 0 0 0 0 0 1 2 3 4 2 0 102 99 140 176 235 730 684 597 505 710 580 609 375 172 8 163 107 743
0 0 0 0 0 0 0 0 0 0 0 0 87 11 58 0 0 0 0 0 0 4 5 6 4 2 24 30 20 46 71 159 127 104 252 952 1056 830 730 726 632 618 339 500
0 0 0 0 0 0 0 0 0 3 1 15 2 11 0 0 0 0 0 0 0 1 1 4 3 3 2 0 2 15 69 1 0 1 71 284 433 781 984 922 940 582 382 164
0 0 0 0 0 0 0 0 0 0 0 12 0 0 0 0 0 0 0 0 0 0 0 0 1 2 4 2 2 1 3 7 0 0 0 43 59 364 522 816 990 865 504 414
0 0 0 0 0 0 0 0 0 0 0 6 0 1 0 0 0 0 0 0 0 0 0 0 0 0 1 2 2 3 2 2 2 0 0 0 3 0 0 116 372 625 564 412
0 0 0 0 0 0 0 0 0 0 0 7 0 0 0 0 0 0 0 0 0 0 0 0 0 0 0 0 2 2 0 0 1 1 1 1 9 3 64 24 0 0 241 801
0 0 0 0 0 0 0 0 0 26 197 14 0 0 0 0 0 0 0 0 0 0 0 0 0 0 0 0 0 3 0 0 0 0 0 1 0 0 0 31 14 6 23 482
0 0 0 0 0 0 0 0 0 20 230 8 8 0 0 0 0 0 0 0 0 0 0 0 0 0 0 0 0 0 0 0 0 0 0 0 0 0 0 1 23 0 5 96
0 0 0 0 0 0 0 0 0 28 15 0 0 0 0 0 0 0 0 0 0 0 0 0 0 0 0 0 0 0 0 0 0 0 0 0 0 0 0 0 0 0 4 30
0 0 0 0 0 0 0 0 0 0 0 0 0 0 0 0 0 0 0 0 0 0 0 0 0 0 0 0 0 0 0 0 0 0 0 0 0 0 0 0 0 0 0 0
0 0 0 0 0 0 0 0 0 0 0 0 0 0 0 0 0 0 0 0 0 0 0 0 0 0 0 0 0 0 0 0 0 0 0 0 0 0 0 0 0 0 0 0
0 0 0 0 0 0 0 0 0 0 0 0 0 0 0 0 0 0 0 0 0 0 0 0 0 0 0 0 0 0 0 0 0 0 0 0 0 0 0 0 0 0 0 0
0 0 0 0 0 0 0 0 0 0 0 0 0 0 0 0 0 0 0 0 0 0 0 0 0 0 0 0 0 0 0 0 0 0 0 0 0 0 0 0 0 0 0 0
0 0 0 0 0 0 0 0 0 0 0 0 0 0 0 0 0 0 0 0 0 0 0 0 0 0 0 0 0 0 0 0 0 0 0 0 0 0 0 0 0 0 0 0
0 0 0 0 0 0 0 0 0 0 0 0 0 0 0 0 0 0 0 0 0 0 0 0 0 0 0 0 0 0 0 0 0 0 0 0 0 0 0 0 0 0 0 0
0 0 0 0 0 0 0 0 0 0 0 0 0 0 0 0 0 0 0 0 0 0 0 0 0 0 0 0 0 0 0 0 0 0 0 0 0 0 0 0 0 0 0 0
0 0 0 0 0 0 0 0 0 0 0 0 0 0 0 0 0 0 0 0 0 0 0 0 0 0 0 0 0 0 0 0 0 0 0 0 0 0 0 0 0 0 0 0

GFSCGP_con_sbcape_087.txt.gz
CAPE
0 0 0 0 0 0 0 0 0 168 548 384 205 170 256 266 362 10 8 12 3 0 33 107 198 222 147 132 73 88 0 29 60 78 141 73 94 13 285 234 161 210 405 595
0 0 0 0 0 0 0 0 1 292 166 204 236 158 153 171 367 163 36 9 5 0 59 188 184 187 138 110 51 4 30 0 61 71 129 99 21 49 163 307 175 215 440 512
0 0 0 0 0 0 0 0 0 175 100 35 146 88 123 149 86 229 357 70 1 0 7 98 157 169 159 103 53 19 22 0 0 113 139 114 60 27 104 277 442 455 611 543
0 0 0 0 0 0 0 0 0 302 82 124 62 42 10 29 2 11 266 166 3 0 0 49 132 117 117 83 94 40 69 0 0 150 193 276 220 187 59 63 232 502 737 702
0 0 0 0 0 0 0 0 0 201 8 55 111 0 0 0 0 0 191 75 13 0 0 3 37 79 47 96 173 80 47 0 1 129 143 145 123 58 124 126 49 562 658 702
0 0 0 0 0 0 0 0 0 0 0 44 2 3 0 53 47 62 264 93 16 14 0 0 0 8 60 74 212 206 135 8 94 183 132 115 110 251 178 201 109 408 587 610
0 0 0 0 0 0 0 0 0 35 23 24 0 11 0 27 195 250 201 111 24 27 9 0 0 2 49 58 249 227 156 102 104 292 297 191 103 98 106 158 161 435 532 538
0 0 0 0 0 0 0 0 0 2 0 0 1 1 0 0 109 177 134 112 40 135 9 18 0 4 21 53 224 310 163 134 13 139 295 256 104 3 0 69 160 267 434 498
0 0 0 0 0 0 0 0 0 0 0 0 3 0 0 0 0 0 0 0 1 19 80 33 37 27 32 71 146 394 322 163 101 56 136 293 115 35 0 0 83 176 231 309
0 0 0 0 0 0 0 0 0 0 0 0 22 2 0 12 0 1 2 1 3 1 1 8 28 141 39 38 197 190 520 314 200 150 123 219 273 211 104 100 86 50 80 121
0 0 0 0 0 0 0 0 0 0 0 0 70 7 0 0 0 0 1 0 2 3 3 3 3 78 140 117 200 130 98 226 114 342 282 357 347 329 241 150 69 0 39 125
0 0 0 0 0 0 0 0 0 0 0 0 0 0 0 0 0 0 0 0 1 2 3 3 2 3 15 69 162 147 32 2 0 2 36 185 289 514 541 340 444 384 511 211
0 0 0 0 0 0 0 0 0 0 0 0 0 0 0 0 0 0 0 0 0 1 0 3 3 3 2 5 72 53 21 2 0 11 5 0 0 33 205 319 476 446 447 194
0 0 0 0 0 0 0 0 0 0 0 0 0 0 4 0 0 0 0 0 0 0 0 1 1 2 1 1 1 12 31 9 2 29 16 0 2 0 0 0 0 78 296 370
0 0 0 0 0 0 0 0 0 0 0 0 0 0 0 0 0 0 0 0 0 0 0 0 0 0 0 0 1 1 2 1 1 1 2 1 2 0 0 10 0 0 0 109
0 0 0 0 0 0 0 0 0 0 0 0 0 0 0 0 0 0 0 0 0 0 0 0 0 0 0 0 0 1 0 0 0 0 2 1 0 0 0 14 0 0 0 34
0 0 0 0 0 4 0 0 0 0 0 0 0 0 0 0 0 0 0 0 0 0 0 0 0 0 0 0 0 0 0 0 0 0 0 1 1 1 0 0 0 0 0 0
0 0 0 0 0 0 0 0 0 0 0 0 0 0 0 0 0 0 0 0 0 0 0 0 0 0 0 0 0 0 0 0 0 0 0 0 0 0 0 0 0 0 0 0
0 0 0 0 0 0 0 0 0 0 0 0 0 0 0 0 0 0 0 0 0 0 0 0 0 0 0 0 0 0 0 0 0 0 0 0 0 0 0 0 0 0 0 0
0 0 0 0 0 0 0 0 0 0 0 0 0 0 0 0 0 0 0 0 0 0 0 0 0 0 0 0 0 0 0 0 0 0 0 0 0 0 0 0 0 0 0 0
0 0 0 0 0 0 0 0 0 0 0 0 0 0 0 0 0 0 0 0 0 0 0 0 0 0 0 0 0 0 0 0 0 0 0 0 0 0 0 0 0 0 0 0
0 0 0 0 0 0 0 0 0 0 0 0 0 0 0 0 0 0 0 0 0 0 0 0 0 0 0 0 0 0 0 0 0 0 0 0 0 0 0 0 0 0 0 0
0 0 0 0 0 0 0 0 0 0 0 0 0 0 0 0 0 0 0 0 0 0 0 0 0 0 0 0 0 0 0 0 0 0 0 0 0 0 0 0 0 0 0 0
0 0 0 0 0 0 0 0 0 0 0 0 0 0 0 0 0 0 0 0 0 0 0 0 0 0 0 0 0 0 0 0 0 0 0 0 0 0 0 0 0 0 0 0
0 0 0 0 0 0 0 0 0 0 0 0 0 0 0 0 0 0 0 0 0 0 0 0 0 0 0 0 0 0 0 0 0 0 0 0 0 0 0 0 0 0 0 0
0 0 0 0 0 0 0 0 0 0 0 0 0 0 0 0 0 0 0 0 0 0 0 0 0 0 0 0 0 0 0 0 0 0 0 0 0 0 0 0 0 0 0 0

GFSCGP_con_sbcape_090.txt.gz
CAPE
0 0 0 0 0 0 0 0 0 139 281 468 356 78 142 80 171 2 27 47 97 94 79 38 50 173 140 68 101 72 0 0 0 2 84 69 108 93 180 198 121 419 651 798
0 0 0 0 0 0 0 0 118 266 575 152 5 103 102 174 287 23 0 0 3 50 41 36 78 164 140 104 77 2 0 0 0 2 49 61 47 36 182 265 190 255 341 680
0 0 0 0 0 0 0 0 0 139 125 130 94 93 154 102 177 228 167 0 0 0 6 61 99 119 81 77 60 17 0 0 0 22 67 69 39 13 123 237 374 397 540 428
0 0 0 0 0 0 0 0 0 269 143 64 69 51 67 82 97 46 233 82 0 0 33 128 115 119 102 87 53 29 0 0 0 40 122 156 171 163 33 141 246 438 771 623
0 0 0 0 0 0 0 0 0 180 30 73 57 1 0 55 100 71 22 222 0 0 33 143 128 152 141 100 61 37 13 0 0 0 97 92 75 30 60 81 46 318 626 609
0 0 0 0 0 0 0 0 0 0 0 32 18 9 0 7 14 50 35 86 4 0 1 125 152 150 114 72 72 40 19 0 0 0 0 50 89 89 120 127 81 204 598 643
0 0 0 0 0 0 0 0 0 0 3 0 0 7 0 0 1 0 11 89 26 0 0 12 86 46 61 58 153 111 36 7 0 1 0 0 36 132 120 106 125 287 510 568
0 0 0 0 0 0 0 0 0 0 0 3 0 0 0 0 0 105 112 46 5 5 0 0 0 30 49 59 184 144 108 44 3 115 121 58 0 43 22 41 140 300 430 525
0 0 0 0 0 0 0 0 0 0 0 0 0 0 0 0 0 0 5 5 9 54 21 2 0 22 3 18 71 131 120 76 25 122 159 132 40 0 0 0 60 174 257 394
0 0 0 0 0 0 0 0 0 0 0 0 22 0 0 15 1 4 3 2 3 3 2 17 27 15 1 14 48 184 119 72 36 7 30 146 103 0 0 15 15 80 115 295
0 0 0 0 0 0 0 0 0 0 0 0 15 0 0 0 0 1 1 3 2 3 3 2 3 49 14 45 166 233 338 379 83 6 56 136 175 178 157 67 76 55 26 27
0 0 0 0 0 0 0 0 0 0 0 0 0 0 0 0 0 0 0 5 2 2 3 2 3 2 98 78 215 128 105 59 24 5 45 174 258 304 351 122 230 292 242 107
0 0 0 0 0 0 0 0 0 0 0 0 1 0 0 0 0 0 0 1 2 1 1 1 2 3 2 33 132 59 28 28 19 1 4 1 0 0 35 83 195 252 401 330
0 0 0 0 0 0 0 0 0 0 0 0 0 0 2 0 0 0 0 0 0 0 1 1 1 2 2 1 3 38 24 11 8 1 14 19 2 0 0 0 0 0 138 386
0 0 0 0 0 0 0 0 0 0 0 0 0 0 0 0 0 0 0 0 0 0 0 0 0 1 1 1 1 1 1 11 17 37 37 6 0 0 0 0 0 0 0 11
0 0 0 0 0 0 0 0 0 7 0 0 0 0 0 0 0 0 0 0 0 0 0 0 0 0 1 1 2 1 1 1 0 1 3 3 1 0 0 0 0 0 0 0
0 0 0 0 0 2 0 0 0 0 0 0 0 0 0 0 0 0 0 0 0 0 0 0 0 0 0 0 0 1 0 0 0 1 1 1 1 1 0 0 0 0 0 0
0 0 0 0 0 0 0 0 0 0 0 0 0 0 0 0 0 0 0 0 0 0 0 0 0 0 0 0 0 0 0 0 0 0 0 0 0 0 0 0 0 0 0 0
0 0 0 0 0 0 0 0 0 0 0 0 0 0 0 0 0 0 0 0 0 0 0 0 0 0 0 0 0 0 0 0 0 0 0 0 0 0 0 0 0 0 0 0
0 0 0 0 0 0 0 0 0 0 0 0 0 0 0 0 0 0 0 0 0 0 0 0 0 0 0 0 0 0 0 0 0 0 0 0 0 0 0 0 0 0 0 0
0 0 0 0 0 0 0 0 0 0 0 0 0 0 0 0 0 0 0 0 0 0 0 0 0 0 0 0 0 0 0 0 0 0 0 0 0 0 0 0 0 0 0 0
0 0 0 0 0 0 0 0 0 0 0 0 0 0 0 0 0 0 0 0 0 0 0 0 0 0 0 0 0 0 0 0 0 0 0 0 0 0 0 0 0 0 0 0
0 0 0 0 0 0 0 0 0 0 0 0 0 0 0 0 0 0 0 0 0 0 0 0 0 0 0 0 0 0 0 0 0 0 0 0 0 0 0 0 0 0 0 0
0 0 0 0 0 0 0 0 0 0 0 0 0 0 0 0 0 0 0 0 0 0 0 0 0 0 0 0 0 0 0 0 0 0 0 0 0 0 0 0 0 0 0 0
0 0 0 0 0 0 0 0 0 0 0 0 0 0 0 0 0 0 0 0 0 0 0 0 0 0 0 0 0 0 0 0 0 0 0 0 0 0 0 0 0 0 0 0
0 0 0 0 0 0 0 0 0 0 0 0 0 0 0 0 0 0 0 0 0 0 0 0 0 0 0 0 0 0 0 0 0 0 0 0 0 0 0 0 0 0 0 0

GFSCGP_con_sbcape_093.txt.gz
CAPE
0 0 0 0 0 0 52 33 0 68 330 303 205 319 214 127 177 178 188 185 175 163 271 271 300 361 461 624 699 795 842 927 694 816 970 1023 1029 1370 1351 1051 1459 1652 1989 1517
0 0 0 0 0 0 0 0 1 411 369 252 167 123 91 275 159 204 217 230 184 264 306 188 247 374 473 688 770 867 928 902 783 870 947 959 1148 1002 1255 1344 1303 1404 1649 2034
0 0 0 0 0 0 0 0 343 250 181 23 9 26 74 175 508 193 204 218 248 265 268 265 265 378 474 649 805 885 963 874 771 768 899 958 972 985 1233 1350 1266 1131 1536 1558
0 0 0 0 0 0 0 0 1 466 251 173 74 8 19 144 314 414 154 138 180 263 275 320 371 443 418 568 705 833 915 733 650 897 965 1220 1326 1643 953 1167 1416 1440 1531 1440
0 0 0 0 0 0 0 0 0 383 181 242 50 13 15 173 270 534 513 193 78 97 209 308 376 507 430 516 580 703 783 683 550 794 1041 1038 1584 1040 991 1036 1504 1717 1966 1763
0 0 0 0 0 0 0 0 0 90 127 17 149 77 0 253 424 404 437 439 197 33 122 296 154 377 465 450 459 524 797 708 844 810 972 1230 1142 1440 1172 1242 1162 1268 1654 1826
0 0 0 0 0 0 0 0 0 1 15 0 12 215 54 192 100 170 202 443 480 69 91 322 299 364 448 402 338 133 708 922 630 747 973 1094 1139 1337 1461 1310 1227 1071 1703 1999
0 0 0 0 0 0 0 0 0 0 5 0 25 10 45 44 36 230 356 343 529 257 69 218 436 306 74 123 337 301 528 853 700 534 786 1056 1113 922 1095 1193 1239 1174 1747 2423
0 0 0 0 0 0 0 0 0 0 0 0 55 107 98 118 188 308 327 281 463 316 53 165 477 469 326 50 306 577 631 774 591 542 659 885 989 1012 1087 1206 1229 1292 1472 1255
0 0 0 0 0 0 0 0 0 0 6 6 101 120 217 286 168 125 211 131 203 278 111 131 291 423 419 130 43 279 219 612 832 549 677 1061 1224 1113 1032 857 779 1009 1197 1377
0 0 0 0 0 0 0 0 0 0 0 3 14 43 177 356 283 90 31 47 17 26 49 50 189 215 240 116 30 268 434 691 510 165 374 643 1067 1040 1072 1113 1159 1135 1077 920
0 0 0 0 0 0 0 0 0 0 0 22 29 27 0 36 222 105 40 54 25 4 3 6 35 193 312 225 202 271 630 751 712 524 234 232 758 805 1146 1338 1153 1267 1120 1041
0 0 0 0 0 0 0 0 0 0 8 57 0 16 0 1 5 1 2 4 3 4 4 4 6 62 384 383 349 182 167 271 98 17 4 11 131 1138 1447 1369 1377 1292 1391 1492
0 0 13 10 0 0 0 0 0 0 0 32 10 44 6 3 2 0 0 2 3 2 4 4 4 5 29 332 453 500 311 199 99 43 17 24 128 243 366 428 526 812 1276 1562
1 0 0 0 0 0 0 21 38 0 0 0 1 21 86 60 14 0 1 0 0 0 2 3 3 3 3 3 11 48 88 78 37 40 35 53 64 189 242 283 229 224 375 652
0 6 0 0 0 0 0 3 156 78 32 23 23 34 0 29 0 0 1 0 0 0 0 0 1 4 3 3 3 1 2 2 101 117 93 47 52 1 1 103 133 123 134 181
0 0 1 6 0 21 21 0 0 0 27 40 39 27 0 0 0 0 0 0 0 0 0 0 0 0 1 3 2 2 2 2 2 4 4 4 3 4 2 0 0 0 0 0
0 0 0 0 28 23 0 0 0 0 3 3 0 0 2 0 0 0 0 0 0 0 0 0 1 2 0 0 0 0 0 0 0 0 0 0 0 0 0 0 0 0 0 0
0 0 0 5 1 0 0 0 0 0 0 5 1 0 0 0 0 0 0 0 0 0 0 0 0 0 0 0 0 0 0 0 0 0 0 0 0 0 0 0 0 0 0 0
0 0 0 0 0 0 0 0 0 0 0 11 2 9 0 0 161 61 0 0 0 0 0 0 0 0 0 0 0 0 0 0 0 0 0 0 0 0 0 0 0 0 0 0
0 0 0 0 0 0 0 0 0 0 0 0 2 10 0 31 39 0 0 0 0 0 0 0 0 0 0 0 0 0 0 0 0 0 0 0 0 0 0 0 0 0 0 0
0 0 0 0 0 0 0 0 0 0 0 0 8 0 0 0 0 0 0 0 0 0 0 0 0 0 0 0 0 0 0 0 0 0 0 0 0 0 0 0 0 0 0 0
18 0 190 0 0 0 0 0 0 0 0 0 0 21 0 0 0 0 0 0 0 0 0 0 0 0 0 0 0 0 0 0 0 0 0 0 0 0 0 0 0 0 0 0
0 0 7 1 0 0 0 0 0 0 0 0 0 0 0 0 0 0 0 0 0 0 0 0 0 0 0 0 0 0 0 0 0 0 0 0 0 0 0 0 0 0 0 0
0 0 0 0 0 0 0 0 0 0 0 0 0 0 0 0 0 0 0 0 0 0 0 0 0 0 0 0 0 0 0 0 0 0 0 0 0 0 0 0 0 0 0 0
0 0 0 9 0 2 0 0 0 0 0 0 0 0 0 0 0 0 0 0 0 0 0 0 0 0 0 0 0 0 0 0 0 0 0 0 0 0 0 0 0 0 0 0

GFSCGP_con_sbcape_096.txt.gz
CAPE
0 0 93 2 0 0 77 58 494 614 573 130 145 108 188 168 159 119 112 148 153 173 210 279 259 343 440 390 683 966 1114 1480 1688 1564 1094 1086 1165 1339 1122 1327 1880 1873 1880 1774
0 0 24 28 0 0 68 332 373 546 712 356 122 182 225 260 184 300 93 112 143 188 253 333 389 408 530 751 631 878 1232 1744 1548 1374 1396 1023 1060 1198 1273 1339 1774 1741 1746 1990
0 0 9 0 0 0 8 230 133 540 322 209 197 101 54 66 171 248 188 156 210 288 357 430 478 477 555 874 1119 1148 1382 1612 1608 1215 1343 1524 1847 1560 2104 1663 1681 1604 1699 1780
0 0 0 0 1 0 1 0 247 709 335 155 59 44 11 1 99 290 272 339 205 399 473 555 539 620 610 766 1161 1298 1502 1709 1630 1610 1177 1217 2102 1444 2096 1343 1370 1577 1674 1482
0 0 0 0 3 0 2 0 30 209 283 213 178 87 14 17 17 496 719 373 232 272 357 524 652 671 697 703 1023 1259 1562 1735 1277 1638 1260 1050 738 1819 745 1209 2003 1759 1913 1745
0 0 0 0 0 0 0 0 0 164 256 263 135 43 2 51 70 124 692 705 486 335 359 449 610 722 876 735 921 1104 1579 1812 1548 1487 1570 1464 1072 833 1943 1885 1461 1486 1564 1877
0 0 0 0 0 0 0 2 2 33 106 94 244 103 21 8 304 239 647 722 701 426 372 455 645 749 983 936 958 1040 1496 1707 1513 1410 1294 1440 1301 1127 1007 1291 1941 1174 1977 1634
0 0 0 0 0 0 0 0 44 47 119 67 16 157 137 371 357 407 727 682 877 824 432 376 637 421 676 1044 963 666 1276 1643 1580 1426 1582 1607 1609 682 1141 1062 913 2129 1632 1141
0 0 0 0 0 0 0 0 0 31 34 83 68 47 317 327 489 729 855 685 771 1059 741 488 710 900 1027 793 778 507 501 945 1487 1338 1439 1492 1664 1492 888 1009 1060 2793 1919 1541
4 0 0 0 0 0 0 0 45 3 93 67 119 102 44 573 647 619 935 907 822 1024 1069 731 739 893 632 336 296 279 797 953 1117 1063 1207 1213 750 736 686 1092 1261 1378 1420 1930
13 0 1 0 0 0 0 0 0 37 47 82 87 124 625 712 884 740 611 515 762 1048 1007 785 899 1079 1012 438 175 176 266 377 1085 1069 1198 1078 926 705 734 729 901 944 1372 1775
3 13 50 0 0 0 0 0 0 0 43 38 85 325 480 791 923 778 375 366 302 364 317 435 802 869 820 847 321 129 173 200 411 1188 1079 738 906 826 729 781 845 1190 1085 1793
28 5 78 18 0 0 0 0 0 4 12 68 87 154 599 738 830 663 616 486 238 168 130 189 372 570 810 501 234 211 358 665 796 453 568 507 463 620 818 987 938 1176 1422 1289
1 64 114 83 5 11 0 0 0 0 7 24 74 288 728 763 703 444 390 183 66 105 53 21 39 339 473 655 809 712 551 477 405 158 80 123 140 246 538 766 1111 1213 1455 1602
42 127 133 55 14 3 5 0 0 0 3 46 79 81 527 881 862 605 217 178 104 176 207 33 4 5 6 261 1034 1005 758 653 735 312 121 167 204 253 370 769 875 991 1129 1246
104 67 91 76 44 23 100 120 37 6 0 18 47 74 157 804 828 654 383 27 164 162 126 24 4 5 5 3 25 433 711 521 750 325 246 141 288 173 153 264 439 521 578 650
19 141 59 106 43 104 90 58 62 83 99 138 57 406 361 539 490 499 452 180 185 165 104 7 5 4 5 4 3 3 3 2 2 6 8 5 22 60 6 0 0 102 220 268
67 369 192 113 90 90 83 11 22 55 60 90 158 197 313 405 425 438 441 418 143 61 0 3 3 5 4 2 0 1 1 0 0 0 0 1 2 4 5 0 0 0 16 147
205 263 170 164 170 94 10 0 0 5 57 55 197 243 378 429 247 123 101 186 148 102 45 0 2 1 1 1 3 0 0 0 0 0 0 0 0 0 0 0 0 0 7 36
1 82 102 5 121 127 37 0 0 0 49 45 163 252 247 235 604 431 44 41 19 6 6 11 1 0 0 0 0 0 0 0 0 0 0 0 0 0 0 0 0 0 0 3
64 51 87 87 23 10 0 0 0 38 63 15 182 283 252 358 70 95 25 3 0 1 3 2 1 0 0 0 0 0 0 0 0 0 0 0 0 0 0 0 0 0 0 1
37 45 45 22 25 1 0 0 6 18 0 13 149 263 237 85 21 44 14 1 0 0 1 0 0 0 0 0 0 0 0 0 0 0 0 0 0 0 0 0 0 0 0 0
289 21 183 2 58 43 26 1 0 0 0 0 69 155 204 88 53 32 12 0 0 0 0 0 0 0 0 0 0 0 0 0 0 0 0 0 0 0 0 0 0 0 0 0
93 16 113 21 13 13 24 0 0 0 0 0 5 146 176 129 67 42 24 2 1 1 0 0 0 0 0 0 0 0 0 0 0 0 0 0 0 0 0 0 0 0 0 0
0 1 7 11 1 54 42 23 0 0 0 0 1 75 158 173 119 92 62 24 0 0 0 0 0 0 0 0 0 0 0 0 0 0 0 0 0 0 0 0 0 0 0 0
0 0 0 0 0 0 0 0 10 0 0 0 0 3 52 131 159 133 122 77 20 0 0 0 0 0 0 0 0 0 0 0 0 0 0 0 0 0 0 0 0 0 0 0

GFSCGP_con_sbcape_099.txt.gz
CAPE
0 0 3 51 50 30 33 4 3 574 97 29 102 18 107 108 32 181 115 105 118 61 71 102 120 142 212 413 523 597 1772 1325 1365 1397 1047 1701 1554 1510 1316 2029 1688 1800 1774 1880
0 0 0 84 50 16 107 113 52 109 167 14 78 38 110 79 8 39 224 122 128 117 99 134 135 161 149 329 588 836 1519 1850 1918 1425 1944 1991 1463 1802 1727 2003 1690 1764 1671 1954
0 0 0 36 43 0 31 219 12 11 210 10 49 74 149 124 59 55 257 254 117 136 158 142 165 132 250 455 508 803 1135 1837 1592 1458 2128 1704 2050 2209 1598 2018 1771 1758 1691 1758
0 0 0 83 32 0 22 124 27 32 402 546 92 82 173 58 50 78 354 125 112 102 93 166 193 224 235 753 853 1084 1152 1684 1673 1215 2304 1235 1897 1806 1383 1365 1772 2257 1674 1562
0 0 0 0 0 17 2 1 370 242 247 282 196 93 145 101 35 4 413 192 77 163 174 252 233 308 248 647 900 1153 1387 1559 1605 1546 2000 1338 1329 1884 1302 1391 1977 1536 2064 1658
0 0 0 0 0 20 39 0 22 338 385 141 105 87 125 42 26 35 76 160 244 197 234 477 203 437 378 611 1213 1125 1671 1906 1579 1690 1570 1368 1194 1254 1998 1163 1806 1542 1893 1614
0 0 0 0 0 5 53 5 64 100 149 165 59 75 36 88 14 70 124 399 310 111 213 225 313 296 798 911 1258 1564 1858 1973 1757 1649 1368 1124 1324 1377 1346 1736 769 652 887 1294
0 0 0 0 1 0 12 42 99 119 86 101 146 130 58 39 32 53 235 493 771 540 164 251 572 449 862 1122 916 1272 1843 2158 1762 1552 1520 1375 1229 950 801 1222 2211 936 884 852
5 0 0 0 0 1 0 77 79 20 60 23 53 314 311 129 113 302 507 512 724 747 370 422 516 879 1309 1109 1349 1439 1949 2232 1793 1473 1566 1645 1527 1424 1481 1387 1473 1377 1790 1855
46 39 5 0 0 0 0 20 113 85 101 68 76 133 150 456 526 572 616 930 979 872 941 578 1064 1036 720 454 1545 904 812 1402 1684 1575 1438 1579 1477 1275 1012 1073 1234 1390 976 1395
40 38 24 0 0 0 0 0 34 93 88 89 158 265 336 747 916 983 1055 1125 994 1071 1217 1545 1300 1235 1446 1203 1054 824 1346 1387 1534 1582 1540 1907 1391 1623 1426 965 836 1057 1145 1466
14 43 19 5 0 0 0 0 0 26 105 69 31 336 458 844 1087 1264 1266 1283 1511 1681 1604 1380 1208 1501 1153 1047 219 418 207 306 203 960 1253 1418 961 1163 1397 914 907 916 1273 1352
62 31 66 42 20 0 0 0 0 4 19 78 93 437 644 1216 1002 1092 990 781 970 891 1112 1221 1243 1427 1606 988 608 548 325 211 188 222 1176 898 1072 1158 1414 1544 1059 1013 1029 1427
14 55 40 125 49 15 0 0 0 4 30 7 47 739 966 1179 1129 988 817 555 398 366 361 500 716 1037 1177 1228 1117 785 530 374 560 694 233 296 265 341 589 682 790 1098 1691 1345
47 104 114 55 59 54 9 0 2 4 33 81 76 263 827 1164 1104 1029 749 509 347 398 320 133 173 267 547 1078 1149 936 663 650 823 655 672 573 209 244 335 365 843 988 1758 1285
210 223 156 128 15 39 47 42 20 2 0 14 40 295 33 1002 1299 1082 884 815 748 496 429 230 17 21 9 132 1217 1549 1348 825 976 1013 895 670 664 841 776 713 672 761 903 1076
124 155 251 101 92 63 103 116 72 55 68 65 212 468 341 852 1145 1198 931 718 643 513 289 143 62 19 7 5 6 127 512 1105 1022 745 530 573 436 364 424 392 308 194 294 835
89 44 21 278 176 125 108 61 90 167 163 141 331 374 505 660 874 989 904 873 697 357 236 159 19 5 5 3 4 4 2 14 77 30 11 8 30 50 44 104 13 1 57 350
37 59 381 135 5 80 119 83 100 120 189 163 334 351 529 697 924 867 814 782 585 325 247 114 6 4 4 2 0 0 3 4 0 2 1 0 0 2 2 4 94 79 333 293
26 96 318 286 33 326 5 1 1 6 318 131 190 439 655 687 896 884 578 510 451 258 55 5 6 1 0 0 0 0 0 0 0 0 0 0 0 0 0 3 2 5 3 82
171 207 197 256 88 28 51 0 1 53 190 164 246 310 547 813 842 576 548 334 220 123 29 1 1 0 0 0 0 0 0 0 0 0 0 0 0 0 0 0 0 0 1 14
373 358 295 280 131 187 3 0 46 235 99 152 300 425 528 401 378 439 391 218 178 68 7 10 8 0 0 0 0 0 0 0 0 0 0 0 0 0 0 0 0 0 0 0
342 228 466 296 570 237 111 304 157 111 103 73 154 253 385 294 349 386 349 170 91 40 5 2 0 0 0 0 0 0 0 0 0 0 0 0 0 0 0 0 0 0 0 0
103 391 229 249 174 28 9 7 13 17 6 0 40 134 209 221 311 390 322 212 114 42 4 2 1 0 0 0 0 0 0 0 0 0 0 0 0 0 0 0 0 0 0 0
57 294 90 205 237 129 67 25 12 0 0 0 0 51 147 234 274 381 358 301 206 98 25 3 0 0 0 0 0 0 0 0 0 0 0 0 0 0 0 0 0 0 0 0
50 20 19 59 83 142 36 60 6 0 0 0 0 0 107 257 330 332 378 357 279 192 48 8 3 1 0 0 0 0 0 0 0 0 0 0 0 0 0 0 0 0 0 0

GFSCGP_con_sbcape_102.txt.gz
CAPE
0 0 0 13 92 150 0 249 344 0 20 66 62 9 25 141 171 138 59 70 89 71 36 55 113 171 192 396 895 1119 1114 2020 1418 1911 1033 1534 1531 1566 1907 1369 2841 2991 2621 2338
0 0 0 2 130 385 74 54 95 0 0 56 43 26 23 90 69 54 106 17 110 69 58 81 89 135 82 479 945 1926 2298 2454 2332 2243 2325 1811 1076 2048 2022 2554 2857 2499 2095 2783
0 0 0 0 10 36 148 130 3 1 0 9 55 77 188 117 84 48 32 30 133 97 49 107 121 63 210 754 1163 1229 1273 2718 2517 2196 1066 1813 493 1972 1006 2279 2583 2446 2094 2564
0 0 0 0 4 82 268 54 2 3 0 49 108 61 115 33 48 10 14 26 125 75 136 174 103 82 83 489 909 1993 2007 2403 1885 954 1354 1982 1797 380 1505 1750 667 981 2771 2305
0 0 0 0 10 145 5 152 102 30 0 25 83 83 44 127 27 3 8 36 108 107 133 55 105 61 269 345 523 1240 2295 2660 2486 2608 1966 2239 1924 1849 1545 1324 838 1096 2247 2595
0 0 0 0 3 8 3 131 105 17 3 98 137 159 130 125 86 62 7 56 143 122 63 55 125 87 637 562 825 1396 2339 2706 2903 2598 2507 2227 1800 1500 1547 306 1169 1210 1969 2367
0 0 0 0 0 1 89 81 128 176 101 132 117 107 204 117 80 56 15 96 124 206 161 162 122 177 442 808 1021 1519 2267 2429 2515 2170 2080 1947 2089 1538 1932 2622 909 1554 462 218
0 0 0 0 0 1 88 152 14 71 107 205 117 112 258 92 8 0 64 108 139 140 221 219 202 19 702 1189 1497 1431 2165 2553 2381 2018 2433 2631 3015 1877 1867 2532 1527 322 355 127
19 0 0 0 0 0 58 10 27 17 13 121 122 148 246 9 1 7 59 117 42 30 51 195 111 272 73 12 827 1180 2069 2018 2402 2043 2557 2432 2059 2214 1924 1906 2727 2048 294 58
5 1 0 0 0 0 5 23 7 114 54 79 104 65 144 131 104 110 141 108 0 12 82 91 96 13 0 0 195 1212 2327 2014 2067 1515 2071 2095 2137 2528 2145 2366 1699 1395 18 0
0 11 12 10 0 0 0 0 0 20 198 27 137 179 286 435 254 333 501 484 314 742 436 166 105 536 0 0 1032 1435 1667 1754 2024 1489 1058 1951 1603 1861 2013 2154 2105 1760 158 0
8 32 21 12 1 0 0 1 2 23 33 31 37 224 185 204 599 611 1103 865 1584 936 545 86 94 25 834 867 1521 1051 743 847 1117 1006 1341 1430 822 1094 1555 740 279 1471 1720 2078
0 0 0 17 9 0 0 0 0 0 0 53 53 321 249 9 1181 1565 1769 1842 1523 2145 1424 908 1023 1447 1831 1572 1215 1109 656 577 236 750 672 687 1440 1186 1511 1499 378 321 1418 2221
0 0 0 34 68 38 1 0 0 0 1 0 0 457 908 1018 1479 1069 1268 1461 1128 1294 1356 1611 1550 1661 1435 1669 1283 837 700 408 340 224 318 522 565 624 368 584 820 1154 1222 1093
0 20 53 22 0 17 6 0 0 1 0 29 141 610 479 702 1213 1047 736 726 741 624 511 927 545 668 1347 1645 1496 1406 1081 797 349 389 447 419 419 67 121 286 244 635 416 722
52 122 145 53 14 21 15 12 0 0 1 22 102 740 354 209 304 746 582 440 519 497 463 290 212 355 171 599 1376 1201 1019 736 931 925 677 717 790 664 560 315 275 172 170 445
179 254 192 300 231 125 49 122 94 11 0 14 818 671 125 0 56 1131 798 691 719 469 343 261 121 47 5 5 165 266 1389 1365 1355 1392 1235 985 707 1026 626 512 429 371 195 148
129 252 48 177 57 112 67 39 38 173 61 868 730 318 318 478 1196 1153 1037 832 587 410 239 147 21 4 3 3 4 1 1 157 199 163 558 492 577 359 239 212 119 71 154 99
66 207 151 86 4 1 137 52 30 224 284 245 347 361 660 894 1099 1104 1006 875 527 378 306 102 7 3 3 1 1 1 1 2 1 1 0 3 24 11 4 35 198 131 127 21
193 345 321 140 146 91 51 0 0 23 43 106 39 455 606 685 782 1050 680 558 451 56 0 0 2 2 0 0 0 0 2 0 0 0 0 0 0 0 0 0 0 11 135 368
99 156 19 0 24 12 8 6 18 6 90 59 285 511 854 1074 1042 799 473 360 310 215 3 1 0 0 0 0 0 0 0 0 0 0 0 0 0 0 0 0 0 0 0 170
394 280 308 485 186 160 23 18 48 468 117 292 499 688 672 578 938 748 403 274 177 29 0 2 0 0 0 0 0 0 0 0 0 0 0 0 0 0 0 0 0 0 0 0
240 407 502 421 547 446 296 655 456 301 214 164 296 277 511 405 561 617 370 320 81 23 8 6 0 0 0 0 0 0 0 0 0 0 0 0 0 0 0 0 0 0 0 0
68 231 259 261 568 158 17 63 53 34 11 9 64 134 194 332 379 519 458 279 211 68 6 1 0 0 0 0 0 0 0 0 0 0 0 0 0 0 0 0 0 0 0 0
205 269 1 107 238 82 18 0 6 1 0 0 0 31 167 261 371 517 573 582 304 193 95 24 17 0 0 0 0 0 0 0 0 0 0 0 0 0 0 0 0 0 0 0
11 33 46 62 432 805 97 103 31 1 0 0 0 0 64 152 239 410 686 552 276 259 179 195 151 46 4 6 0 0 0 0 0 0 0 0 0 0 0 0 0 0 0 0

GFSCGP_con_sbcape_105.txt.gz
CAPE
0 0 0 0 0 0 157 225 4 19 5 2 117 128 101 96 111 98 62 35 13 1 3 30 6 7 0 2 62 720 409 558 228 291 726 638 279 734 1031 1061 1722 1354 1540 1744
0 0 0 0 77 184 48 5 27 13 0 0 5 108 49 49 63 58 48 71 30 8 4 31 15 16 1 90 136 643 680 413 843 761 1001 818 306 1066 1059 1244 1539 1626 1131 1412
0 0 0 0 191 140 153 143 41 27 6 0 8 37 36 54 75 73 55 28 69 25 17 17 14 10 10 196 638 786 1069 984 959 697 669 517 569 835 410 920 917 1081 1633 1478
0 0 0 0 77 150 188 157 25 14 0 0 20 21 71 44 26 39 33 15 68 22 33 23 36 45 67 133 378 653 1030 923 923 980 194 603 343 223 564 539 516 415 850 1478
0 0 0 0 0 249 282 137 47 2 0 0 41 95 55 13 12 19 27 7 40 36 18 33 31 26 94 329 243 370 642 859 865 487 696 611 418 379 619 625 478 36 401 1294
0 0 0 0 24 246 208 105 45 30 12 0 31 61 76 5 0 0 0 1 17 83 85 28 75 46 196 273 761 484 709 713 1022 635 638 528 549 423 241 269 486 739 669 718
0 0 0 0 77 311 215 140 58 27 0 0 0 24 26 79 82 2 0 7 23 70 77 81 63 41 77 117 437 1008 925 976 1156 834 563 459 778 592 282 97 218 764 375 100
0 0 0 0 0 156 258 105 20 29 52 35 79 77 40 37 45 62 4 9 53 48 73 76 11 44 153 237 534 678 1083 1269 957 1306 1025 831 921 816 810 880 200 192 103 318
0 2 4 0 0 0 10 51 52 34 0 2 55 37 32 142 87 22 5 28 31 28 73 91 126 83 343 155 842 1259 1255 1221 1349 928 1160 681 1048 830 864 864 450 539 454 297
0 0 0 3 0 0 0 10 0 53 9 2 100 69 147 19 55 27 0 6 41 27 62 86 177 149 194 15 159 687 1364 1427 1362 1092 1320 1106 958 1113 982 716 117 101 14 20
8 0 0 11 4 0 0 0 2 38 0 34 67 72 64 71 50 85 53 19 1 0 9 56 129 103 62 35 53 224 232 1159 1310 1251 971 969 905 929 872 771 598 44 0 0
0 0 0 0 13 0 0 0 0 0 0 4 1 370 495 340 163 59 73 74 26 7 19 106 99 44 18 1 33 35 78 518 973 1013 425 553 665 65 639 173 147 235 204 79
0 0 0 0 2 4 0 0 0 0 0 0 7 210 166 285 221 106 521 105 72 0 27 73 112 49 50 14 25 310 372 686 667 436 476 211 42 118 564 345 26 156 647 761
0 0 0 0 0 0 9 0 0 0 0 0 0 368 189 41 0 848 721 653 592 110 103 73 74 100 30 115 579 568 410 199 155 149 142 100 218 174 274 317 310 329 212 247
0 0 0 13 42 0 0 1 11 0 0 0 486 496 233 238 620 428 370 407 339 486 534 290 160 350 123 297 422 291 361 222 185 113 159 151 115 23 33 27 20 22 31 96
12 20 241 115 85 103 57 76 89 33 0 786 884 442 211 286 134 316 198 250 309 249 175 177 136 85 1 172 461 626 628 376 316 356 296 380 236 100 111 149 56 27 23 3
115 150 112 178 12 97 193 3 78 165 104 279 649 481 13 0 0 39 257 243 424 277 49 58 18 1 2 1 2 46 522 602 563 575 574 468 358 271 363 350 211 22 1 31
119 170 80 94 144 237 33 0 3 96 107 26 188 31 0 0 0 0 386 474 365 200 149 0 1 2 3 1 0 0 82 314 331 588 471 408 243 109 85 44 19 0 2 11
104 170 188 61 32 64 102 27 0 4 0 31 33 393 396 320 683 561 448 229 235 212 17 0 0 2 1 3 1 1 0 0 0 0 1 10 15 0 2 0 13 19 16 7
393 421 237 3 28 24 27 19 0 0 56 1 101 139 498 583 382 459 134 147 7 0 0 0 0 0 0 0 0 0 0 0 0 0 0 0 0 0 0 0 0 0 0 1
146 56 153 126 100 23 29 2 0 102 111 3 58 0 2 0 156 236 99 19 0 0 0 0 0 0 0 0 0 0 0 0 0 0 0 0 0 0 0 0 0 0 0 0
280 9 105 0 0 6 35 4 0 76 88 101 486 191 387 171 325 363 173 191 6 0 0 0 0 0 0 0 0 0 0 0 0 0 0 0 0 0 0 0 0 0 0 0
319 261 307 36 0 0 26 198 274 135 3 3 14 398 245 420 397 354 253 86 26 0 0 0 0 0 0 0 0 0 0 0 0 0 0 0 0 0 0 0 0 0 0 0
338 262 275 233 148 236 273 15 26 4 0 0 0 2 286 446 440 293 163 90 38 2 0 0 0 0 0 0 0 0 0 0 0 0 0 0 0 0 0 0 0 0 0 0
241 98 4 438 272 68 49 18 0 0 0 0 0 0 5 283 545 433 285 101 28 1 0 0 0 0 0 0 0 0 0 0 0 0 0 0 0 0 0 0 0 0 0 0
26 84 0 212 331 126 48 31 12 0 0 0 0 0 0 11 531 312 93 25 18 18 5 3 0 0 0 0 0 0 0 0 0 0 0 0 0 0 0 0 0 0 0 0

GFSCGP_con_sbcape_108.txt.gz
CAPE
0 0 0 0 0 0 177 77 2 11 0 5 9 0 46 114 74 42 0 8 3 17 3 33 143 62 74 33 66 0 69 156 51 391 459 68 369 766 826 1113 1276 864 1095 1353
0 0 0 0 0 3 93 50 28 3 0 2 7 0 0 80 61 25 45 4 9 39 18 34 14 24 3 30 132 100 67 154 172 421 583 456 384 786 572 620 1162 1369 839 1059
0 0 0 0 0 173 72 154 31 17 6 16 1 0 0 93 90 59 33 33 57 0 15 2 0 0 4 92 291 186 146 194 569 461 229 175 393 433 564 721 753 779 1137 1091
0 0 0 0 3 248 225 191 85 7 0 0 2 10 58 53 25 24 69 18 43 18 15 0 2 0 74 104 222 198 221 416 378 248 277 194 205 318 328 368 345 463 63 884
0 0 0 0 0 342 253 161 51 18 0 2 6 1 25 32 17 9 7 24 24 24 5 12 10 0 75 171 233 313 313 423 494 243 223 239 142 111 384 281 291 91 125 697
0 0 0 0 149 416 194 119 52 11 0 5 4 0 4 33 5 2 12 50 47 31 3 27 20 15 43 81 249 278 250 325 392 285 335 347 184 265 294 217 408 378 466 425
0 0 0 644 422 319 184 96 51 51 3 2 9 6 16 40 3 20 3 20 58 107 104 35 1 6 43 58 139 259 167 237 408 292 355 280 357 228 171 91 155 376 439 253
0 0 0 257 447 423 197 54 40 34 17 64 50 32 48 25 14 14 1 36 68 124 93 77 1 37 77 264 193 254 201 207 513 245 227 196 350 270 208 45 108 377 186 43
0 0 0 0 338 343 232 89 10 7 2 21 55 33 6 0 44 23 14 14 50 101 127 111 18 73 86 170 426 445 338 354 382 365 286 340 313 366 446 512 108 74 142 223
0 0 0 0 2 198 245 79 45 0 35 31 1 1 0 0 1 10 15 7 60 51 92 137 99 217 186 76 20 500 523 593 532 560 462 232 550 340 364 302 248 331 305 123
0 0 0 0 0 0 0 0 0 0 0 53 41 42 0 0 0 70 9 8 35 27 33 166 182 299 266 252 269 63 155 787 836 486 674 433 633 523 320 147 104 97 10 0
0 0 0 0 0 0 0 0 0 0 0 4 19 30 65 17 0 24 23 3 7 20 56 178 122 41 90 73 47 118 34 264 804 498 627 755 522 411 423 277 196 0 0 0
0 0 0 0 0 0 0 0 0 0 0 0 2 41 62 70 7 1 0 34 38 27 93 145 96 6 27 11 38 50 23 6 502 402 475 365 178 53 302 98 40 85 212 214
0 0 0 0 0 0 0 0 0 0 0 0 0 23 95 3 343 355 212 164 191 48 100 128 107 53 24 73 38 36 161 285 274 216 363 203 54 20 243 130 23 25 163 98
0 0 0 0 26 77 59 15 14 3 0 0 0 28 6 94 634 471 486 555 459 33 81 129 96 71 60 82 421 170 331 223 127 124 97 161 120 94 80 36 37 20 27 62
0 1 28 89 18 38 44 0 71 65 10 665 424 284 157 456 350 380 452 628 567 145 154 156 99 119 89 154 102 258 179 146 95 89 46 87 65 30 20 61 66 6 33 13
89 15 1 76 0 25 26 0 29 66 27 24 351 211 40 241 387 181 359 523 509 455 326 138 82 117 81 57 176 15 166 142 124 127 229 284 172 154 168 196 146 51 21 38
33 0 0 1 0 99 2 0 0 27 1 92 275 145 0 0 0 179 312 354 192 96 24 2 1 2 2 1 1 19 23 139 177 222 279 286 229 195 104 34 4 0 11 3
1 0 0 0 2 6 25 3 0 0 0 40 315 312 311 289 344 209 169 130 72 0 0 3 2 3 3 6 4 1 1 1 49 166 266 213 122 67 4 1 0 0 0 0
0 0 0 0 1 14 0 0 0 0 0 1 59 8 139 444 274 189 2 0 0 0 0 0 2 2 3 1 1 1 0 0 0 0 0 0 0 0 0 0 0 0 0 0
0 0 0 0 0 0 0 0 0 14 0 59 4 0 117 81 114 54 3 1 0 0 0 0 0 0 0 2 0 0 1 0 0 0 0 0 0 0 0 0 0 0 0 0
65 0 3 0 0 0 0 4 0 0 42 74 16 13 0 0 0 55 4 0 0 0 0 0 0 0 0 0 0 0 0 0 0 0 0 0 0 0 0 0 0 0 0 0
78 17 0 45 17 0 0 34 6 2 644 235 192 423 6 0 17 87 22 0 0 0 0 0 0 0 0 0 0 0 0 0 0 0 0 0 0 0 0 0 0 0 0 0
17 0 142 6 58 55 74 0 0 0 0 0 7 243 540 335 191 104 55 13 0 0 0 0 0 0 0 0 0 0 0 0 0 0 0 0 0 0 0 0 0 0 0 0
0 0 0 15 22 91 2 0 0 0 0 0 0 6 295 373 246 110 79 86 9 0 0 0 0 0 0 0 0 0 0 0 0 0 0 0 0 0 0 0 0 0 0 0
0 0 27 55 10 0 0 0 0 0 0 0 0 0 4 332 223 147 72 23 0 0 0 0 0 0 0 0 0 0 0 0 0 0 0 0 0 0 0 0 0 0 0 0

GFSCGP_con_sbcape_111.txt.gz
CAPE
0 0 0 0 0 0 170 128 77 15 18 27 26 4 15 66 94 29 1 0 0 0 33 80 115 42 0 0 0 0 238 129 144 210 106 124 374 455 458 866 678 900 823 1144
0 0 0 0 0 4 225 120 38 18 10 13 28 14 1 0 91 83 3 0 0 0 27 144 80 54 10 0 0 0 164 59 131 223 135 203 357 530 368 508 773 912 782 949
0 0 0 0 0 283 157 113 51 32 10 6 2 5 44 3 78 92 73 3 1 0 11 112 64 47 19 0 5 5 61 0 171 280 185 237 282 262 452 655 651 616 1039 1161
0 0 0 0 0 238 149 275 184 48 10 2 1 0 33 0 19 62 87 32 1 0 20 105 55 42 44 34 64 0 52 136 224 150 178 261 221 285 222 208 217 432 70 819
0 0 0 0 0 319 283 270 166 35 0 0 13 0 4 17 0 19 73 11 3 0 14 79 41 39 35 94 123 0 66 239 165 143 137 105 109 66 166 173 193 149 1 572
0 0 0 0 154 189 218 126 91 12 0 0 18 9 0 7 2 0 34 52 36 16 21 46 55 18 51 44 138 94 96 230 152 79 124 126 127 140 248 174 236 145 162 357
0 0 811 643 528 361 163 20 1 13 0 5 3 2 0 0 19 13 23 34 30 54 11 32 39 1 57 104 187 153 87 149 172 122 158 177 118 116 152 154 145 210 231 189
0 0 859 853 621 491 236 2 0 0 5 17 33 13 9 9 0 0 0 8 59 89 2 34 54 16 69 118 168 204 72 53 164 91 173 176 181 152 124 86 24 140 206 114
0 0 0 750 741 550 429 125 0 15 0 2 15 55 8 0 0 1 19 5 13 23 52 56 61 60 61 42 145 185 74 0 162 122 87 65 207 175 190 136 48 59 131 69
0 0 0 0 519 441 263 101 123 16 57 32 0 29 3 5 32 87 34 5 2 2 94 55 28 108 102 138 132 154 131 25 155 236 62 73 128 175 216 259 215 66 98 179
0 0 0 0 1 167 24 20 0 2 0 40 11 17 15 0 1 112 48 8 2 57 62 86 17 165 162 221 238 309 244 216 295 330 217 214 230 189 196 228 198 137 78 14
0 0 0 0 0 0 0 0 0 1 0 0 0 2 54 0 0 40 52 0 0 28 75 104 160 233 237 251 249 253 177 486 499 310 397 304 301 298 248 177 101 43 0 0
0 0 0 10 9 9 0 0 0 0 0 0 0 0 31 9 0 16 25 4 13 11 67 117 143 162 200 197 98 108 81 67 156 222 207 208 248 256 141 112 134 81 12 0
2 0 0 0 0 0 28 13 0 0 0 0 0 0 16 54 152 0 10 3 5 64 64 61 105 42 41 26 11 18 22 29 123 246 402 326 218 210 125 144 24 22 67 38
0 0 0 0 38 38 55 93 52 1 0 0 0 0 1 206 404 183 107 75 33 39 83 103 110 66 31 18 0 6 76 131 167 284 112 177 252 267 167 134 37 29 16 19
0 17 10 45 27 29 2 11 49 10 20 3 134 253 398 554 645 612 484 296 41 46 41 65 106 96 49 59 140 78 145 178 142 127 184 166 162 135 92 27 20 20 0 1
32 4 1 89 0 0 0 0 2 6 77 48 117 29 25 52 232 186 427 364 265 96 169 129 127 117 85 73 128 213 132 75 56 59 44 60 25 60 30 39 58 30 14 23
4 0 0 0 0 0 0 0 0 0 0 174 283 45 12 187 229 179 198 168 82 8 6 4 1 1 1 1 17 9 71 131 70 64 47 105 84 142 223 179 88 14 17 0
0 0 0 0 0 0 23 0 0 0 0 66 270 150 412 398 283 77 22 2 2 3 3 4 3 1 1 4 2 7 1 45 100 115 166 128 157 93 33 1 0 0 1 0
0 0 0 0 0 3 0 0 0 0 0 66 196 430 504 171 189 160 3 1 1 1 0 2 3 2 2 5 1 1 2 9 43 37 77 57 52 4 0 0 0 0 0 0
0 0 0 0 0 0 0 0 0 15 0 81 136 336 287 244 118 19 0 0 0 0 0 0 0 2 5 8 0 1 1 2 8 10 5 3 1 0 0 0 0 1 0 0
3 0 0 0 0 0 0 0 0 0 145 82 43 152 62 156 103 1 0 0 0 0 0 0 0 0 0 0 0 0 2 8 8 12 10 4 1 0 0 0 0 0 0 0
62 0 0 0 0 0 0 0 0 24 204 148 179 3 0 8 122 22 1 0 0 0 0 0 0 0 0 0 0 0 0 0 0 0 0 0 0 0 0 0 0 0 0 0
0 0 13 0 0 0 0 0 0 25 64 41 218 1 0 79 162 18 0 0 0 0 0 0 0 0 0 0 0 0 0 0 0 0 0 0 0 0 0 0 0 0 0 0
3 0 1 0 2 3 1 0 0 0 0 24 249 347 450 312 141 1 0 0 0 0 0 0 0 0 0 0 0 0 0 0 0 0 0 0 0 0 0 0 0 0 0 0
0 0 26 9 0 0 0 0 0 0 0 2 11 23 352 391 158 33 2 0 0 0 0 0 0 0 0 0 0 0 0 0 0 0 0 0 0 0 0 0 0 0 0 0

GFSCGP_con_sbcape_114.txt.gz
CAPE
0 0 0 0 0 0 60 110 37 37 51 25 5 1 26 0 41 11 1 0 0 33 46 53 36 8 0 0 0 0 153 154 150 71 103 178 255 300 282 462 630 577 578 1019
0 0 0 0 0 0 155 118 67 22 15 0 2 3 12 0 2 44 12 0 3 12 24 61 39 30 14 0 0 0 111 85 117 88 11 142 201 334 366 468 732 689 691 882
0 0 0 0 10 114 182 73 45 47 23 1 0 0 2 12 7 53 40 0 0 17 36 74 56 20 9 0 0 0 13 30 117 123 130 197 250 286 364 513 572 706 850 851
0 0 0 0 0 7 151 144 104 71 13 1 0 0 0 2 30 61 66 0 0 0 52 89 91 36 11 0 0 0 0 0 71 128 158 264 263 286 208 384 294 515 158 724
0 0 0 0 0 13 11 292 121 63 0 5 12 0 0 14 1 0 24 10 0 0 29 97 109 78 26 0 0 0 0 0 89 50 106 117 115 78 114 147 213 226 26 509
0 0 0 0 77 76 351 187 56 10 0 0 11 0 0 5 0 0 1 9 1 0 8 98 127 92 38 11 5 0 0 38 68 11 10 69 92 81 163 135 162 163 114 259
0 0 384 481 465 377 255 38 16 44 0 2 0 0 0 28 0 0 8 20 1 0 4 47 71 34 27 88 87 0 29 82 67 0 17 14 44 55 152 144 167 206 173 241
0 0 573 598 521 490 202 16 13 23 0 1 39 0 0 0 5 0 14 37 16 0 1 11 14 22 52 93 135 120 0 82 118 58 45 42 23 31 50 94 128 166 190 194
0 0 0 556 646 502 415 243 4 44 0 6 38 8 0 0 0 0 24 29 19 31 0 0 9 30 63 107 129 137 83 26 88 89 52 70 90 63 71 82 36 37 146 136
0 0 0 1 644 601 448 228 167 25 51 47 4 4 0 0 0 1 18 24 18 26 0 7 23 23 32 94 143 137 116 38 38 97 44 52 58 109 67 141 138 115 84 90
0 0 0 0 93 547 9 228 0 1 0 15 7 0 0 0 0 24 23 32 18 5 33 10 6 21 16 63 94 150 130 73 74 145 79 88 55 69 86 155 108 71 116 147
0 0 0 0 0 0 1 108 3 0 0 0 0 0 32 4 0 35 32 40 25 29 9 27 17 65 34 132 118 124 153 148 164 210 181 146 129 196 172 131 103 3 3 1
0 0 0 6 0 6 0 11 0 0 0 0 0 0 137 27 17 60 53 23 26 18 21 26 64 72 117 166 229 233 210 219 276 241 266 205 203 212 219 146 76 0 0 0
0 0 0 0 0 0 98 113 51 0 0 0 0 0 89 147 81 92 81 58 32 11 45 93 136 144 114 104 197 190 149 197 223 240 200 219 195 211 99 78 75 55 0 0
0 0 0 0 27 52 13 32 113 1 0 0 7 96 267 319 412 69 27 32 46 38 82 80 119 121 74 45 56 56 48 68 155 204 270 185 146 186 165 113 70 93 79 11
0 14 49 63 11 54 0 0 67 83 246 25 39 305 477 418 624 511 205 61 95 88 103 90 67 82 57 116 88 39 85 74 144 187 79 91 148 109 155 137 90 79 69 25
52 80 4 0 0 5 0 0 4 18 123 82 211 77 201 236 257 296 446 225 101 200 135 109 82 96 65 69 63 33 93 122 95 71 77 69 104 101 123 85 48 34 17 12
28 8 2 0 0 6 0 0 0 1 2 150 421 269 424 274 192 175 189 209 198 134 67 9 9 7 2 2 119 90 72 65 19 15 41 42 44 33 26 41 67 41 20 2
0 0 0 0 0 0 102 55 0 0 7 57 300 336 628 423 141 84 23 3 7 4 3 4 3 2 1 1 2 17 66 74 55 11 18 40 28 53 69 83 41 3 1 0
0 0 0 0 0 0 0 0 0 0 7 53 292 499 733 139 152 325 4 3 2 1 1 2 3 5 1 4 2 14 29 66 54 21 22 41 48 75 10 1 2 5 0 0
0 0 0 0 0 0 0 0 1 3 0 160 514 582 330 215 160 140 2 1 1 0 0 0 0 1 2 2 2 2 1 1 2 2 1 1 1 1 1 2 3 4 0 0
0 0 0 0 0 0 0 0 29 2 100 196 215 230 156 149 27 2 0 0 0 0 0 0 0 0 1 3 0 0 1 1 2 4 1 0 0 4 3 0 0 2 3 0
2 0 0 0 0 0 0 0 0 1 177 79 200 0 211 80 25 0 0 0 0 0 0 0 0 0 0 0 0 1 2 0 0 0 2 4 2 4 1 0 0 0 0 0
0 0 0 0 0 0 0 0 0 224 198 109 46 0 2 131 8 0 0 0 0 0 0 0 0 0 0 0 0 0 0 0 0 0 0 0 1 0 0 0 0 0 0 0
0 0 0 0 0 0 0 0 0 2 90 286 28 11 92 84 0 0 0 0 0 0 0 0 0 0 0 0 0 0 0 0 0 0 0 0 0 0 0 0 0 0 0 0
0 0 3 0 0 0 0 0 0 109 239 319 275 483 309 72 6 0 0 0 0 0 0 0 0 0 0 0 0 0 0 0 0 0 0 0 0 0 0 0 0 0 0 0

GFSCGP_con_sbcape_117.txt.gz
CAPE
0 0 0 0 0 0 0 71 139 148 113 61 0 0 16 9 87 84 94 82 141 187 193 251 340 322 308 406 487 593 751 968 1075 1204 1267 1284 2044 1494 1473 1142 2027 1670 2110 2208
0 0 0 0 0 0 0 43 226 98 86 46 31 0 5 0 21 50 3 9 117 151 158 214 315 275 336 404 494 664 839 1120 1219 1112 1217 1252 1474 1429 1394 1905 2154 2118 1980 2258
0 0 0 0 0 0 23 0 168 151 97 33 34 0 0 11 8 80 80 51 29 84 175 231 288 255 337 354 470 654 1032 1219 1187 1080 1090 1364 1439 1921 1596 1851 1921 2081 1986 2167
0 0 0 0 0 0 0 94 161 226 151 101 48 56 0 8 37 36 65 129 42 19 149 238 277 260 297 324 406 585 905 1131 1076 1073 1213 1640 1277 1163 1971 2472 2393 1978 2070 2087
0 0 0 0 0 0 0 309 332 277 149 116 87 123 20 0 8 7 6 29 106 7 38 156 266 284 276 257 305 408 769 938 958 1124 1241 1015 1821 1173 1535 1564 1869 1836 1666 1895
0 0 0 0 19 0 357 343 254 198 211 200 110 92 56 25 0 8 10 0 32 38 11 86 200 266 261 214 236 237 533 928 1000 1178 1148 1342 1568 1539 1266 1641 1360 1666 1454 1369
0 0 9 159 235 350 468 441 186 190 285 106 213 143 90 29 0 8 0 0 39 23 0 56 183 264 253 194 232 248 343 711 854 997 1015 1122 1260 1356 1420 1615 2241 1532 2137 1657
0 0 131 282 203 339 459 104 0 4 137 191 229 177 124 22 4 0 0 0 116 16 0 17 172 207 236 205 283 248 267 525 833 874 1015 1096 1167 910 975 1327 1499 1222 1161 1208
0 0 0 458 553 575 607 455 129 354 274 305 377 259 140 93 15 9 0 12 82 3 0 18 134 98 310 262 330 302 314 464 804 812 1025 1075 1112 1059 991 1195 1125 1074 1233 1109
0 0 0 5 613 524 712 423 440 492 141 100 284 285 281 220 106 20 33 60 81 53 9 35 117 124 216 302 413 431 441 507 605 813 960 959 1000 1260 1215 1214 1318 1281 1014 1056
0 0 1 0 154 267 497 530 396 418 447 194 158 81 176 199 186 142 52 81 66 75 17 35 47 56 150 315 386 572 673 701 622 773 905 968 928 978 1240 1283 1446 1496 1173 1067
0 0 7 7 0 0 291 446 435 423 171 410 352 40 382 143 139 244 227 141 86 82 16 39 46 40 124 252 370 507 686 717 741 752 1038 1037 1054 1110 1162 1354 1327 1137 1183 967
0 0 0 39 36 47 116 355 89 0 8 319 157 1 317 309 141 271 327 296 201 146 99 110 66 49 123 277 362 518 655 775 798 816 1000 1066 1010 1140 1270 1337 1237 1036 1049 891
0 0 0 23 92 100 426 396 507 26 25 134 47 16 32 509 592 295 311 266 211 172 202 327 180 40 79 493 548 512 663 427 876 886 989 1093 1202 1285 1341 1313 788 591 664 751
0 4 0 20 181 228 201 286 572 318 392 0 12 374 701 713 729 668 349 291 270 242 253 320 457 366 158 157 538 845 430 411 853 965 1074 1254 1566 1197 1236 761 731 410 420 453
30 99 159 271 263 131 258 74 495 714 756 735 577 682 633 652 924 684 420 360 344 363 330 350 351 247 143 133 244 276 601 374 511 1057 1217 1294 974 595 781 595 615 483 306 191
212 379 337 218 202 125 85 72 52 530 673 713 782 745 514 622 708 708 565 454 473 378 386 394 299 122 72 22 74 104 193 274 365 613 659 517 244 430 208 189 305 360 141 69
192 355 449 352 277 65 57 116 194 280 350 687 847 643 632 457 324 252 473 365 316 185 179 240 273 103 106 165 166 71 90 140 123 64 93 95 56 26 93 112 134 133 99 76
2 266 319 336 273 66 217 164 110 101 189 462 840 766 658 409 211 216 89 70 43 21 8 5 5 5 15 78 442 308 297 228 222 97 178 80 68 51 18 5 51 82 126 17
0 2 276 114 126 38 156 98 47 23 217 328 1023 837 947 726 443 271 20 25 6 5 6 4 4 4 3 2 1 124 191 238 194 63 47 53 37 102 127 92 24 2 2 2
60 86 187 198 210 33 3 12 52 195 222 601 1095 824 1156 834 678 150 6 6 2 4 3 2 2 2 4 5 3 2 5 2 4 1 2 3 1 3 9 3 4 3 2 6
155 286 362 5 165 16 0 2 242 103 384 808 1123 772 594 108 78 46 4 6 4 3 1 1 2 3 3 3 1 2 3 3 3 3 2 3 1 1 0 1 2 3 3 6
310 73 441 174 134 0 0 11 15 38 752 716 954 608 185 209 119 51 13 29 15 2 1 0 0 0 0 0 1 0 1 2 4 6 6 4 7 2 1 1 2 4 8 3
2 0 257 52 84 54 36 42 15 420 613 815 852 667 449 243 133 136 60 39 2 1 0 0 0 0 0 0 0 0 0 0 0 0 1 0 0 0 1 0 5 4 7 6
30 19 194 107 75 187 138 131 106 417 747 550 562 602 509 285 156 75 75 50 2 0 0 0 0 0 0 0 0 0 0 0 0 0 0 0 0 0 0 1 3 0 0 0
3 230 245 4 450 535 487 67 348 978 1080 676 503 543 557 353 129 16 1 0 0 0 0 0 0 0 0 0 0 0 0 0 0 0 0 0 0 0 0 0 0 0 0 0

GFSCGP_con_sbcape_120.txt.gz
CAPE
0 0 0 0 0 0 0 0 5 488 452 480 451 324 163 93 152 597 422 141 123 158 337 538 557 401 329 424 638 997 1109 1447 1477 1528 1380 1292 1229 1499 1423 1288 2034 1989 2299 2526
0 0 0 0 0 0 0 0 21 392 348 291 239 233 56 272 70 313 535 200 169 132 284 474 588 528 355 399 674 1009 1183 1492 1810 1687 1719 1245 1124 1316 1237 1339 1732 1780 2245 2276
0 0 0 0 0 0 0 0 10 74 329 228 167 222 171 127 137 141 327 372 103 150 181 413 568 608 434 462 546 875 1279 1422 1528 1391 1488 1543 2056 1556 1628 1742 1648 1720 1952 2082
0 0 0 0 0 0 0 0 0 280 165 155 178 58 294 223 339 174 75 255 49 39 155 248 440 605 528 519 609 691 1139 1471 1483 1473 1821 1779 1196 907 1808 1688 1476 1627 1714 1792
0 0 0 0 0 0 0 0 0 242 201 162 192 156 66 210 345 243 166 267 57 51 76 187 327 520 534 544 628 716 1167 1682 1564 1888 1661 1012 940 850 1035 1075 1497 1603 2086 1929
0 0 0 0 0 0 0 0 179 345 190 105 82 211 128 389 179 120 59 123 169 257 106 182 297 439 552 567 609 674 1108 1601 1265 1837 1357 1344 961 950 1036 1114 1160 1408 1152 1365
0 0 0 0 0 0 0 10 76 90 124 44 308 178 199 188 196 115 68 134 257 324 214 165 329 358 548 602 620 686 980 1352 1302 1638 1426 1015 919 1036 987 1012 829 1158 1036 1152
0 0 0 0 0 5 8 17 40 68 68 125 415 196 271 301 190 132 202 184 297 259 301 184 262 408 536 661 668 699 814 1107 1210 1293 1048 1416 1295 1515 949 879 1102 797 937 934
0 0 0 1 27 56 65 135 30 73 93 129 143 338 380 313 198 152 109 26 17 51 182 311 239 482 626 732 745 789 827 959 937 977 1250 1489 1935 1672 1091 1252 1649 1279 2433 2043
0 0 0 6 187 216 350 320 170 80 142 200 155 286 236 241 308 224 175 65 22 33 149 347 278 528 710 753 787 865 844 835 834 819 1071 1227 1310 1596 1544 1560 1883 1316 1399 1698
0 0 14 2 102 83 264 396 347 260 376 222 283 292 256 277 363 384 252 179 89 200 146 304 342 589 702 755 756 987 906 788 838 868 1019 1088 1099 1172 1436 1378 1653 1855 2179 1889
0 1 36 56 30 0 7 173 220 329 241 441 304 141 466 476 444 423 359 195 132 239 186 103 409 662 715 753 761 1077 1055 963 998 917 1154 1331 1325 1329 1117 1435 1449 1817 2054 1982
0 0 16 46 74 56 72 161 274 210 269 61 287 221 361 664 532 526 518 503 241 274 292 179 269 677 580 372 880 947 1147 1219 1190 1280 1303 1410 1380 1433 1196 1452 1493 1760 1781 1786
0 0 0 13 35 13 184 285 453 396 294 173 207 207 37 808 880 753 610 604 483 400 393 214 104 228 361 254 360 1018 1170 1225 1372 1347 1451 1513 1445 1311 1279 1551 1690 1702 1707 1689
0 0 0 0 0 92 110 231 384 487 363 317 183 228 321 904 906 1227 767 702 597 602 550 453 151 65 143 193 566 899 1186 1344 1383 1343 1396 1549 1637 1616 1690 1582 1716 1619 1444 1238
32 45 28 34 54 142 210 191 194 521 665 756 750 658 1182 971 938 1376 849 730 585 594 483 697 513 250 125 153 354 607 1111 1492 1260 924 869 1407 1850 1919 1847 1428 1690 1449 1036 943
53 155 214 177 143 238 286 231 293 341 523 602 647 820 1029 1186 925 826 1112 890 786 719 731 506 677 602 560 159 177 299 867 1137 1099 579 645 1313 1655 1392 1815 1598 1449 1010 755 1037
40 102 140 237 222 254 307 424 291 231 312 468 455 845 1115 889 583 576 877 763 529 576 736 780 739 762 100 91 253 245 263 643 925 784 421 886 517 799 1114 271 252 215 288 287
0 86 146 292 279 189 267 393 425 384 224 89 202 1126 1047 678 908 400 230 113 91 66 47 27 27 165 284 161 111 98 94 86 93 190 237 289 243 380 169 92 99 142 165 191
4 199 272 176 255 206 583 578 366 280 369 335 603 1438 1332 1247 1265 472 18 7 9 7 8 13 8 14 31 48 381 313 176 191 290 205 299 363 384 284 89 67 22 56 28 2
136 198 161 154 321 175 278 338 330 413 625 1057 1383 1645 1490 1230 734 125 35 8 7 7 6 6 5 6 6 5 174 483 547 406 269 185 30 3 1 1 71 84 12 2 2 2
121 239 257 286 295 238 149 236 455 588 1001 1280 1649 1606 692 591 529 266 122 54 19 3 4 5 5 7 7 6 2 3 3 6 14 10 7 6 3 4 2 2 1 4 4 2
268 186 348 252 395 584 408 336 376 412 1236 1473 1511 1302 1215 649 498 378 161 160 92 22 1 0 0 0 1 2 2 2 4 6 4 3 3 5 6 4 5 9 5 2 4 4
209 285 258 392 541 509 539 415 371 943 1305 1641 1099 1282 706 460 275 190 153 167 112 62 15 0 0 0 0 0 0 1 1 0 0 1 1 0 1 2 2 2 5 4 9 8
297 334 147 64 307 601 714 962 1052 1170 1594 1487 1120 700 583 394 363 463 452 420 177 9 2 6 2 1 0 0 0 0 0 0 0 0 0 0 0 0 0 0 1 1 1 1
256 220 56 94 94 827 795 871 1194 1439 1329 1276 1107 812 488 411 299 166 52 0 0 0 0 0 0 0 0 0 0 0 0 0 0 0 0 0 0 0 0 0 0 0 0 0